<?xml version="1.0" encoding="UTF-8" standalone="no" ?>
<gpx xmlns="http://www.topografix.com/GPX/1/1" xmlns:xsi="http://www.w3.org/2001/XMLSchema-instance" xsi:schemaLocation="http://www.topografix.com/GPX/1/1 http://www.topografix.com/GPX/1/1/gpx.xsd" version="1.1" creator="VisuGPX - https://www.visugpx.com">
  <metadata>
    <name>St Georges - 17 01 2015</name>
    <desc><![CDATA[St Georges - 17 01 2015]]></desc>
  </metadata>
  <trk>
    <name><![CDATA[2015-01-17 12:26:30]]></name>
    <trkseg>
      <trkpt lat="44.86007" lon="4.80693">
        <ele>264.02</ele>
        <time>2015-01-17T07:31:04Z</time>
      </trkpt>
      <trkpt lat="44.86007" lon="4.80693">
        <ele>264.02</ele>
        <time>2015-01-17T07:31:05Z</time>
      </trkpt>
      <trkpt lat="44.86007" lon="4.80694">
        <ele>237.1</ele>
        <time>2015-01-17T07:31:08Z</time>
      </trkpt>
      <trkpt lat="44.86007" lon="4.80694">
        <ele>237.1</ele>
        <time>2015-01-17T07:31:09Z</time>
      </trkpt>
      <trkpt lat="44.86004" lon="4.80694">
        <ele>236.14</ele>
        <time>2015-01-17T07:31:31Z</time>
      </trkpt>
      <trkpt lat="44.86008" lon="4.80695">
        <ele>237.58</ele>
        <time>2015-01-17T07:31:46Z</time>
      </trkpt>
      <trkpt lat="44.86008" lon="4.80696">
        <ele>237.58</ele>
        <time>2015-01-17T07:32:02Z</time>
      </trkpt>
      <trkpt lat="44.86007" lon="4.80696">
        <ele>237.1</ele>
        <time>2015-01-17T07:32:04Z</time>
      </trkpt>
      <trkpt lat="44.86005" lon="4.80698">
        <ele>238.06</ele>
        <time>2015-01-17T07:32:06Z</time>
      </trkpt>
      <trkpt lat="44.85991" lon="4.80719">
        <ele>237.1</ele>
        <time>2015-01-17T07:32:13Z</time>
      </trkpt>
      <trkpt lat="44.8599" lon="4.80724">
        <ele>237.1</ele>
        <time>2015-01-17T07:32:14Z</time>
      </trkpt>
      <trkpt lat="44.85984" lon="4.808">
        <ele>237.58</ele>
        <time>2015-01-17T07:32:28Z</time>
      </trkpt>
      <trkpt lat="44.85983" lon="4.80806">
        <ele>238.06</ele>
        <time>2015-01-17T07:32:30Z</time>
      </trkpt>
      <trkpt lat="44.85981" lon="4.80808">
        <ele>237.58</ele>
        <time>2015-01-17T07:32:31Z</time>
      </trkpt>
      <trkpt lat="44.85962" lon="4.80805">
        <ele>235.18</ele>
        <time>2015-01-17T07:32:36Z</time>
      </trkpt>
      <trkpt lat="44.8596" lon="4.808">
        <ele>235.18</ele>
        <time>2015-01-17T07:32:37Z</time>
      </trkpt>
      <trkpt lat="44.8596" lon="4.80795">
        <ele>235.18</ele>
        <time>2015-01-17T07:32:38Z</time>
      </trkpt>
      <trkpt lat="44.8596" lon="4.80791">
        <ele>235.18</ele>
        <time>2015-01-17T07:32:39Z</time>
      </trkpt>
      <trkpt lat="44.85961" lon="4.80787">
        <ele>235.18</ele>
        <time>2015-01-17T07:32:40Z</time>
      </trkpt>
      <trkpt lat="44.85961" lon="4.80784">
        <ele>234.7</ele>
        <time>2015-01-17T07:32:41Z</time>
      </trkpt>
      <trkpt lat="44.85958" lon="4.80784">
        <ele>234.22</ele>
        <time>2015-01-17T07:32:51Z</time>
      </trkpt>
      <trkpt lat="44.85958" lon="4.80788">
        <ele>234.7</ele>
        <time>2015-01-17T07:33:17Z</time>
      </trkpt>
      <trkpt lat="44.85959" lon="4.80782">
        <ele>234.7</ele>
        <time>2015-01-17T07:33:49Z</time>
      </trkpt>
      <trkpt lat="44.85961" lon="4.80781">
        <ele>234.7</ele>
        <time>2015-01-17T07:34:25Z</time>
      </trkpt>
      <trkpt lat="44.8596" lon="4.80783">
        <ele>234.7</ele>
        <time>2015-01-17T07:34:47Z</time>
      </trkpt>
      <trkpt lat="44.85959" lon="4.80781">
        <ele>234.7</ele>
        <time>2015-01-17T07:34:51Z</time>
      </trkpt>
      <trkpt lat="44.85958" lon="4.80781">
        <ele>234.7</ele>
        <time>2015-01-17T07:34:52Z</time>
      </trkpt>
      <trkpt lat="44.85957" lon="4.80782">
        <ele>234.7</ele>
        <time>2015-01-17T07:34:53Z</time>
      </trkpt>
      <trkpt lat="44.85959" lon="4.8078">
        <ele>234.7</ele>
        <time>2015-01-17T07:34:57Z</time>
      </trkpt>
      <trkpt lat="44.85959" lon="4.80779">
        <ele>235.18</ele>
        <time>2015-01-17T07:34:58Z</time>
      </trkpt>
      <trkpt lat="44.85959" lon="4.80777">
        <ele>234.7</ele>
        <time>2015-01-17T07:34:59Z</time>
      </trkpt>
      <trkpt lat="44.8596" lon="4.80776">
        <ele>234.7</ele>
        <time>2015-01-17T07:35:00Z</time>
      </trkpt>
      <trkpt lat="44.8596" lon="4.80774">
        <ele>234.7</ele>
        <time>2015-01-17T07:35:01Z</time>
      </trkpt>
      <trkpt lat="44.85961" lon="4.80773">
        <ele>234.7</ele>
        <time>2015-01-17T07:35:02Z</time>
      </trkpt>
      <trkpt lat="44.8596" lon="4.80772">
        <ele>234.7</ele>
        <time>2015-01-17T07:35:03Z</time>
      </trkpt>
      <trkpt lat="44.85959" lon="4.80772">
        <ele>234.7</ele>
        <time>2015-01-17T07:35:04Z</time>
      </trkpt>
      <trkpt lat="44.85958" lon="4.80773">
        <ele>234.7</ele>
        <time>2015-01-17T07:35:05Z</time>
      </trkpt>
      <trkpt lat="44.85962" lon="4.80779">
        <ele>234.7</ele>
        <time>2015-01-17T07:35:14Z</time>
      </trkpt>
      <trkpt lat="44.8596" lon="4.80779">
        <ele>234.7</ele>
        <time>2015-01-17T07:35:26Z</time>
      </trkpt>
      <trkpt lat="44.8596" lon="4.80776">
        <ele>235.18</ele>
        <time>2015-01-17T07:35:40Z</time>
      </trkpt>
      <trkpt lat="44.85959" lon="4.80777">
        <ele>234.7</ele>
        <time>2015-01-17T07:35:41Z</time>
      </trkpt>
      <trkpt lat="44.85958" lon="4.80778">
        <ele>234.7</ele>
        <time>2015-01-17T07:35:42Z</time>
      </trkpt>
      <trkpt lat="44.8596" lon="4.80776">
        <ele>234.7</ele>
        <time>2015-01-17T07:35:53Z</time>
      </trkpt>
      <trkpt lat="44.85961" lon="4.80781">
        <ele>234.7</ele>
        <time>2015-01-17T07:36:09Z</time>
      </trkpt>
      <trkpt lat="44.85961" lon="4.80782">
        <ele>234.7</ele>
        <time>2015-01-17T07:36:10Z</time>
      </trkpt>
      <trkpt lat="44.85963" lon="4.80785">
        <ele>235.18</ele>
        <time>2015-01-17T07:36:22Z</time>
      </trkpt>
      <trkpt lat="44.85962" lon="4.80785">
        <ele>235.18</ele>
        <time>2015-01-17T07:36:23Z</time>
      </trkpt>
      <trkpt lat="44.85961" lon="4.80787">
        <ele>235.18</ele>
        <time>2015-01-17T07:36:24Z</time>
      </trkpt>
      <trkpt lat="44.85961" lon="4.80788">
        <ele>235.18</ele>
        <time>2015-01-17T07:36:25Z</time>
      </trkpt>
      <trkpt lat="44.85962" lon="4.8079">
        <ele>234.7</ele>
        <time>2015-01-17T07:36:26Z</time>
      </trkpt>
      <trkpt lat="44.85963" lon="4.8079">
        <ele>235.18</ele>
        <time>2015-01-17T07:36:27Z</time>
      </trkpt>
      <trkpt lat="44.85964" lon="4.80788">
        <ele>235.18</ele>
        <time>2015-01-17T07:36:28Z</time>
      </trkpt>
      <trkpt lat="44.85965" lon="4.80787">
        <ele>235.66</ele>
        <time>2015-01-17T07:36:29Z</time>
      </trkpt>
      <trkpt lat="44.85966" lon="4.80784">
        <ele>235.66</ele>
        <time>2015-01-17T07:36:30Z</time>
      </trkpt>
      <trkpt lat="44.85966" lon="4.80782">
        <ele>235.66</ele>
        <time>2015-01-17T07:36:31Z</time>
      </trkpt>
      <trkpt lat="44.85983" lon="4.80758">
        <ele>237.1</ele>
        <time>2015-01-17T07:36:44Z</time>
      </trkpt>
      <trkpt lat="44.85984" lon="4.80759">
        <ele>237.1</ele>
        <time>2015-01-17T07:36:45Z</time>
      </trkpt>
      <trkpt lat="44.85986" lon="4.8076">
        <ele>237.1</ele>
        <time>2015-01-17T07:36:46Z</time>
      </trkpt>
      <trkpt lat="44.85986" lon="4.80762">
        <ele>237.1</ele>
        <time>2015-01-17T07:36:47Z</time>
      </trkpt>
      <trkpt lat="44.85986" lon="4.80765">
        <ele>237.1</ele>
        <time>2015-01-17T07:36:48Z</time>
      </trkpt>
      <trkpt lat="44.85986" lon="4.80767">
        <ele>237.1</ele>
        <time>2015-01-17T07:36:49Z</time>
      </trkpt>
      <trkpt lat="44.85986" lon="4.80769">
        <ele>237.58</ele>
        <time>2015-01-17T07:36:50Z</time>
      </trkpt>
      <trkpt lat="44.85986" lon="4.80772">
        <ele>237.58</ele>
        <time>2015-01-17T07:36:51Z</time>
      </trkpt>
      <trkpt lat="44.85986" lon="4.80815">
        <ele>238.54</ele>
        <time>2015-01-17T07:37:05Z</time>
      </trkpt>
      <trkpt lat="44.85993" lon="4.80857">
        <ele>238.06</ele>
        <time>2015-01-17T07:37:19Z</time>
      </trkpt>
      <trkpt lat="44.85996" lon="4.80858">
        <ele>237.58</ele>
        <time>2015-01-17T07:37:38Z</time>
      </trkpt>
      <trkpt lat="44.85997" lon="4.80858">
        <ele>238.06</ele>
        <time>2015-01-17T07:37:57Z</time>
      </trkpt>
      <trkpt lat="44.85999" lon="4.80855">
        <ele>238.06</ele>
        <time>2015-01-17T07:38:22Z</time>
      </trkpt>
      <trkpt lat="44.85997" lon="4.80855">
        <ele>238.54</ele>
        <time>2015-01-17T07:38:44Z</time>
      </trkpt>
      <trkpt lat="44.85998" lon="4.80855">
        <ele>238.54</ele>
        <time>2015-01-17T07:39:06Z</time>
      </trkpt>
      <trkpt lat="44.85998" lon="4.80854">
        <ele>238.54</ele>
        <time>2015-01-17T07:39:26Z</time>
      </trkpt>
      <trkpt lat="44.85997" lon="4.80853">
        <ele>238.54</ele>
        <time>2015-01-17T07:39:46Z</time>
      </trkpt>
      <trkpt lat="44.85997" lon="4.80853">
        <ele>239.02</ele>
        <time>2015-01-17T07:40:07Z</time>
      </trkpt>
      <trkpt lat="44.85996" lon="4.80851">
        <ele>239.51</ele>
        <time>2015-01-17T07:40:52Z</time>
      </trkpt>
      <trkpt lat="44.85997" lon="4.80854">
        <ele>239.51</ele>
        <time>2015-01-17T07:41:04Z</time>
      </trkpt>
      <trkpt lat="44.85998" lon="4.80855">
        <ele>239.99</ele>
        <time>2015-01-17T07:41:05Z</time>
      </trkpt>
      <trkpt lat="44.85999" lon="4.80857">
        <ele>239.51</ele>
        <time>2015-01-17T07:41:06Z</time>
      </trkpt>
      <trkpt lat="44.85999" lon="4.80859">
        <ele>239.51</ele>
        <time>2015-01-17T07:41:07Z</time>
      </trkpt>
      <trkpt lat="44.86" lon="4.80861">
        <ele>239.51</ele>
        <time>2015-01-17T07:41:08Z</time>
      </trkpt>
      <trkpt lat="44.86001" lon="4.80864">
        <ele>239.51</ele>
        <time>2015-01-17T07:41:09Z</time>
      </trkpt>
      <trkpt lat="44.86002" lon="4.80866">
        <ele>239.51</ele>
        <time>2015-01-17T07:41:10Z</time>
      </trkpt>
      <trkpt lat="44.86003" lon="4.80867">
        <ele>239.99</ele>
        <time>2015-01-17T07:41:11Z</time>
      </trkpt>
      <trkpt lat="44.86003" lon="4.8087">
        <ele>239.99</ele>
        <time>2015-01-17T07:41:12Z</time>
      </trkpt>
      <trkpt lat="44.86005" lon="4.80872">
        <ele>239.51</ele>
        <time>2015-01-17T07:41:13Z</time>
      </trkpt>
      <trkpt lat="44.86006" lon="4.80874">
        <ele>239.51</ele>
        <time>2015-01-17T07:41:14Z</time>
      </trkpt>
      <trkpt lat="44.86008" lon="4.80877">
        <ele>239.51</ele>
        <time>2015-01-17T07:41:15Z</time>
      </trkpt>
      <trkpt lat="44.86009" lon="4.80879">
        <ele>239.51</ele>
        <time>2015-01-17T07:41:16Z</time>
      </trkpt>
      <trkpt lat="44.86045" lon="4.80911">
        <ele>239.02</ele>
        <time>2015-01-17T07:41:30Z</time>
      </trkpt>
      <trkpt lat="44.86055" lon="4.80919">
        <ele>238.54</ele>
        <time>2015-01-17T07:41:33Z</time>
      </trkpt>
      <trkpt lat="44.86059" lon="4.80922">
        <ele>239.02</ele>
        <time>2015-01-17T07:41:34Z</time>
      </trkpt>
      <trkpt lat="44.86087" lon="4.8095">
        <ele>239.02</ele>
        <time>2015-01-17T07:41:43Z</time>
      </trkpt>
      <trkpt lat="44.8609" lon="4.80954">
        <ele>239.02</ele>
        <time>2015-01-17T07:41:44Z</time>
      </trkpt>
      <trkpt lat="44.86096" lon="4.80963">
        <ele>239.02</ele>
        <time>2015-01-17T07:41:46Z</time>
      </trkpt>
      <trkpt lat="44.86103" lon="4.80973">
        <ele>238.54</ele>
        <time>2015-01-17T07:41:48Z</time>
      </trkpt>
      <trkpt lat="44.86106" lon="4.80978">
        <ele>238.06</ele>
        <time>2015-01-17T07:41:49Z</time>
      </trkpt>
      <trkpt lat="44.86114" lon="4.80987">
        <ele>238.06</ele>
        <time>2015-01-17T07:41:51Z</time>
      </trkpt>
      <trkpt lat="44.86118" lon="4.8099">
        <ele>237.58</ele>
        <time>2015-01-17T07:41:52Z</time>
      </trkpt>
      <trkpt lat="44.86128" lon="4.80997">
        <ele>237.1</ele>
        <time>2015-01-17T07:41:54Z</time>
      </trkpt>
      <trkpt lat="44.86136" lon="4.81003">
        <ele>236.14</ele>
        <time>2015-01-17T07:41:56Z</time>
      </trkpt>
      <trkpt lat="44.86181" lon="4.81051">
        <ele>233.26</ele>
        <time>2015-01-17T07:42:07Z</time>
      </trkpt>
      <trkpt lat="44.86187" lon="4.81056">
        <ele>232.78</ele>
        <time>2015-01-17T07:42:08Z</time>
      </trkpt>
      <trkpt lat="44.86193" lon="4.81059">
        <ele>233.26</ele>
        <time>2015-01-17T07:42:09Z</time>
      </trkpt>
      <trkpt lat="44.86211" lon="4.81069">
        <ele>230.37</ele>
        <time>2015-01-17T07:42:12Z</time>
      </trkpt>
      <trkpt lat="44.86217" lon="4.81074">
        <ele>229.89</ele>
        <time>2015-01-17T07:42:13Z</time>
      </trkpt>
      <trkpt lat="44.86223" lon="4.81081">
        <ele>229.41</ele>
        <time>2015-01-17T07:42:14Z</time>
      </trkpt>
      <trkpt lat="44.86228" lon="4.81088">
        <ele>228.93</ele>
        <time>2015-01-17T07:42:15Z</time>
      </trkpt>
      <trkpt lat="44.86233" lon="4.81096">
        <ele>227.97</ele>
        <time>2015-01-17T07:42:16Z</time>
      </trkpt>
      <trkpt lat="44.86242" lon="4.81112">
        <ele>227.49</ele>
        <time>2015-01-17T07:42:18Z</time>
      </trkpt>
      <trkpt lat="44.86246" lon="4.81119">
        <ele>226.53</ele>
        <time>2015-01-17T07:42:19Z</time>
      </trkpt>
      <trkpt lat="44.86261" lon="4.8115">
        <ele>224.12</ele>
        <time>2015-01-17T07:42:23Z</time>
      </trkpt>
      <trkpt lat="44.86265" lon="4.81156">
        <ele>224.61</ele>
        <time>2015-01-17T07:42:24Z</time>
      </trkpt>
      <trkpt lat="44.8627" lon="4.8116">
        <ele>224.61</ele>
        <time>2015-01-17T07:42:25Z</time>
      </trkpt>
      <trkpt lat="44.86275" lon="4.81163">
        <ele>224.61</ele>
        <time>2015-01-17T07:42:26Z</time>
      </trkpt>
      <trkpt lat="44.8628" lon="4.81166">
        <ele>225.09</ele>
        <time>2015-01-17T07:42:27Z</time>
      </trkpt>
      <trkpt lat="44.86316" lon="4.81186">
        <ele>223.16</ele>
        <time>2015-01-17T07:42:35Z</time>
      </trkpt>
      <trkpt lat="44.86322" lon="4.81187">
        <ele>223.16</ele>
        <time>2015-01-17T07:42:36Z</time>
      </trkpt>
      <trkpt lat="44.86327" lon="4.81184">
        <ele>222.68</ele>
        <time>2015-01-17T07:42:37Z</time>
      </trkpt>
      <trkpt lat="44.86347" lon="4.81166">
        <ele>222.68</ele>
        <time>2015-01-17T07:42:42Z</time>
      </trkpt>
      <trkpt lat="44.86351" lon="4.81164">
        <ele>222.68</ele>
        <time>2015-01-17T07:42:43Z</time>
      </trkpt>
      <trkpt lat="44.86356" lon="4.81163">
        <ele>222.68</ele>
        <time>2015-01-17T07:42:44Z</time>
      </trkpt>
      <trkpt lat="44.8636" lon="4.81163">
        <ele>222.68</ele>
        <time>2015-01-17T07:42:45Z</time>
      </trkpt>
      <trkpt lat="44.86365" lon="4.81164">
        <ele>222.68</ele>
        <time>2015-01-17T07:42:46Z</time>
      </trkpt>
      <trkpt lat="44.86369" lon="4.81165">
        <ele>222.68</ele>
        <time>2015-01-17T07:42:47Z</time>
      </trkpt>
      <trkpt lat="44.86374" lon="4.81166">
        <ele>222.68</ele>
        <time>2015-01-17T07:42:48Z</time>
      </trkpt>
      <trkpt lat="44.86435" lon="4.81194">
        <ele>225.09</ele>
        <time>2015-01-17T07:43:05Z</time>
      </trkpt>
      <trkpt lat="44.86505" lon="4.81223">
        <ele>227.49</ele>
        <time>2015-01-17T07:43:25Z</time>
      </trkpt>
      <trkpt lat="44.8656" lon="4.81249">
        <ele>228.93</ele>
        <time>2015-01-17T07:43:41Z</time>
      </trkpt>
      <trkpt lat="44.86606" lon="4.81271">
        <ele>232.3</ele>
        <time>2015-01-17T07:43:56Z</time>
      </trkpt>
      <trkpt lat="44.86652" lon="4.81288">
        <ele>234.22</ele>
        <time>2015-01-17T07:44:11Z</time>
      </trkpt>
      <trkpt lat="44.8671" lon="4.81307">
        <ele>234.7</ele>
        <time>2015-01-17T07:44:27Z</time>
      </trkpt>
      <trkpt lat="44.86766" lon="4.81307">
        <ele>236.14</ele>
        <time>2015-01-17T07:44:42Z</time>
      </trkpt>
      <trkpt lat="44.86831" lon="4.81287">
        <ele>238.54</ele>
        <time>2015-01-17T07:45:00Z</time>
      </trkpt>
      <trkpt lat="44.86877" lon="4.81275">
        <ele>239.51</ele>
        <time>2015-01-17T07:45:15Z</time>
      </trkpt>
      <trkpt lat="44.86921" lon="4.81263">
        <ele>241.43</ele>
        <time>2015-01-17T07:45:29Z</time>
      </trkpt>
      <trkpt lat="44.86954" lon="4.81236">
        <ele>244.31</ele>
        <time>2015-01-17T07:45:44Z</time>
      </trkpt>
      <trkpt lat="44.86975" lon="4.81214">
        <ele>247.68</ele>
        <time>2015-01-17T07:45:55Z</time>
      </trkpt>
      <trkpt lat="44.87005" lon="4.812">
        <ele>251.04</ele>
        <time>2015-01-17T07:46:08Z</time>
      </trkpt>
      <trkpt lat="44.87041" lon="4.81184">
        <ele>253.44</ele>
        <time>2015-01-17T07:46:23Z</time>
      </trkpt>
      <trkpt lat="44.87047" lon="4.81153">
        <ele>255.37</ele>
        <time>2015-01-17T07:46:35Z</time>
      </trkpt>
      <trkpt lat="44.87055" lon="4.81119">
        <ele>258.25</ele>
        <time>2015-01-17T07:46:49Z</time>
      </trkpt>
      <trkpt lat="44.87061" lon="4.81087">
        <ele>261.14</ele>
        <time>2015-01-17T07:47:04Z</time>
      </trkpt>
      <trkpt lat="44.87061" lon="4.81085">
        <ele>261.62</ele>
        <time>2015-01-17T07:47:05Z</time>
      </trkpt>
      <trkpt lat="44.87061" lon="4.81073">
        <ele>262.1</ele>
        <time>2015-01-17T07:47:10Z</time>
      </trkpt>
      <trkpt lat="44.87062" lon="4.8107">
        <ele>262.58</ele>
        <time>2015-01-17T07:47:11Z</time>
      </trkpt>
      <trkpt lat="44.87062" lon="4.81068">
        <ele>262.58</ele>
        <time>2015-01-17T07:47:12Z</time>
      </trkpt>
      <trkpt lat="44.87063" lon="4.81065">
        <ele>263.06</ele>
        <time>2015-01-17T07:47:13Z</time>
      </trkpt>
      <trkpt lat="44.87063" lon="4.81063">
        <ele>263.06</ele>
        <time>2015-01-17T07:47:14Z</time>
      </trkpt>
      <trkpt lat="44.87064" lon="4.81061">
        <ele>263.06</ele>
        <time>2015-01-17T07:47:15Z</time>
      </trkpt>
      <trkpt lat="44.87064" lon="4.81059">
        <ele>263.06</ele>
        <time>2015-01-17T07:47:16Z</time>
      </trkpt>
      <trkpt lat="44.87065" lon="4.81057">
        <ele>263.06</ele>
        <time>2015-01-17T07:47:17Z</time>
      </trkpt>
      <trkpt lat="44.87065" lon="4.81054">
        <ele>263.54</ele>
        <time>2015-01-17T07:47:18Z</time>
      </trkpt>
      <trkpt lat="44.87068" lon="4.81003">
        <ele>265.94</ele>
        <time>2015-01-17T07:47:34Z</time>
      </trkpt>
      <trkpt lat="44.87058" lon="4.80965">
        <ele>268.83</ele>
        <time>2015-01-17T07:47:49Z</time>
      </trkpt>
      <trkpt lat="44.8704" lon="4.80915">
        <ele>271.71</ele>
        <time>2015-01-17T07:48:08Z</time>
      </trkpt>
      <trkpt lat="44.87032" lon="4.80889">
        <ele>274.59</ele>
        <time>2015-01-17T07:48:20Z</time>
      </trkpt>
      <trkpt lat="44.8703" lon="4.80864">
        <ele>277.96</ele>
        <time>2015-01-17T07:48:31Z</time>
      </trkpt>
      <trkpt lat="44.87028" lon="4.80819">
        <ele>281.32</ele>
        <time>2015-01-17T07:48:48Z</time>
      </trkpt>
      <trkpt lat="44.87037" lon="4.80786">
        <ele>283.73</ele>
        <time>2015-01-17T07:49:01Z</time>
      </trkpt>
      <trkpt lat="44.8705" lon="4.80755">
        <ele>286.61</ele>
        <time>2015-01-17T07:49:15Z</time>
      </trkpt>
      <trkpt lat="44.87051" lon="4.80739">
        <ele>288.53</ele>
        <time>2015-01-17T07:49:28Z</time>
      </trkpt>
      <trkpt lat="44.87052" lon="4.80736">
        <ele>288.53</ele>
        <time>2015-01-17T07:49:48Z</time>
      </trkpt>
      <trkpt lat="44.8706" lon="4.80712">
        <ele>291.42</ele>
        <time>2015-01-17T07:50:01Z</time>
      </trkpt>
      <trkpt lat="44.87061" lon="4.80711">
        <ele>291.42</ele>
        <time>2015-01-17T07:50:02Z</time>
      </trkpt>
      <trkpt lat="44.87063" lon="4.80709">
        <ele>291.42</ele>
        <time>2015-01-17T07:50:03Z</time>
      </trkpt>
      <trkpt lat="44.87064" lon="4.80708">
        <ele>291.9</ele>
        <time>2015-01-17T07:50:04Z</time>
      </trkpt>
      <trkpt lat="44.87065" lon="4.80706">
        <ele>291.9</ele>
        <time>2015-01-17T07:50:05Z</time>
      </trkpt>
      <trkpt lat="44.87082" lon="4.80684">
        <ele>295.26</ele>
        <time>2015-01-17T07:50:20Z</time>
      </trkpt>
      <trkpt lat="44.87096" lon="4.80659">
        <ele>298.15</ele>
        <time>2015-01-17T07:50:33Z</time>
      </trkpt>
      <trkpt lat="44.87113" lon="4.80619">
        <ele>301.51</ele>
        <time>2015-01-17T07:50:51Z</time>
      </trkpt>
      <trkpt lat="44.87128" lon="4.80579">
        <ele>304.39</ele>
        <time>2015-01-17T07:51:09Z</time>
      </trkpt>
      <trkpt lat="44.87131" lon="4.80541">
        <ele>307.28</ele>
        <time>2015-01-17T07:51:26Z</time>
      </trkpt>
      <trkpt lat="44.87134" lon="4.80503">
        <ele>309.2</ele>
        <time>2015-01-17T07:51:42Z</time>
      </trkpt>
      <trkpt lat="44.87154" lon="4.80483">
        <ele>312.09</ele>
        <time>2015-01-17T07:51:57Z</time>
      </trkpt>
      <trkpt lat="44.87174" lon="4.80454">
        <ele>315.45</ele>
        <time>2015-01-17T07:52:13Z</time>
      </trkpt>
      <trkpt lat="44.87188" lon="4.80422">
        <ele>317.37</ele>
        <time>2015-01-17T07:52:28Z</time>
      </trkpt>
      <trkpt lat="44.87199" lon="4.8039">
        <ele>320.26</ele>
        <time>2015-01-17T07:52:42Z</time>
      </trkpt>
      <trkpt lat="44.8721" lon="4.80357">
        <ele>323.62</ele>
        <time>2015-01-17T07:52:57Z</time>
      </trkpt>
      <trkpt lat="44.87222" lon="4.80323">
        <ele>326.99</ele>
        <time>2015-01-17T07:53:13Z</time>
      </trkpt>
      <trkpt lat="44.87232" lon="4.80277">
        <ele>328.91</ele>
        <time>2015-01-17T07:53:31Z</time>
      </trkpt>
      <trkpt lat="44.87242" lon="4.80239">
        <ele>331.79</ele>
        <time>2015-01-17T07:53:47Z</time>
      </trkpt>
      <trkpt lat="44.8727" lon="4.80229">
        <ele>334.68</ele>
        <time>2015-01-17T07:54:03Z</time>
      </trkpt>
      <trkpt lat="44.87288" lon="4.80232">
        <ele>338.04</ele>
        <time>2015-01-17T07:54:14Z</time>
      </trkpt>
      <trkpt lat="44.87311" lon="4.80222">
        <ele>339.96</ele>
        <time>2015-01-17T07:54:29Z</time>
      </trkpt>
      <trkpt lat="44.87335" lon="4.80204">
        <ele>342.85</ele>
        <time>2015-01-17T07:54:44Z</time>
      </trkpt>
      <trkpt lat="44.87363" lon="4.80176">
        <ele>346.21</ele>
        <time>2015-01-17T07:55:02Z</time>
      </trkpt>
      <trkpt lat="44.87387" lon="4.80152">
        <ele>349.58</ele>
        <time>2015-01-17T07:55:19Z</time>
      </trkpt>
      <trkpt lat="44.87407" lon="4.80132">
        <ele>351.98</ele>
        <time>2015-01-17T07:55:33Z</time>
      </trkpt>
      <trkpt lat="44.87431" lon="4.80111">
        <ele>354.86</ele>
        <time>2015-01-17T07:55:48Z</time>
      </trkpt>
      <trkpt lat="44.87447" lon="4.80098">
        <ele>358.23</ele>
        <time>2015-01-17T07:56:00Z</time>
      </trkpt>
      <trkpt lat="44.87465" lon="4.8007">
        <ele>362.07</ele>
        <time>2015-01-17T07:56:15Z</time>
      </trkpt>
      <trkpt lat="44.87471" lon="4.80036">
        <ele>364</ele>
        <time>2015-01-17T07:56:31Z</time>
      </trkpt>
      <trkpt lat="44.87475" lon="4.80002">
        <ele>367.36</ele>
        <time>2015-01-17T07:56:46Z</time>
      </trkpt>
      <trkpt lat="44.87482" lon="4.79966">
        <ele>369.76</ele>
        <time>2015-01-17T07:57:00Z</time>
      </trkpt>
      <trkpt lat="44.87482" lon="4.79929">
        <ele>372.65</ele>
        <time>2015-01-17T07:57:15Z</time>
      </trkpt>
      <trkpt lat="44.8748" lon="4.79918">
        <ele>373.13</ele>
        <time>2015-01-17T07:57:21Z</time>
      </trkpt>
      <trkpt lat="44.8748" lon="4.79916">
        <ele>373.13</ele>
        <time>2015-01-17T07:57:22Z</time>
      </trkpt>
      <trkpt lat="44.8748" lon="4.79913">
        <ele>373.61</ele>
        <time>2015-01-17T07:57:23Z</time>
      </trkpt>
      <trkpt lat="44.8748" lon="4.79911">
        <ele>373.61</ele>
        <time>2015-01-17T07:57:24Z</time>
      </trkpt>
      <trkpt lat="44.8748" lon="4.79908">
        <ele>373.61</ele>
        <time>2015-01-17T07:57:25Z</time>
      </trkpt>
      <trkpt lat="44.87483" lon="4.79867">
        <ele>376.49</ele>
        <time>2015-01-17T07:57:39Z</time>
      </trkpt>
      <trkpt lat="44.87482" lon="4.79833">
        <ele>379.86</ele>
        <time>2015-01-17T07:57:54Z</time>
      </trkpt>
      <trkpt lat="44.87483" lon="4.79802">
        <ele>383.22</ele>
        <time>2015-01-17T07:58:09Z</time>
      </trkpt>
      <trkpt lat="44.87478" lon="4.79767">
        <ele>386.11</ele>
        <time>2015-01-17T07:58:24Z</time>
      </trkpt>
      <trkpt lat="44.87472" lon="4.79745">
        <ele>388.51</ele>
        <time>2015-01-17T07:58:35Z</time>
      </trkpt>
      <trkpt lat="44.87471" lon="4.79743">
        <ele>388.51</ele>
        <time>2015-01-17T07:58:36Z</time>
      </trkpt>
      <trkpt lat="44.8747" lon="4.79741">
        <ele>388.99</ele>
        <time>2015-01-17T07:58:37Z</time>
      </trkpt>
      <trkpt lat="44.8747" lon="4.79739">
        <ele>389.47</ele>
        <time>2015-01-17T07:58:38Z</time>
      </trkpt>
      <trkpt lat="44.87469" lon="4.79736">
        <ele>389.47</ele>
        <time>2015-01-17T07:58:39Z</time>
      </trkpt>
      <trkpt lat="44.87468" lon="4.79734">
        <ele>389.95</ele>
        <time>2015-01-17T07:58:40Z</time>
      </trkpt>
      <trkpt lat="44.87468" lon="4.79732">
        <ele>389.95</ele>
        <time>2015-01-17T07:58:41Z</time>
      </trkpt>
      <trkpt lat="44.87466" lon="4.79725">
        <ele>390.91</ele>
        <time>2015-01-17T07:58:44Z</time>
      </trkpt>
      <trkpt lat="44.87465" lon="4.79724">
        <ele>390.91</ele>
        <time>2015-01-17T07:58:45Z</time>
      </trkpt>
      <trkpt lat="44.87464" lon="4.79722">
        <ele>391.39</ele>
        <time>2015-01-17T07:58:46Z</time>
      </trkpt>
      <trkpt lat="44.87464" lon="4.79719">
        <ele>391.39</ele>
        <time>2015-01-17T07:58:47Z</time>
      </trkpt>
      <trkpt lat="44.87463" lon="4.79717">
        <ele>391.87</ele>
        <time>2015-01-17T07:58:48Z</time>
      </trkpt>
      <trkpt lat="44.87463" lon="4.79715">
        <ele>391.87</ele>
        <time>2015-01-17T07:58:49Z</time>
      </trkpt>
      <trkpt lat="44.87462" lon="4.79712">
        <ele>392.36</ele>
        <time>2015-01-17T07:58:50Z</time>
      </trkpt>
      <trkpt lat="44.87462" lon="4.7971">
        <ele>392.36</ele>
        <time>2015-01-17T07:58:51Z</time>
      </trkpt>
      <trkpt lat="44.87461" lon="4.79708">
        <ele>392.36</ele>
        <time>2015-01-17T07:58:52Z</time>
      </trkpt>
      <trkpt lat="44.87462" lon="4.79705">
        <ele>392.84</ele>
        <time>2015-01-17T07:58:53Z</time>
      </trkpt>
      <trkpt lat="44.87465" lon="4.79672">
        <ele>393.8</ele>
        <time>2015-01-17T07:59:06Z</time>
      </trkpt>
      <trkpt lat="44.87469" lon="4.79633">
        <ele>396.2</ele>
        <time>2015-01-17T07:59:20Z</time>
      </trkpt>
      <trkpt lat="44.87464" lon="4.79599">
        <ele>397.16</ele>
        <time>2015-01-17T07:59:34Z</time>
      </trkpt>
      <trkpt lat="44.87454" lon="4.7956">
        <ele>400.05</ele>
        <time>2015-01-17T07:59:50Z</time>
      </trkpt>
      <trkpt lat="44.87441" lon="4.79532">
        <ele>402.45</ele>
        <time>2015-01-17T08:00:05Z</time>
      </trkpt>
      <trkpt lat="44.8744" lon="4.79531">
        <ele>402.45</ele>
        <time>2015-01-17T08:00:06Z</time>
      </trkpt>
      <trkpt lat="44.87439" lon="4.7953">
        <ele>402.45</ele>
        <time>2015-01-17T08:00:07Z</time>
      </trkpt>
      <trkpt lat="44.8744" lon="4.79531">
        <ele>403.41</ele>
        <time>2015-01-17T08:00:18Z</time>
      </trkpt>
      <trkpt lat="44.87441" lon="4.79538">
        <ele>403.41</ele>
        <time>2015-01-17T08:00:26Z</time>
      </trkpt>
      <trkpt lat="44.87442" lon="4.7954">
        <ele>403.89</ele>
        <time>2015-01-17T08:00:27Z</time>
      </trkpt>
      <trkpt lat="44.87442" lon="4.79542">
        <ele>403.89</ele>
        <time>2015-01-17T08:00:28Z</time>
      </trkpt>
      <trkpt lat="44.87445" lon="4.79544">
        <ele>403.41</ele>
        <time>2015-01-17T08:00:37Z</time>
      </trkpt>
      <trkpt lat="44.87443" lon="4.7955">
        <ele>404.37</ele>
        <time>2015-01-17T08:00:48Z</time>
      </trkpt>
      <trkpt lat="44.87445" lon="4.79557">
        <ele>404.85</ele>
        <time>2015-01-17T08:01:13Z</time>
      </trkpt>
      <trkpt lat="44.87449" lon="4.79556">
        <ele>404.85</ele>
        <time>2015-01-17T08:01:34Z</time>
      </trkpt>
      <trkpt lat="44.87449" lon="4.7956">
        <ele>405.33</ele>
        <time>2015-01-17T08:01:56Z</time>
      </trkpt>
      <trkpt lat="44.87447" lon="4.7956">
        <ele>405.33</ele>
        <time>2015-01-17T08:02:12Z</time>
      </trkpt>
      <trkpt lat="44.87449" lon="4.79554">
        <ele>405.33</ele>
        <time>2015-01-17T08:02:47Z</time>
      </trkpt>
      <trkpt lat="44.8745" lon="4.79551">
        <ele>405.33</ele>
        <time>2015-01-17T08:03:07Z</time>
      </trkpt>
      <trkpt lat="44.87449" lon="4.79556">
        <ele>406.29</ele>
        <time>2015-01-17T08:03:17Z</time>
      </trkpt>
      <trkpt lat="44.87449" lon="4.79558">
        <ele>406.29</ele>
        <time>2015-01-17T08:03:18Z</time>
      </trkpt>
      <trkpt lat="44.8745" lon="4.7956">
        <ele>406.77</ele>
        <time>2015-01-17T08:03:19Z</time>
      </trkpt>
      <trkpt lat="44.8745" lon="4.79563">
        <ele>407.26</ele>
        <time>2015-01-17T08:03:21Z</time>
      </trkpt>
      <trkpt lat="44.87449" lon="4.79565">
        <ele>407.74</ele>
        <time>2015-01-17T08:03:22Z</time>
      </trkpt>
      <trkpt lat="44.87448" lon="4.79566">
        <ele>408.22</ele>
        <time>2015-01-17T08:03:23Z</time>
      </trkpt>
      <trkpt lat="44.87447" lon="4.7959">
        <ele>410.62</ele>
        <time>2015-01-17T08:03:38Z</time>
      </trkpt>
      <trkpt lat="44.87445" lon="4.79597">
        <ele>411.58</ele>
        <time>2015-01-17T08:03:43Z</time>
      </trkpt>
      <trkpt lat="44.87445" lon="4.79599">
        <ele>411.58</ele>
        <time>2015-01-17T08:03:44Z</time>
      </trkpt>
      <trkpt lat="44.87445" lon="4.79602">
        <ele>411.58</ele>
        <time>2015-01-17T08:03:45Z</time>
      </trkpt>
      <trkpt lat="44.87444" lon="4.79603">
        <ele>411.58</ele>
        <time>2015-01-17T08:03:46Z</time>
      </trkpt>
      <trkpt lat="44.87435" lon="4.7963">
        <ele>413.5</ele>
        <time>2015-01-17T08:04:02Z</time>
      </trkpt>
      <trkpt lat="44.87434" lon="4.79636">
        <ele>413.5</ele>
        <time>2015-01-17T08:04:05Z</time>
      </trkpt>
      <trkpt lat="44.87433" lon="4.79638">
        <ele>413.98</ele>
        <time>2015-01-17T08:04:06Z</time>
      </trkpt>
      <trkpt lat="44.87426" lon="4.79674">
        <ele>415.91</ele>
        <time>2015-01-17T08:04:23Z</time>
      </trkpt>
      <trkpt lat="44.87425" lon="4.79685">
        <ele>416.87</ele>
        <time>2015-01-17T08:04:29Z</time>
      </trkpt>
      <trkpt lat="44.87425" lon="4.79687">
        <ele>416.87</ele>
        <time>2015-01-17T08:04:30Z</time>
      </trkpt>
      <trkpt lat="44.8742" lon="4.79726">
        <ele>419.27</ele>
        <time>2015-01-17T08:04:45Z</time>
      </trkpt>
      <trkpt lat="44.87417" lon="4.79758">
        <ele>421.19</ele>
        <time>2015-01-17T08:04:58Z</time>
      </trkpt>
      <trkpt lat="44.87417" lon="4.7976">
        <ele>421.19</ele>
        <time>2015-01-17T08:04:59Z</time>
      </trkpt>
      <trkpt lat="44.87415" lon="4.79771">
        <ele>421.68</ele>
        <time>2015-01-17T08:05:03Z</time>
      </trkpt>
      <trkpt lat="44.87414" lon="4.79773">
        <ele>422.16</ele>
        <time>2015-01-17T08:05:04Z</time>
      </trkpt>
      <trkpt lat="44.87414" lon="4.79775">
        <ele>422.64</ele>
        <time>2015-01-17T08:05:05Z</time>
      </trkpt>
      <trkpt lat="44.87413" lon="4.79777">
        <ele>422.64</ele>
        <time>2015-01-17T08:05:06Z</time>
      </trkpt>
      <trkpt lat="44.87412" lon="4.79779">
        <ele>422.64</ele>
        <time>2015-01-17T08:05:07Z</time>
      </trkpt>
      <trkpt lat="44.87398" lon="4.79815">
        <ele>426</ele>
        <time>2015-01-17T08:05:20Z</time>
      </trkpt>
      <trkpt lat="44.87396" lon="4.79822">
        <ele>426.48</ele>
        <time>2015-01-17T08:05:23Z</time>
      </trkpt>
      <trkpt lat="44.87393" lon="4.79844">
        <ele>427.44</ele>
        <time>2015-01-17T08:05:29Z</time>
      </trkpt>
      <trkpt lat="44.87378" lon="4.79885">
        <ele>429.85</ele>
        <time>2015-01-17T08:05:45Z</time>
      </trkpt>
      <trkpt lat="44.87372" lon="4.79921">
        <ele>431.77</ele>
        <time>2015-01-17T08:05:59Z</time>
      </trkpt>
      <trkpt lat="44.8737" lon="4.7993">
        <ele>432.73</ele>
        <time>2015-01-17T08:06:03Z</time>
      </trkpt>
      <trkpt lat="44.87362" lon="4.79944">
        <ele>434.17</ele>
        <time>2015-01-17T08:06:09Z</time>
      </trkpt>
      <trkpt lat="44.87355" lon="4.7995">
        <ele>434.65</ele>
        <time>2015-01-17T08:06:14Z</time>
      </trkpt>
      <trkpt lat="44.8735" lon="4.79955">
        <ele>435.61</ele>
        <time>2015-01-17T08:06:19Z</time>
      </trkpt>
      <trkpt lat="44.87325" lon="4.79969">
        <ele>437.06</ele>
        <time>2015-01-17T08:06:34Z</time>
      </trkpt>
      <trkpt lat="44.87302" lon="4.79976">
        <ele>438.5</ele>
        <time>2015-01-17T08:06:46Z</time>
      </trkpt>
      <trkpt lat="44.87264" lon="4.79976">
        <ele>437.54</ele>
        <time>2015-01-17T08:07:01Z</time>
      </trkpt>
      <trkpt lat="44.87217" lon="4.79976">
        <ele>438.5</ele>
        <time>2015-01-17T08:07:15Z</time>
      </trkpt>
      <trkpt lat="44.87177" lon="4.79972">
        <ele>440.42</ele>
        <time>2015-01-17T08:07:27Z</time>
      </trkpt>
      <trkpt lat="44.87155" lon="4.79972">
        <ele>440.9</ele>
        <time>2015-01-17T08:07:39Z</time>
      </trkpt>
      <trkpt lat="44.87134" lon="4.79979">
        <ele>440.9</ele>
        <time>2015-01-17T08:07:49Z</time>
      </trkpt>
      <trkpt lat="44.87099" lon="4.79995">
        <ele>440.9</ele>
        <time>2015-01-17T08:08:02Z</time>
      </trkpt>
      <trkpt lat="44.8707" lon="4.80013">
        <ele>441.86</ele>
        <time>2015-01-17T08:08:14Z</time>
      </trkpt>
      <trkpt lat="44.87046" lon="4.80043">
        <ele>442.34</ele>
        <time>2015-01-17T08:08:26Z</time>
      </trkpt>
      <trkpt lat="44.87032" lon="4.80066">
        <ele>442.82</ele>
        <time>2015-01-17T08:08:36Z</time>
      </trkpt>
      <trkpt lat="44.87001" lon="4.8009">
        <ele>443.31</ele>
        <time>2015-01-17T08:08:48Z</time>
      </trkpt>
      <trkpt lat="44.86974" lon="4.80143">
        <ele>445.23</ele>
        <time>2015-01-17T08:09:05Z</time>
      </trkpt>
      <trkpt lat="44.86955" lon="4.8019">
        <ele>447.63</ele>
        <time>2015-01-17T08:09:21Z</time>
      </trkpt>
      <trkpt lat="44.86945" lon="4.80206">
        <ele>447.15</ele>
        <time>2015-01-17T08:09:33Z</time>
      </trkpt>
      <trkpt lat="44.86943" lon="4.80208">
        <ele>447.15</ele>
        <time>2015-01-17T08:10:13Z</time>
      </trkpt>
      <trkpt lat="44.86944" lon="4.80208">
        <ele>446.67</ele>
        <time>2015-01-17T08:10:55Z</time>
      </trkpt>
      <trkpt lat="44.86942" lon="4.80207">
        <ele>446.67</ele>
        <time>2015-01-17T08:11:34Z</time>
      </trkpt>
      <trkpt lat="44.86942" lon="4.80207">
        <ele>446.19</ele>
        <time>2015-01-17T08:12:10Z</time>
      </trkpt>
      <trkpt lat="44.86942" lon="4.80207">
        <ele>446.19</ele>
        <time>2015-01-17T08:12:43Z</time>
      </trkpt>
      <trkpt lat="44.86942" lon="4.80207">
        <ele>446.19</ele>
        <time>2015-01-17T08:13:20Z</time>
      </trkpt>
      <trkpt lat="44.86945" lon="4.80208">
        <ele>446.19</ele>
        <time>2015-01-17T08:13:55Z</time>
      </trkpt>
      <trkpt lat="44.86943" lon="4.80208">
        <ele>446.19</ele>
        <time>2015-01-17T08:14:16Z</time>
      </trkpt>
      <trkpt lat="44.86943" lon="4.80209">
        <ele>445.71</ele>
        <time>2015-01-17T08:14:48Z</time>
      </trkpt>
      <trkpt lat="44.86944" lon="4.80209">
        <ele>445.71</ele>
        <time>2015-01-17T08:15:29Z</time>
      </trkpt>
      <trkpt lat="44.86941" lon="4.80209">
        <ele>446.19</ele>
        <time>2015-01-17T08:15:52Z</time>
      </trkpt>
      <trkpt lat="44.86939" lon="4.80207">
        <ele>445.71</ele>
        <time>2015-01-17T08:16:13Z</time>
      </trkpt>
      <trkpt lat="44.8694" lon="4.80207">
        <ele>445.71</ele>
        <time>2015-01-17T08:16:43Z</time>
      </trkpt>
      <trkpt lat="44.86939" lon="4.8021">
        <ele>445.71</ele>
        <time>2015-01-17T08:16:56Z</time>
      </trkpt>
      <trkpt lat="44.86938" lon="4.80211">
        <ele>445.71</ele>
        <time>2015-01-17T08:16:57Z</time>
      </trkpt>
      <trkpt lat="44.86938" lon="4.80212">
        <ele>446.19</ele>
        <time>2015-01-17T08:16:58Z</time>
      </trkpt>
      <trkpt lat="44.86937" lon="4.80214">
        <ele>445.71</ele>
        <time>2015-01-17T08:16:59Z</time>
      </trkpt>
      <trkpt lat="44.86936" lon="4.80215">
        <ele>445.71</ele>
        <time>2015-01-17T08:17:00Z</time>
      </trkpt>
      <trkpt lat="44.86936" lon="4.80217">
        <ele>445.71</ele>
        <time>2015-01-17T08:17:01Z</time>
      </trkpt>
      <trkpt lat="44.86935" lon="4.80218">
        <ele>445.71</ele>
        <time>2015-01-17T08:17:02Z</time>
      </trkpt>
      <trkpt lat="44.86934" lon="4.8022">
        <ele>445.71</ele>
        <time>2015-01-17T08:17:03Z</time>
      </trkpt>
      <trkpt lat="44.86933" lon="4.80222">
        <ele>445.71</ele>
        <time>2015-01-17T08:17:04Z</time>
      </trkpt>
      <trkpt lat="44.86917" lon="4.80245">
        <ele>445.23</ele>
        <time>2015-01-17T08:17:12Z</time>
      </trkpt>
      <trkpt lat="44.86913" lon="4.8025">
        <ele>445.23</ele>
        <time>2015-01-17T08:17:13Z</time>
      </trkpt>
      <trkpt lat="44.86894" lon="4.8028">
        <ele>443.31</ele>
        <time>2015-01-17T08:17:18Z</time>
      </trkpt>
      <trkpt lat="44.8689" lon="4.80286">
        <ele>442.82</ele>
        <time>2015-01-17T08:17:19Z</time>
      </trkpt>
      <trkpt lat="44.86886" lon="4.80293">
        <ele>442.82</ele>
        <time>2015-01-17T08:17:20Z</time>
      </trkpt>
      <trkpt lat="44.86882" lon="4.80301">
        <ele>442.34</ele>
        <time>2015-01-17T08:17:21Z</time>
      </trkpt>
      <trkpt lat="44.8688" lon="4.8031">
        <ele>442.34</ele>
        <time>2015-01-17T08:17:22Z</time>
      </trkpt>
      <trkpt lat="44.86877" lon="4.80321">
        <ele>442.34</ele>
        <time>2015-01-17T08:17:23Z</time>
      </trkpt>
      <trkpt lat="44.86864" lon="4.80372">
        <ele>438.98</ele>
        <time>2015-01-17T08:17:27Z</time>
      </trkpt>
      <trkpt lat="44.8686" lon="4.80384">
        <ele>438.5</ele>
        <time>2015-01-17T08:17:28Z</time>
      </trkpt>
      <trkpt lat="44.86855" lon="4.80395">
        <ele>437.54</ele>
        <time>2015-01-17T08:17:29Z</time>
      </trkpt>
      <trkpt lat="44.8685" lon="4.80406">
        <ele>437.06</ele>
        <time>2015-01-17T08:17:30Z</time>
      </trkpt>
      <trkpt lat="44.86844" lon="4.80416">
        <ele>436.1</ele>
        <time>2015-01-17T08:17:31Z</time>
      </trkpt>
      <trkpt lat="44.86837" lon="4.80425">
        <ele>435.13</ele>
        <time>2015-01-17T08:17:32Z</time>
      </trkpt>
      <trkpt lat="44.8683" lon="4.80434">
        <ele>434.65</ele>
        <time>2015-01-17T08:17:33Z</time>
      </trkpt>
      <trkpt lat="44.86822" lon="4.80442">
        <ele>433.69</ele>
        <time>2015-01-17T08:17:34Z</time>
      </trkpt>
      <trkpt lat="44.86813" lon="4.80448">
        <ele>432.73</ele>
        <time>2015-01-17T08:17:35Z</time>
      </trkpt>
      <trkpt lat="44.86805" lon="4.80451">
        <ele>431.77</ele>
        <time>2015-01-17T08:17:36Z</time>
      </trkpt>
      <trkpt lat="44.86799" lon="4.80453">
        <ele>430.33</ele>
        <time>2015-01-17T08:17:37Z</time>
      </trkpt>
      <trkpt lat="44.86788" lon="4.80458">
        <ele>428.89</ele>
        <time>2015-01-17T08:17:39Z</time>
      </trkpt>
      <trkpt lat="44.86786" lon="4.80462">
        <ele>428.4</ele>
        <time>2015-01-17T08:17:40Z</time>
      </trkpt>
      <trkpt lat="44.86786" lon="4.80465">
        <ele>428.4</ele>
        <time>2015-01-17T08:17:41Z</time>
      </trkpt>
      <trkpt lat="44.86786" lon="4.80469">
        <ele>428.4</ele>
        <time>2015-01-17T08:17:42Z</time>
      </trkpt>
      <trkpt lat="44.86785" lon="4.80473">
        <ele>428.4</ele>
        <time>2015-01-17T08:17:43Z</time>
      </trkpt>
      <trkpt lat="44.86786" lon="4.80476">
        <ele>428.4</ele>
        <time>2015-01-17T08:17:44Z</time>
      </trkpt>
      <trkpt lat="44.86784" lon="4.80491">
        <ele>427.92</ele>
        <time>2015-01-17T08:17:49Z</time>
      </trkpt>
      <trkpt lat="44.86767" lon="4.80488">
        <ele>426.96</ele>
        <time>2015-01-17T08:17:54Z</time>
      </trkpt>
      <trkpt lat="44.86763" lon="4.80481">
        <ele>426</ele>
        <time>2015-01-17T08:17:56Z</time>
      </trkpt>
      <trkpt lat="44.86756" lon="4.80479">
        <ele>424.56</ele>
        <time>2015-01-17T08:17:59Z</time>
      </trkpt>
      <trkpt lat="44.86754" lon="4.80481">
        <ele>424.08</ele>
        <time>2015-01-17T08:18:00Z</time>
      </trkpt>
      <trkpt lat="44.86743" lon="4.80484">
        <ele>421.19</ele>
        <time>2015-01-17T08:18:04Z</time>
      </trkpt>
      <trkpt lat="44.86741" lon="4.80486">
        <ele>420.71</ele>
        <time>2015-01-17T08:18:05Z</time>
      </trkpt>
      <trkpt lat="44.8674" lon="4.8049">
        <ele>421.19</ele>
        <time>2015-01-17T08:18:06Z</time>
      </trkpt>
      <trkpt lat="44.86738" lon="4.80493">
        <ele>421.19</ele>
        <time>2015-01-17T08:18:07Z</time>
      </trkpt>
      <trkpt lat="44.86729" lon="4.80508">
        <ele>420.71</ele>
        <time>2015-01-17T08:18:16Z</time>
      </trkpt>
      <trkpt lat="44.86729" lon="4.80511">
        <ele>420.23</ele>
        <time>2015-01-17T08:18:18Z</time>
      </trkpt>
      <trkpt lat="44.86728" lon="4.80512">
        <ele>420.23</ele>
        <time>2015-01-17T08:18:19Z</time>
      </trkpt>
      <trkpt lat="44.86728" lon="4.80515">
        <ele>420.23</ele>
        <time>2015-01-17T08:18:20Z</time>
      </trkpt>
      <trkpt lat="44.86727" lon="4.80518">
        <ele>420.23</ele>
        <time>2015-01-17T08:18:21Z</time>
      </trkpt>
      <trkpt lat="44.86726" lon="4.8052">
        <ele>420.23</ele>
        <time>2015-01-17T08:18:22Z</time>
      </trkpt>
      <trkpt lat="44.86715" lon="4.80554">
        <ele>417.83</ele>
        <time>2015-01-17T08:18:32Z</time>
      </trkpt>
      <trkpt lat="44.86712" lon="4.80562">
        <ele>416.87</ele>
        <time>2015-01-17T08:18:33Z</time>
      </trkpt>
      <trkpt lat="44.86709" lon="4.80571">
        <ele>416.39</ele>
        <time>2015-01-17T08:18:34Z</time>
      </trkpt>
      <trkpt lat="44.86697" lon="4.806">
        <ele>411.58</ele>
        <time>2015-01-17T08:18:37Z</time>
      </trkpt>
      <trkpt lat="44.86695" lon="4.80629">
        <ele>407.26</ele>
        <time>2015-01-17T08:18:39Z</time>
      </trkpt>
      <trkpt lat="44.86695" lon="4.80642">
        <ele>404.85</ele>
        <time>2015-01-17T08:18:40Z</time>
      </trkpt>
      <trkpt lat="44.86696" lon="4.80653">
        <ele>403.41</ele>
        <time>2015-01-17T08:18:41Z</time>
      </trkpt>
      <trkpt lat="44.867" lon="4.80662">
        <ele>402.93</ele>
        <time>2015-01-17T08:18:42Z</time>
      </trkpt>
      <trkpt lat="44.86704" lon="4.8067">
        <ele>402.45</ele>
        <time>2015-01-17T08:18:43Z</time>
      </trkpt>
      <trkpt lat="44.86708" lon="4.80678">
        <ele>402.45</ele>
        <time>2015-01-17T08:18:44Z</time>
      </trkpt>
      <trkpt lat="44.86713" lon="4.80686">
        <ele>401.97</ele>
        <time>2015-01-17T08:18:45Z</time>
      </trkpt>
      <trkpt lat="44.86717" lon="4.80694">
        <ele>401.01</ele>
        <time>2015-01-17T08:18:46Z</time>
      </trkpt>
      <trkpt lat="44.86722" lon="4.80703">
        <ele>401.01</ele>
        <time>2015-01-17T08:18:47Z</time>
      </trkpt>
      <trkpt lat="44.86727" lon="4.80712">
        <ele>399.57</ele>
        <time>2015-01-17T08:18:48Z</time>
      </trkpt>
      <trkpt lat="44.8673" lon="4.80721">
        <ele>397.64</ele>
        <time>2015-01-17T08:18:49Z</time>
      </trkpt>
      <trkpt lat="44.86741" lon="4.80747">
        <ele>394.28</ele>
        <time>2015-01-17T08:18:52Z</time>
      </trkpt>
      <trkpt lat="44.86743" lon="4.80755">
        <ele>392.84</ele>
        <time>2015-01-17T08:18:53Z</time>
      </trkpt>
      <trkpt lat="44.86744" lon="4.80772">
        <ele>389.95</ele>
        <time>2015-01-17T08:18:55Z</time>
      </trkpt>
      <trkpt lat="44.86733" lon="4.80799">
        <ele>382.74</ele>
        <time>2015-01-17T08:19:00Z</time>
      </trkpt>
      <trkpt lat="44.86729" lon="4.808">
        <ele>381.78</ele>
        <time>2015-01-17T08:19:03Z</time>
      </trkpt>
      <trkpt lat="44.86729" lon="4.80799">
        <ele>381.78</ele>
        <time>2015-01-17T08:19:06Z</time>
      </trkpt>
      <trkpt lat="44.86713" lon="4.808">
        <ele>380.34</ele>
        <time>2015-01-17T08:19:12Z</time>
      </trkpt>
      <trkpt lat="44.86677" lon="4.80779">
        <ele>379.86</ele>
        <time>2015-01-17T08:19:22Z</time>
      </trkpt>
      <trkpt lat="44.86674" lon="4.80776">
        <ele>379.38</ele>
        <time>2015-01-17T08:19:23Z</time>
      </trkpt>
      <trkpt lat="44.8665" lon="4.80763">
        <ele>377.45</ele>
        <time>2015-01-17T08:19:29Z</time>
      </trkpt>
      <trkpt lat="44.86635" lon="4.80747">
        <ele>374.57</ele>
        <time>2015-01-17T08:19:33Z</time>
      </trkpt>
      <trkpt lat="44.86624" lon="4.80729">
        <ele>371.69</ele>
        <time>2015-01-17T08:19:37Z</time>
      </trkpt>
      <trkpt lat="44.86616" lon="4.80702">
        <ele>370.24</ele>
        <time>2015-01-17T08:19:43Z</time>
      </trkpt>
      <trkpt lat="44.86607" lon="4.8069">
        <ele>369.28</ele>
        <time>2015-01-17T08:19:47Z</time>
      </trkpt>
      <trkpt lat="44.86594" lon="4.80684">
        <ele>364.96</ele>
        <time>2015-01-17T08:19:51Z</time>
      </trkpt>
      <trkpt lat="44.86591" lon="4.80681">
        <ele>364</ele>
        <time>2015-01-17T08:19:53Z</time>
      </trkpt>
      <trkpt lat="44.86572" lon="4.80663">
        <ele>361.59</ele>
        <time>2015-01-17T08:19:59Z</time>
      </trkpt>
      <trkpt lat="44.86556" lon="4.80649">
        <ele>357.75</ele>
        <time>2015-01-17T08:20:03Z</time>
      </trkpt>
      <trkpt lat="44.86547" lon="4.80625">
        <ele>353.42</ele>
        <time>2015-01-17T08:20:07Z</time>
      </trkpt>
      <trkpt lat="44.8654" lon="4.806">
        <ele>348.62</ele>
        <time>2015-01-17T08:20:12Z</time>
      </trkpt>
      <trkpt lat="44.86539" lon="4.80577">
        <ele>345.73</ele>
        <time>2015-01-17T08:20:17Z</time>
      </trkpt>
      <trkpt lat="44.86537" lon="4.80563">
        <ele>341.89</ele>
        <time>2015-01-17T08:20:20Z</time>
      </trkpt>
      <trkpt lat="44.86536" lon="4.80532">
        <ele>338.04</ele>
        <time>2015-01-17T08:20:27Z</time>
      </trkpt>
      <trkpt lat="44.86535" lon="4.80525">
        <ele>338.04</ele>
        <time>2015-01-17T08:20:28Z</time>
      </trkpt>
      <trkpt lat="44.86531" lon="4.80495">
        <ele>331.79</ele>
        <time>2015-01-17T08:20:33Z</time>
      </trkpt>
      <trkpt lat="44.86532" lon="4.80488">
        <ele>329.87</ele>
        <time>2015-01-17T08:20:35Z</time>
      </trkpt>
      <trkpt lat="44.86529" lon="4.80481">
        <ele>325.54</ele>
        <time>2015-01-17T08:20:39Z</time>
      </trkpt>
      <trkpt lat="44.86527" lon="4.8048">
        <ele>324.58</ele>
        <time>2015-01-17T08:20:40Z</time>
      </trkpt>
      <trkpt lat="44.86527" lon="4.80471">
        <ele>322.66</ele>
        <time>2015-01-17T08:20:51Z</time>
      </trkpt>
      <trkpt lat="44.86525" lon="4.80468">
        <ele>324.58</ele>
        <time>2015-01-17T08:21:06Z</time>
      </trkpt>
      <trkpt lat="44.86523" lon="4.80457">
        <ele>324.1</ele>
        <time>2015-01-17T08:21:32Z</time>
      </trkpt>
      <trkpt lat="44.86523" lon="4.80454">
        <ele>324.1</ele>
        <time>2015-01-17T08:22:08Z</time>
      </trkpt>
      <trkpt lat="44.86525" lon="4.80465">
        <ele>324.58</ele>
        <time>2015-01-17T08:22:22Z</time>
      </trkpt>
      <trkpt lat="44.86522" lon="4.80472">
        <ele>326.02</ele>
        <time>2015-01-17T08:22:35Z</time>
      </trkpt>
      <trkpt lat="44.86521" lon="4.80476">
        <ele>326.02</ele>
        <time>2015-01-17T08:22:38Z</time>
      </trkpt>
      <trkpt lat="44.86513" lon="4.80489">
        <ele>326.5</ele>
        <time>2015-01-17T08:22:44Z</time>
      </trkpt>
      <trkpt lat="44.86487" lon="4.80509">
        <ele>329.87</ele>
        <time>2015-01-17T08:22:55Z</time>
      </trkpt>
      <trkpt lat="44.86469" lon="4.80522">
        <ele>330.35</ele>
        <time>2015-01-17T08:23:03Z</time>
      </trkpt>
      <trkpt lat="44.86449" lon="4.80515">
        <ele>331.31</ele>
        <time>2015-01-17T08:23:08Z</time>
      </trkpt>
      <trkpt lat="44.86451" lon="4.8051">
        <ele>331.79</ele>
        <time>2015-01-17T08:23:10Z</time>
      </trkpt>
      <trkpt lat="44.86453" lon="4.80504">
        <ele>331.79</ele>
        <time>2015-01-17T08:23:24Z</time>
      </trkpt>
      <trkpt lat="44.86456" lon="4.805">
        <ele>332.75</ele>
        <time>2015-01-17T08:23:28Z</time>
      </trkpt>
      <trkpt lat="44.86469" lon="4.80481">
        <ele>336.12</ele>
        <time>2015-01-17T08:23:40Z</time>
      </trkpt>
      <trkpt lat="44.86481" lon="4.80458">
        <ele>339.48</ele>
        <time>2015-01-17T08:23:54Z</time>
      </trkpt>
      <trkpt lat="44.86489" lon="4.80434">
        <ele>342.85</ele>
        <time>2015-01-17T08:24:08Z</time>
      </trkpt>
      <trkpt lat="44.86493" lon="4.80423">
        <ele>344.29</ele>
        <time>2015-01-17T08:24:13Z</time>
      </trkpt>
      <trkpt lat="44.86495" lon="4.80416">
        <ele>345.25</ele>
        <time>2015-01-17T08:24:17Z</time>
      </trkpt>
      <trkpt lat="44.86497" lon="4.80408">
        <ele>346.69</ele>
        <time>2015-01-17T08:24:22Z</time>
      </trkpt>
      <trkpt lat="44.865" lon="4.80397">
        <ele>350.06</ele>
        <time>2015-01-17T08:24:31Z</time>
      </trkpt>
      <trkpt lat="44.86501" lon="4.80394">
        <ele>349.1</ele>
        <time>2015-01-17T08:24:33Z</time>
      </trkpt>
      <trkpt lat="44.86514" lon="4.8037">
        <ele>352.46</ele>
        <time>2015-01-17T08:24:49Z</time>
      </trkpt>
      <trkpt lat="44.86522" lon="4.80362">
        <ele>353.9</ele>
        <time>2015-01-17T08:24:57Z</time>
      </trkpt>
      <trkpt lat="44.86534" lon="4.80334">
        <ele>357.27</ele>
        <time>2015-01-17T08:25:13Z</time>
      </trkpt>
      <trkpt lat="44.86545" lon="4.80308">
        <ele>359.67</ele>
        <time>2015-01-17T08:25:28Z</time>
      </trkpt>
      <trkpt lat="44.86559" lon="4.80281">
        <ele>361.11</ele>
        <time>2015-01-17T08:25:44Z</time>
      </trkpt>
      <trkpt lat="44.86567" lon="4.80271">
        <ele>362.07</ele>
        <time>2015-01-17T08:25:52Z</time>
      </trkpt>
      <trkpt lat="44.86574" lon="4.80258">
        <ele>363.04</ele>
        <time>2015-01-17T08:26:00Z</time>
      </trkpt>
      <trkpt lat="44.86576" lon="4.80246">
        <ele>365.44</ele>
        <time>2015-01-17T08:26:11Z</time>
      </trkpt>
      <trkpt lat="44.86578" lon="4.80239">
        <ele>366.4</ele>
        <time>2015-01-17T08:26:17Z</time>
      </trkpt>
      <trkpt lat="44.86583" lon="4.80224">
        <ele>367.84</ele>
        <time>2015-01-17T08:26:26Z</time>
      </trkpt>
      <trkpt lat="44.86586" lon="4.80215">
        <ele>369.76</ele>
        <time>2015-01-17T08:26:32Z</time>
      </trkpt>
      <trkpt lat="44.866" lon="4.80181">
        <ele>371.21</ele>
        <time>2015-01-17T08:26:48Z</time>
      </trkpt>
      <trkpt lat="44.86605" lon="4.80158">
        <ele>373.13</ele>
        <time>2015-01-17T08:27:01Z</time>
      </trkpt>
      <trkpt lat="44.86603" lon="4.80137">
        <ele>376.49</ele>
        <time>2015-01-17T08:27:13Z</time>
      </trkpt>
      <trkpt lat="44.86602" lon="4.80113">
        <ele>379.86</ele>
        <time>2015-01-17T08:27:23Z</time>
      </trkpt>
      <trkpt lat="44.86605" lon="4.80083">
        <ele>382.74</ele>
        <time>2015-01-17T08:27:37Z</time>
      </trkpt>
      <trkpt lat="44.86609" lon="4.80055">
        <ele>385.63</ele>
        <time>2015-01-17T08:27:51Z</time>
      </trkpt>
      <trkpt lat="44.86604" lon="4.80015">
        <ele>388.51</ele>
        <time>2015-01-17T08:28:06Z</time>
      </trkpt>
      <trkpt lat="44.86602" lon="4.79993">
        <ele>391.39</ele>
        <time>2015-01-17T08:28:21Z</time>
      </trkpt>
      <trkpt lat="44.86603" lon="4.79977">
        <ele>395.24</ele>
        <time>2015-01-17T08:28:34Z</time>
      </trkpt>
      <trkpt lat="44.86604" lon="4.79964">
        <ele>396.2</ele>
        <time>2015-01-17T08:28:45Z</time>
      </trkpt>
      <trkpt lat="44.86611" lon="4.7994">
        <ele>396.68</ele>
        <time>2015-01-17T08:29:03Z</time>
      </trkpt>
      <trkpt lat="44.86613" lon="4.79934">
        <ele>396.68</ele>
        <time>2015-01-17T08:29:27Z</time>
      </trkpt>
      <trkpt lat="44.86612" lon="4.79926">
        <ele>397.16</ele>
        <time>2015-01-17T08:29:54Z</time>
      </trkpt>
      <trkpt lat="44.86614" lon="4.79926">
        <ele>397.16</ele>
        <time>2015-01-17T08:30:20Z</time>
      </trkpt>
      <trkpt lat="44.86612" lon="4.79927">
        <ele>397.64</ele>
        <time>2015-01-17T08:30:41Z</time>
      </trkpt>
      <trkpt lat="44.86617" lon="4.79927">
        <ele>397.64</ele>
        <time>2015-01-17T08:31:10Z</time>
      </trkpt>
      <trkpt lat="44.86617" lon="4.79925">
        <ele>397.64</ele>
        <time>2015-01-17T08:31:39Z</time>
      </trkpt>
      <trkpt lat="44.86618" lon="4.79928">
        <ele>398.12</ele>
        <time>2015-01-17T08:32:05Z</time>
      </trkpt>
      <trkpt lat="44.86618" lon="4.7992">
        <ele>398.6</ele>
        <time>2015-01-17T08:32:29Z</time>
      </trkpt>
      <trkpt lat="44.86619" lon="4.79897">
        <ele>401.97</ele>
        <time>2015-01-17T08:32:42Z</time>
      </trkpt>
      <trkpt lat="44.86623" lon="4.79882">
        <ele>403.89</ele>
        <time>2015-01-17T08:32:51Z</time>
      </trkpt>
      <trkpt lat="44.86627" lon="4.79864">
        <ele>406.77</ele>
        <time>2015-01-17T08:33:03Z</time>
      </trkpt>
      <trkpt lat="44.8663" lon="4.79842">
        <ele>409.66</ele>
        <time>2015-01-17T08:33:18Z</time>
      </trkpt>
      <trkpt lat="44.86639" lon="4.79815">
        <ele>412.54</ele>
        <time>2015-01-17T08:33:31Z</time>
      </trkpt>
      <trkpt lat="44.86641" lon="4.79799">
        <ele>414.95</ele>
        <time>2015-01-17T08:33:43Z</time>
      </trkpt>
      <trkpt lat="44.8665" lon="4.79777">
        <ele>418.31</ele>
        <time>2015-01-17T08:33:59Z</time>
      </trkpt>
      <trkpt lat="44.86658" lon="4.79733">
        <ele>421.68</ele>
        <time>2015-01-17T08:34:14Z</time>
      </trkpt>
      <trkpt lat="44.86661" lon="4.79709">
        <ele>424.56</ele>
        <time>2015-01-17T08:34:27Z</time>
      </trkpt>
      <trkpt lat="44.86659" lon="4.79694">
        <ele>427.92</ele>
        <time>2015-01-17T08:34:37Z</time>
      </trkpt>
      <trkpt lat="44.86666" lon="4.79645">
        <ele>428.4</ele>
        <time>2015-01-17T08:34:54Z</time>
      </trkpt>
      <trkpt lat="44.86671" lon="4.79644">
        <ele>428.4</ele>
        <time>2015-01-17T08:35:01Z</time>
      </trkpt>
      <trkpt lat="44.86677" lon="4.79637">
        <ele>428.4</ele>
        <time>2015-01-17T08:35:07Z</time>
      </trkpt>
      <trkpt lat="44.86692" lon="4.79606">
        <ele>427.92</ele>
        <time>2015-01-17T08:35:20Z</time>
      </trkpt>
      <trkpt lat="44.86699" lon="4.79597">
        <ele>428.4</ele>
        <time>2015-01-17T08:35:24Z</time>
      </trkpt>
      <trkpt lat="44.86701" lon="4.79596">
        <ele>428.4</ele>
        <time>2015-01-17T08:35:25Z</time>
      </trkpt>
      <trkpt lat="44.86703" lon="4.79594">
        <ele>428.4</ele>
        <time>2015-01-17T08:35:26Z</time>
      </trkpt>
      <trkpt lat="44.86705" lon="4.79594">
        <ele>428.4</ele>
        <time>2015-01-17T08:35:27Z</time>
      </trkpt>
      <trkpt lat="44.86707" lon="4.79593">
        <ele>428.4</ele>
        <time>2015-01-17T08:35:28Z</time>
      </trkpt>
      <trkpt lat="44.86709" lon="4.79593">
        <ele>428.89</ele>
        <time>2015-01-17T08:35:29Z</time>
      </trkpt>
      <trkpt lat="44.86711" lon="4.79593">
        <ele>428.89</ele>
        <time>2015-01-17T08:35:30Z</time>
      </trkpt>
      <trkpt lat="44.86712" lon="4.79591">
        <ele>428.89</ele>
        <time>2015-01-17T08:35:31Z</time>
      </trkpt>
      <trkpt lat="44.86733" lon="4.7958">
        <ele>429.37</ele>
        <time>2015-01-17T08:35:46Z</time>
      </trkpt>
      <trkpt lat="44.8675" lon="4.79613">
        <ele>429.37</ele>
        <time>2015-01-17T08:35:58Z</time>
      </trkpt>
      <trkpt lat="44.86765" lon="4.79671">
        <ele>429.37</ele>
        <time>2015-01-17T08:36:13Z</time>
      </trkpt>
      <trkpt lat="44.86772" lon="4.79727">
        <ele>429.37</ele>
        <time>2015-01-17T08:36:27Z</time>
      </trkpt>
      <trkpt lat="44.86778" lon="4.7979">
        <ele>429.37</ele>
        <time>2015-01-17T08:36:41Z</time>
      </trkpt>
      <trkpt lat="44.86777" lon="4.79854">
        <ele>427.92</ele>
        <time>2015-01-17T08:36:54Z</time>
      </trkpt>
      <trkpt lat="44.86774" lon="4.799">
        <ele>425.04</ele>
        <time>2015-01-17T08:37:00Z</time>
      </trkpt>
      <trkpt lat="44.86773" lon="4.79919">
        <ele>423.6</ele>
        <time>2015-01-17T08:37:02Z</time>
      </trkpt>
      <trkpt lat="44.86767" lon="4.80003">
        <ele>423.12</ele>
        <time>2015-01-17T08:37:13Z</time>
      </trkpt>
      <trkpt lat="44.86772" lon="4.80075">
        <ele>423.6</ele>
        <time>2015-01-17T08:37:28Z</time>
      </trkpt>
      <trkpt lat="44.86778" lon="4.80141">
        <ele>426</ele>
        <time>2015-01-17T08:37:45Z</time>
      </trkpt>
      <trkpt lat="44.86773" lon="4.80203">
        <ele>427.44</ele>
        <time>2015-01-17T08:38:01Z</time>
      </trkpt>
      <trkpt lat="44.86768" lon="4.80265">
        <ele>426</ele>
        <time>2015-01-17T08:38:13Z</time>
      </trkpt>
      <trkpt lat="44.86754" lon="4.80334">
        <ele>425.52</ele>
        <time>2015-01-17T08:38:27Z</time>
      </trkpt>
      <trkpt lat="44.86752" lon="4.80383">
        <ele>428.89</ele>
        <time>2015-01-17T08:38:39Z</time>
      </trkpt>
      <trkpt lat="44.86774" lon="4.80434">
        <ele>428.89</ele>
        <time>2015-01-17T08:38:54Z</time>
      </trkpt>
      <trkpt lat="44.86799" lon="4.80452">
        <ele>430.81</ele>
        <time>2015-01-17T08:39:06Z</time>
      </trkpt>
      <trkpt lat="44.86815" lon="4.80444">
        <ele>431.77</ele>
        <time>2015-01-17T08:39:15Z</time>
      </trkpt>
      <trkpt lat="44.86817" lon="4.80442">
        <ele>431.77</ele>
        <time>2015-01-17T08:39:16Z</time>
      </trkpt>
      <trkpt lat="44.86826" lon="4.80431">
        <ele>432.73</ele>
        <time>2015-01-17T08:39:21Z</time>
      </trkpt>
      <trkpt lat="44.8683" lon="4.80427">
        <ele>432.73</ele>
        <time>2015-01-17T08:39:23Z</time>
      </trkpt>
      <trkpt lat="44.86831" lon="4.80424">
        <ele>433.21</ele>
        <time>2015-01-17T08:39:24Z</time>
      </trkpt>
      <trkpt lat="44.86832" lon="4.80422">
        <ele>433.21</ele>
        <time>2015-01-17T08:39:25Z</time>
      </trkpt>
      <trkpt lat="44.86846" lon="4.80405">
        <ele>435.61</ele>
        <time>2015-01-17T08:39:37Z</time>
      </trkpt>
      <trkpt lat="44.86859" lon="4.80369">
        <ele>438.02</ele>
        <time>2015-01-17T08:39:52Z</time>
      </trkpt>
      <trkpt lat="44.86859" lon="4.80367">
        <ele>438.02</ele>
        <time>2015-01-17T08:39:53Z</time>
      </trkpt>
      <trkpt lat="44.86866" lon="4.8033">
        <ele>439.94</ele>
        <time>2015-01-17T08:40:05Z</time>
      </trkpt>
      <trkpt lat="44.86878" lon="4.8029">
        <ele>442.82</ele>
        <time>2015-01-17T08:40:20Z</time>
      </trkpt>
      <trkpt lat="44.86901" lon="4.80255">
        <ele>445.23</ele>
        <time>2015-01-17T08:40:36Z</time>
      </trkpt>
      <trkpt lat="44.86925" lon="4.80218">
        <ele>447.15</ele>
        <time>2015-01-17T08:40:53Z</time>
      </trkpt>
      <trkpt lat="44.86958" lon="4.80164">
        <ele>446.19</ele>
        <time>2015-01-17T08:41:10Z</time>
      </trkpt>
      <trkpt lat="44.86982" lon="4.80091">
        <ele>443.79</ele>
        <time>2015-01-17T08:41:23Z</time>
      </trkpt>
      <trkpt lat="44.87017" lon="4.80033">
        <ele>442.34</ele>
        <time>2015-01-17T08:41:37Z</time>
      </trkpt>
      <trkpt lat="44.8702" lon="4.80031">
        <ele>441.86</ele>
        <time>2015-01-17T08:41:38Z</time>
      </trkpt>
      <trkpt lat="44.87022" lon="4.80028">
        <ele>441.86</ele>
        <time>2015-01-17T08:41:39Z</time>
      </trkpt>
      <trkpt lat="44.87025" lon="4.80024">
        <ele>442.34</ele>
        <time>2015-01-17T08:41:40Z</time>
      </trkpt>
      <trkpt lat="44.87027" lon="4.80021">
        <ele>441.86</ele>
        <time>2015-01-17T08:41:41Z</time>
      </trkpt>
      <trkpt lat="44.87075" lon="4.79983">
        <ele>440.42</ele>
        <time>2015-01-17T08:41:56Z</time>
      </trkpt>
      <trkpt lat="44.87119" lon="4.79964">
        <ele>440.42</ele>
        <time>2015-01-17T08:42:08Z</time>
      </trkpt>
      <trkpt lat="44.87164" lon="4.79955">
        <ele>439.94</ele>
        <time>2015-01-17T08:42:23Z</time>
      </trkpt>
      <trkpt lat="44.87205" lon="4.79965">
        <ele>437.54</ele>
        <time>2015-01-17T08:42:34Z</time>
      </trkpt>
      <trkpt lat="44.87253" lon="4.79962">
        <ele>438.02</ele>
        <time>2015-01-17T08:42:49Z</time>
      </trkpt>
      <trkpt lat="44.87278" lon="4.79944">
        <ele>440.9</ele>
        <time>2015-01-17T08:43:01Z</time>
      </trkpt>
      <trkpt lat="44.87299" lon="4.79929">
        <ele>443.79</ele>
        <time>2015-01-17T08:43:14Z</time>
      </trkpt>
      <trkpt lat="44.87315" lon="4.79905">
        <ele>446.67</ele>
        <time>2015-01-17T08:43:27Z</time>
      </trkpt>
      <trkpt lat="44.87329" lon="4.79876">
        <ele>449.55</ele>
        <time>2015-01-17T08:43:42Z</time>
      </trkpt>
      <trkpt lat="44.87331" lon="4.79872">
        <ele>450.03</ele>
        <time>2015-01-17T08:43:44Z</time>
      </trkpt>
      <trkpt lat="44.87342" lon="4.79836">
        <ele>452.44</ele>
        <time>2015-01-17T08:43:59Z</time>
      </trkpt>
      <trkpt lat="44.87343" lon="4.79834">
        <ele>452.92</ele>
        <time>2015-01-17T08:44:00Z</time>
      </trkpt>
      <trkpt lat="44.87352" lon="4.79803">
        <ele>454.84</ele>
        <time>2015-01-17T08:44:14Z</time>
      </trkpt>
      <trkpt lat="44.87354" lon="4.79764">
        <ele>456.76</ele>
        <time>2015-01-17T08:44:29Z</time>
      </trkpt>
      <trkpt lat="44.87349" lon="4.79727">
        <ele>460.13</ele>
        <time>2015-01-17T08:44:43Z</time>
      </trkpt>
      <trkpt lat="44.87349" lon="4.7968">
        <ele>461.09</ele>
        <time>2015-01-17T08:45:01Z</time>
      </trkpt>
      <trkpt lat="44.87327" lon="4.79652">
        <ele>463.97</ele>
        <time>2015-01-17T08:45:18Z</time>
      </trkpt>
      <trkpt lat="44.87307" lon="4.79638">
        <ele>466.38</ele>
        <time>2015-01-17T08:45:32Z</time>
      </trkpt>
      <trkpt lat="44.87287" lon="4.7963">
        <ele>469.26</ele>
        <time>2015-01-17T08:45:47Z</time>
      </trkpt>
      <trkpt lat="44.87264" lon="4.79622">
        <ele>471.66</ele>
        <time>2015-01-17T08:46:03Z</time>
      </trkpt>
      <trkpt lat="44.87248" lon="4.79614">
        <ele>473.59</ele>
        <time>2015-01-17T08:46:16Z</time>
      </trkpt>
      <trkpt lat="44.87247" lon="4.79613">
        <ele>473.59</ele>
        <time>2015-01-17T08:46:17Z</time>
      </trkpt>
      <trkpt lat="44.87234" lon="4.79605">
        <ele>475.51</ele>
        <time>2015-01-17T08:46:29Z</time>
      </trkpt>
      <trkpt lat="44.87215" lon="4.79596">
        <ele>477.43</ele>
        <time>2015-01-17T08:46:40Z</time>
      </trkpt>
      <trkpt lat="44.87213" lon="4.79595">
        <ele>477.91</ele>
        <time>2015-01-17T08:46:41Z</time>
      </trkpt>
      <trkpt lat="44.87211" lon="4.79594">
        <ele>477.91</ele>
        <time>2015-01-17T08:46:42Z</time>
      </trkpt>
      <trkpt lat="44.8721" lon="4.79593">
        <ele>477.91</ele>
        <time>2015-01-17T08:46:43Z</time>
      </trkpt>
      <trkpt lat="44.87208" lon="4.79591">
        <ele>479.35</ele>
        <time>2015-01-17T08:46:44Z</time>
      </trkpt>
      <trkpt lat="44.87207" lon="4.7959">
        <ele>478.87</ele>
        <time>2015-01-17T08:46:45Z</time>
      </trkpt>
      <trkpt lat="44.87205" lon="4.79588">
        <ele>478.87</ele>
        <time>2015-01-17T08:46:46Z</time>
      </trkpt>
      <trkpt lat="44.87204" lon="4.79587">
        <ele>478.87</ele>
        <time>2015-01-17T08:46:47Z</time>
      </trkpt>
      <trkpt lat="44.87202" lon="4.79587">
        <ele>478.87</ele>
        <time>2015-01-17T08:46:48Z</time>
      </trkpt>
      <trkpt lat="44.872" lon="4.79586">
        <ele>479.35</ele>
        <time>2015-01-17T08:46:49Z</time>
      </trkpt>
      <trkpt lat="44.87198" lon="4.79586">
        <ele>478.87</ele>
        <time>2015-01-17T08:46:50Z</time>
      </trkpt>
      <trkpt lat="44.87175" lon="4.79567">
        <ele>481.76</ele>
        <time>2015-01-17T08:47:06Z</time>
      </trkpt>
      <trkpt lat="44.87159" lon="4.79546">
        <ele>483.68</ele>
        <time>2015-01-17T08:47:19Z</time>
      </trkpt>
      <trkpt lat="44.87157" lon="4.79545">
        <ele>483.68</ele>
        <time>2015-01-17T08:47:20Z</time>
      </trkpt>
      <trkpt lat="44.87156" lon="4.79543">
        <ele>484.16</ele>
        <time>2015-01-17T08:47:21Z</time>
      </trkpt>
      <trkpt lat="44.87133" lon="4.79522">
        <ele>487.05</ele>
        <time>2015-01-17T08:47:36Z</time>
      </trkpt>
      <trkpt lat="44.87112" lon="4.79488">
        <ele>489.45</ele>
        <time>2015-01-17T08:47:51Z</time>
      </trkpt>
      <trkpt lat="44.87086" lon="4.79459">
        <ele>491.37</ele>
        <time>2015-01-17T08:48:06Z</time>
      </trkpt>
      <trkpt lat="44.87073" lon="4.79427">
        <ele>493.77</ele>
        <time>2015-01-17T08:48:23Z</time>
      </trkpt>
      <trkpt lat="44.87048" lon="4.79403">
        <ele>496.66</ele>
        <time>2015-01-17T08:48:41Z</time>
      </trkpt>
      <trkpt lat="44.87023" lon="4.79401">
        <ele>499.54</ele>
        <time>2015-01-17T08:48:56Z</time>
      </trkpt>
      <trkpt lat="44.86993" lon="4.7941">
        <ele>502.43</ele>
        <time>2015-01-17T08:49:16Z</time>
      </trkpt>
      <trkpt lat="44.86989" lon="4.7941">
        <ele>502.43</ele>
        <time>2015-01-17T08:49:19Z</time>
      </trkpt>
      <trkpt lat="44.86984" lon="4.79414">
        <ele>503.39</ele>
        <time>2015-01-17T08:49:24Z</time>
      </trkpt>
      <trkpt lat="44.86985" lon="4.79409">
        <ele>502.91</ele>
        <time>2015-01-17T08:49:37Z</time>
      </trkpt>
      <trkpt lat="44.86981" lon="4.79405">
        <ele>502.43</ele>
        <time>2015-01-17T08:50:01Z</time>
      </trkpt>
      <trkpt lat="44.86977" lon="4.79404">
        <ele>502.43</ele>
        <time>2015-01-17T08:50:26Z</time>
      </trkpt>
      <trkpt lat="44.86976" lon="4.79397">
        <ele>502.43</ele>
        <time>2015-01-17T08:50:59Z</time>
      </trkpt>
      <trkpt lat="44.86975" lon="4.79394">
        <ele>502.43</ele>
        <time>2015-01-17T08:51:40Z</time>
      </trkpt>
      <trkpt lat="44.86979" lon="4.794">
        <ele>502.91</ele>
        <time>2015-01-17T08:52:11Z</time>
      </trkpt>
      <trkpt lat="44.8698" lon="4.794">
        <ele>503.39</ele>
        <time>2015-01-17T08:52:38Z</time>
      </trkpt>
      <trkpt lat="44.86976" lon="4.794">
        <ele>502.91</ele>
        <time>2015-01-17T08:53:15Z</time>
      </trkpt>
      <trkpt lat="44.86978" lon="4.79398">
        <ele>502.91</ele>
        <time>2015-01-17T08:53:39Z</time>
      </trkpt>
      <trkpt lat="44.86974" lon="4.79401">
        <ele>503.39</ele>
        <time>2015-01-17T08:54:09Z</time>
      </trkpt>
      <trkpt lat="44.86979" lon="4.79411">
        <ele>503.87</ele>
        <time>2015-01-17T08:54:35Z</time>
      </trkpt>
      <trkpt lat="44.86986" lon="4.79468">
        <ele>505.31</ele>
        <time>2015-01-17T08:54:46Z</time>
      </trkpt>
      <trkpt lat="44.86984" lon="4.79501">
        <ele>505.31</ele>
        <time>2015-01-17T08:54:52Z</time>
      </trkpt>
      <trkpt lat="44.86981" lon="4.79516">
        <ele>504.35</ele>
        <time>2015-01-17T08:54:55Z</time>
      </trkpt>
      <trkpt lat="44.86979" lon="4.79522">
        <ele>503.39</ele>
        <time>2015-01-17T08:54:56Z</time>
      </trkpt>
      <trkpt lat="44.86978" lon="4.79529">
        <ele>502.91</ele>
        <time>2015-01-17T08:54:57Z</time>
      </trkpt>
      <trkpt lat="44.86978" lon="4.79536">
        <ele>501.95</ele>
        <time>2015-01-17T08:54:58Z</time>
      </trkpt>
      <trkpt lat="44.8698" lon="4.79542">
        <ele>501.46</ele>
        <time>2015-01-17T08:54:59Z</time>
      </trkpt>
      <trkpt lat="44.86989" lon="4.79554">
        <ele>500.02</ele>
        <time>2015-01-17T08:55:02Z</time>
      </trkpt>
      <trkpt lat="44.86997" lon="4.79583">
        <ele>496.66</ele>
        <time>2015-01-17T08:55:08Z</time>
      </trkpt>
      <trkpt lat="44.86997" lon="4.79584">
        <ele>496.66</ele>
        <time>2015-01-17T08:55:09Z</time>
      </trkpt>
      <trkpt lat="44.86997" lon="4.79584">
        <ele>496.66</ele>
        <time>2015-01-17T08:55:14Z</time>
      </trkpt>
      <trkpt lat="44.86992" lon="4.79615">
        <ele>495.7</ele>
        <time>2015-01-17T08:55:22Z</time>
      </trkpt>
      <trkpt lat="44.86998" lon="4.79641">
        <ele>493.77</ele>
        <time>2015-01-17T08:55:29Z</time>
      </trkpt>
      <trkpt lat="44.87001" lon="4.79677">
        <ele>491.37</ele>
        <time>2015-01-17T08:55:35Z</time>
      </trkpt>
      <trkpt lat="44.86997" lon="4.79717">
        <ele>488.01</ele>
        <time>2015-01-17T08:55:43Z</time>
      </trkpt>
      <trkpt lat="44.86993" lon="4.7972">
        <ele>488.97</ele>
        <time>2015-01-17T08:55:58Z</time>
      </trkpt>
      <trkpt lat="44.86992" lon="4.7971">
        <ele>490.41</ele>
        <time>2015-01-17T08:56:14Z</time>
      </trkpt>
      <trkpt lat="44.8699" lon="4.79701">
        <ele>491.37</ele>
        <time>2015-01-17T08:56:29Z</time>
      </trkpt>
      <trkpt lat="44.8699" lon="4.79683">
        <ele>492.33</ele>
        <time>2015-01-17T08:56:43Z</time>
      </trkpt>
      <trkpt lat="44.86992" lon="4.79679">
        <ele>492.33</ele>
        <time>2015-01-17T08:56:47Z</time>
      </trkpt>
      <trkpt lat="44.86992" lon="4.79659">
        <ele>493.77</ele>
        <time>2015-01-17T08:57:03Z</time>
      </trkpt>
      <trkpt lat="44.87001" lon="4.79652">
        <ele>493.77</ele>
        <time>2015-01-17T08:57:25Z</time>
      </trkpt>
      <trkpt lat="44.87001" lon="4.79653">
        <ele>493.77</ele>
        <time>2015-01-17T08:57:27Z</time>
      </trkpt>
      <trkpt lat="44.87005" lon="4.79663">
        <ele>493.29</ele>
        <time>2015-01-17T08:57:31Z</time>
      </trkpt>
      <trkpt lat="44.87005" lon="4.79674">
        <ele>492.81</ele>
        <time>2015-01-17T08:57:33Z</time>
      </trkpt>
      <trkpt lat="44.87005" lon="4.79688">
        <ele>490.89</ele>
        <time>2015-01-17T08:57:36Z</time>
      </trkpt>
      <trkpt lat="44.87003" lon="4.79729">
        <ele>488.01</ele>
        <time>2015-01-17T08:57:42Z</time>
      </trkpt>
      <trkpt lat="44.87002" lon="4.7973">
        <ele>488.01</ele>
        <time>2015-01-17T08:57:44Z</time>
      </trkpt>
      <trkpt lat="44.86993" lon="4.7972">
        <ele>489.45</ele>
        <time>2015-01-17T08:57:58Z</time>
      </trkpt>
      <trkpt lat="44.86986" lon="4.79702">
        <ele>490.89</ele>
        <time>2015-01-17T08:58:15Z</time>
      </trkpt>
      <trkpt lat="44.86988" lon="4.79681">
        <ele>491.85</ele>
        <time>2015-01-17T08:58:28Z</time>
      </trkpt>
      <trkpt lat="44.86994" lon="4.79662">
        <ele>492.33</ele>
        <time>2015-01-17T08:58:50Z</time>
      </trkpt>
      <trkpt lat="44.86994" lon="4.79651">
        <ele>493.29</ele>
        <time>2015-01-17T08:59:04Z</time>
      </trkpt>
      <trkpt lat="44.86998" lon="4.79648">
        <ele>493.29</ele>
        <time>2015-01-17T08:59:15Z</time>
      </trkpt>
      <trkpt lat="44.87002" lon="4.79659">
        <ele>492.81</ele>
        <time>2015-01-17T08:59:20Z</time>
      </trkpt>
      <trkpt lat="44.87" lon="4.79668">
        <ele>492.81</ele>
        <time>2015-01-17T08:59:22Z</time>
      </trkpt>
      <trkpt lat="44.86999" lon="4.79692">
        <ele>489.45</ele>
        <time>2015-01-17T08:59:27Z</time>
      </trkpt>
      <trkpt lat="44.8699" lon="4.79702">
        <ele>488.01</ele>
        <time>2015-01-17T08:59:34Z</time>
      </trkpt>
      <trkpt lat="44.86986" lon="4.79702">
        <ele>488.97</ele>
        <time>2015-01-17T08:59:48Z</time>
      </trkpt>
      <trkpt lat="44.86986" lon="4.79703">
        <ele>488.97</ele>
        <time>2015-01-17T08:59:49Z</time>
      </trkpt>
      <trkpt lat="44.86985" lon="4.79694">
        <ele>490.41</ele>
        <time>2015-01-17T09:00:04Z</time>
      </trkpt>
      <trkpt lat="44.86982" lon="4.79676">
        <ele>491.85</ele>
        <time>2015-01-17T09:00:19Z</time>
      </trkpt>
      <trkpt lat="44.86996" lon="4.79676">
        <ele>492.33</ele>
        <time>2015-01-17T09:00:35Z</time>
      </trkpt>
      <trkpt lat="44.86991" lon="4.79659">
        <ele>493.29</ele>
        <time>2015-01-17T09:00:49Z</time>
      </trkpt>
      <trkpt lat="44.86994" lon="4.79651">
        <ele>493.29</ele>
        <time>2015-01-17T09:01:10Z</time>
      </trkpt>
      <trkpt lat="44.87003" lon="4.79647">
        <ele>493.29</ele>
        <time>2015-01-17T09:01:33Z</time>
      </trkpt>
      <trkpt lat="44.87003" lon="4.79667">
        <ele>492.81</ele>
        <time>2015-01-17T09:01:39Z</time>
      </trkpt>
      <trkpt lat="44.87002" lon="4.79679">
        <ele>491.37</ele>
        <time>2015-01-17T09:01:41Z</time>
      </trkpt>
      <trkpt lat="44.87004" lon="4.79693">
        <ele>489.93</ele>
        <time>2015-01-17T09:01:44Z</time>
      </trkpt>
      <trkpt lat="44.87002" lon="4.79705">
        <ele>488.49</ele>
        <time>2015-01-17T09:01:48Z</time>
      </trkpt>
      <trkpt lat="44.86989" lon="4.79715">
        <ele>488.01</ele>
        <time>2015-01-17T09:02:02Z</time>
      </trkpt>
      <trkpt lat="44.86988" lon="4.79716">
        <ele>488.97</ele>
        <time>2015-01-17T09:02:21Z</time>
      </trkpt>
      <trkpt lat="44.86988" lon="4.79709">
        <ele>489.45</ele>
        <time>2015-01-17T09:02:38Z</time>
      </trkpt>
      <trkpt lat="44.8699" lon="4.797">
        <ele>489.45</ele>
        <time>2015-01-17T09:02:56Z</time>
      </trkpt>
      <trkpt lat="44.86989" lon="4.79686">
        <ele>489.45</ele>
        <time>2015-01-17T09:03:32Z</time>
      </trkpt>
      <trkpt lat="44.86985" lon="4.79679">
        <ele>490.41</ele>
        <time>2015-01-17T09:03:45Z</time>
      </trkpt>
      <trkpt lat="44.86991" lon="4.79678">
        <ele>490.41</ele>
        <time>2015-01-17T09:04:21Z</time>
      </trkpt>
      <trkpt lat="44.86989" lon="4.79678">
        <ele>490.41</ele>
        <time>2015-01-17T09:04:49Z</time>
      </trkpt>
      <trkpt lat="44.86986" lon="4.79676">
        <ele>490.41</ele>
        <time>2015-01-17T09:05:17Z</time>
      </trkpt>
      <trkpt lat="44.86989" lon="4.79668">
        <ele>491.37</ele>
        <time>2015-01-17T09:05:45Z</time>
      </trkpt>
      <trkpt lat="44.86991" lon="4.79665">
        <ele>491.85</ele>
        <time>2015-01-17T09:05:52Z</time>
      </trkpt>
      <trkpt lat="44.86992" lon="4.79653">
        <ele>493.29</ele>
        <time>2015-01-17T09:06:06Z</time>
      </trkpt>
      <trkpt lat="44.86994" lon="4.79655">
        <ele>493.29</ele>
        <time>2015-01-17T09:06:10Z</time>
      </trkpt>
      <trkpt lat="44.86992" lon="4.79678">
        <ele>489.45</ele>
        <time>2015-01-17T09:06:17Z</time>
      </trkpt>
      <trkpt lat="44.86989" lon="4.79701">
        <ele>488.01</ele>
        <time>2015-01-17T09:06:21Z</time>
      </trkpt>
      <trkpt lat="44.86984" lon="4.79707">
        <ele>487.05</ele>
        <time>2015-01-17T09:06:23Z</time>
      </trkpt>
      <trkpt lat="44.86986" lon="4.79724">
        <ele>486.56</ele>
        <time>2015-01-17T09:06:39Z</time>
      </trkpt>
      <trkpt lat="44.86987" lon="4.79728">
        <ele>486.56</ele>
        <time>2015-01-17T09:07:09Z</time>
      </trkpt>
      <trkpt lat="44.86986" lon="4.79734">
        <ele>487.05</ele>
        <time>2015-01-17T09:07:37Z</time>
      </trkpt>
      <trkpt lat="44.86984" lon="4.79745">
        <ele>487.05</ele>
        <time>2015-01-17T09:08:05Z</time>
      </trkpt>
      <trkpt lat="44.86983" lon="4.7975">
        <ele>487.05</ele>
        <time>2015-01-17T09:08:35Z</time>
      </trkpt>
      <trkpt lat="44.86982" lon="4.79748">
        <ele>487.05</ele>
        <time>2015-01-17T09:09:04Z</time>
      </trkpt>
      <trkpt lat="44.86981" lon="4.79745">
        <ele>487.53</ele>
        <time>2015-01-17T09:09:21Z</time>
      </trkpt>
      <trkpt lat="44.86978" lon="4.79747">
        <ele>487.05</ele>
        <time>2015-01-17T09:09:25Z</time>
      </trkpt>
      <trkpt lat="44.86969" lon="4.79779">
        <ele>484.64</ele>
        <time>2015-01-17T09:09:33Z</time>
      </trkpt>
      <trkpt lat="44.86971" lon="4.79813">
        <ele>481.76</ele>
        <time>2015-01-17T09:09:38Z</time>
      </trkpt>
      <trkpt lat="44.86969" lon="4.7982">
        <ele>480.8</ele>
        <time>2015-01-17T09:09:39Z</time>
      </trkpt>
      <trkpt lat="44.86965" lon="4.79834">
        <ele>480.32</ele>
        <time>2015-01-17T09:09:41Z</time>
      </trkpt>
      <trkpt lat="44.86962" lon="4.79849">
        <ele>477.43</ele>
        <time>2015-01-17T09:09:43Z</time>
      </trkpt>
      <trkpt lat="44.86962" lon="4.7986">
        <ele>475.99</ele>
        <time>2015-01-17T09:09:45Z</time>
      </trkpt>
      <trkpt lat="44.86962" lon="4.79889">
        <ele>473.11</ele>
        <time>2015-01-17T09:09:49Z</time>
      </trkpt>
      <trkpt lat="44.86959" lon="4.79903">
        <ele>469.26</ele>
        <time>2015-01-17T09:09:52Z</time>
      </trkpt>
      <trkpt lat="44.86959" lon="4.79924">
        <ele>466.38</ele>
        <time>2015-01-17T09:09:57Z</time>
      </trkpt>
      <trkpt lat="44.86958" lon="4.79929">
        <ele>464.93</ele>
        <time>2015-01-17T09:09:58Z</time>
      </trkpt>
      <trkpt lat="44.86951" lon="4.7995">
        <ele>461.57</ele>
        <time>2015-01-17T09:10:02Z</time>
      </trkpt>
      <trkpt lat="44.86936" lon="4.79971">
        <ele>457.72</ele>
        <time>2015-01-17T09:10:10Z</time>
      </trkpt>
      <trkpt lat="44.86936" lon="4.79962">
        <ele>459.65</ele>
        <time>2015-01-17T09:10:25Z</time>
      </trkpt>
      <trkpt lat="44.86939" lon="4.7997">
        <ele>459.17</ele>
        <time>2015-01-17T09:10:44Z</time>
      </trkpt>
      <trkpt lat="44.86936" lon="4.79966">
        <ele>459.17</ele>
        <time>2015-01-17T09:10:55Z</time>
      </trkpt>
      <trkpt lat="44.86937" lon="4.79971">
        <ele>459.17</ele>
        <time>2015-01-17T09:11:15Z</time>
      </trkpt>
      <trkpt lat="44.86934" lon="4.79973">
        <ele>459.17</ele>
        <time>2015-01-17T09:11:38Z</time>
      </trkpt>
      <trkpt lat="44.86935" lon="4.79964">
        <ele>459.65</ele>
        <time>2015-01-17T09:11:49Z</time>
      </trkpt>
      <trkpt lat="44.86942" lon="4.79947">
        <ele>462.05</ele>
        <time>2015-01-17T09:11:57Z</time>
      </trkpt>
      <trkpt lat="44.86952" lon="4.7994">
        <ele>465.9</ele>
        <time>2015-01-17T09:12:10Z</time>
      </trkpt>
      <trkpt lat="44.86952" lon="4.79939">
        <ele>465.9</ele>
        <time>2015-01-17T09:12:11Z</time>
      </trkpt>
      <trkpt lat="44.86957" lon="4.79928">
        <ele>466.38</ele>
        <time>2015-01-17T09:12:23Z</time>
      </trkpt>
      <trkpt lat="44.86958" lon="4.79927">
        <ele>465.9</ele>
        <time>2015-01-17T09:12:37Z</time>
      </trkpt>
      <trkpt lat="44.86954" lon="4.7995">
        <ele>463.01</ele>
        <time>2015-01-17T09:12:43Z</time>
      </trkpt>
      <trkpt lat="44.86951" lon="4.79958">
        <ele>461.57</ele>
        <time>2015-01-17T09:12:44Z</time>
      </trkpt>
      <trkpt lat="44.86941" lon="4.79974">
        <ele>458.21</ele>
        <time>2015-01-17T09:12:50Z</time>
      </trkpt>
      <trkpt lat="44.86938" lon="4.79965">
        <ele>459.17</ele>
        <time>2015-01-17T09:13:06Z</time>
      </trkpt>
      <trkpt lat="44.86938" lon="4.79962">
        <ele>459.65</ele>
        <time>2015-01-17T09:13:11Z</time>
      </trkpt>
      <trkpt lat="44.86946" lon="4.79945">
        <ele>462.05</ele>
        <time>2015-01-17T09:13:26Z</time>
      </trkpt>
      <trkpt lat="44.86949" lon="4.79942">
        <ele>463.01</ele>
        <time>2015-01-17T09:13:40Z</time>
      </trkpt>
      <trkpt lat="44.86956" lon="4.79946">
        <ele>463.97</ele>
        <time>2015-01-17T09:13:56Z</time>
      </trkpt>
      <trkpt lat="44.86956" lon="4.79938">
        <ele>465.9</ele>
        <time>2015-01-17T09:14:11Z</time>
      </trkpt>
      <trkpt lat="44.8696" lon="4.79929">
        <ele>465.9</ele>
        <time>2015-01-17T09:14:28Z</time>
      </trkpt>
      <trkpt lat="44.8696" lon="4.79928">
        <ele>465.9</ele>
        <time>2015-01-17T09:14:33Z</time>
      </trkpt>
      <trkpt lat="44.8695" lon="4.79958">
        <ele>462.05</ele>
        <time>2015-01-17T09:14:40Z</time>
      </trkpt>
      <trkpt lat="44.86942" lon="4.79974">
        <ele>460.13</ele>
        <time>2015-01-17T09:14:42Z</time>
      </trkpt>
      <trkpt lat="44.86939" lon="4.79979">
        <ele>457.72</ele>
        <time>2015-01-17T09:14:44Z</time>
      </trkpt>
      <trkpt lat="44.86937" lon="4.79981">
        <ele>457.72</ele>
        <time>2015-01-17T09:14:50Z</time>
      </trkpt>
      <trkpt lat="44.86935" lon="4.79968">
        <ele>458.69</ele>
        <time>2015-01-17T09:15:04Z</time>
      </trkpt>
      <trkpt lat="44.86936" lon="4.79977">
        <ele>458.69</ele>
        <time>2015-01-17T09:15:31Z</time>
      </trkpt>
      <trkpt lat="44.86935" lon="4.7998">
        <ele>458.69</ele>
        <time>2015-01-17T09:15:59Z</time>
      </trkpt>
      <trkpt lat="44.86935" lon="4.79965">
        <ele>458.69</ele>
        <time>2015-01-17T09:16:19Z</time>
      </trkpt>
      <trkpt lat="44.86937" lon="4.79963">
        <ele>458.69</ele>
        <time>2015-01-17T09:16:51Z</time>
      </trkpt>
      <trkpt lat="44.86941" lon="4.79963">
        <ele>458.69</ele>
        <time>2015-01-17T09:17:22Z</time>
      </trkpt>
      <trkpt lat="44.86938" lon="4.79959">
        <ele>458.69</ele>
        <time>2015-01-17T09:17:57Z</time>
      </trkpt>
      <trkpt lat="44.86935" lon="4.79959">
        <ele>458.69</ele>
        <time>2015-01-17T09:18:25Z</time>
      </trkpt>
      <trkpt lat="44.86937" lon="4.7996">
        <ele>458.69</ele>
        <time>2015-01-17T09:18:40Z</time>
      </trkpt>
      <trkpt lat="44.86938" lon="4.79959">
        <ele>458.69</ele>
        <time>2015-01-17T09:19:05Z</time>
      </trkpt>
      <trkpt lat="44.86937" lon="4.79961">
        <ele>458.69</ele>
        <time>2015-01-17T09:19:30Z</time>
      </trkpt>
      <trkpt lat="44.86941" lon="4.79963">
        <ele>458.69</ele>
        <time>2015-01-17T09:20:07Z</time>
      </trkpt>
      <trkpt lat="44.86939" lon="4.79961">
        <ele>458.69</ele>
        <time>2015-01-17T09:20:44Z</time>
      </trkpt>
      <trkpt lat="44.86942" lon="4.79959">
        <ele>458.69</ele>
        <time>2015-01-17T09:21:19Z</time>
      </trkpt>
      <trkpt lat="44.86941" lon="4.79959">
        <ele>458.69</ele>
        <time>2015-01-17T09:21:47Z</time>
      </trkpt>
      <trkpt lat="44.86939" lon="4.79964">
        <ele>458.69</ele>
        <time>2015-01-17T09:22:19Z</time>
      </trkpt>
      <trkpt lat="44.86935" lon="4.79961">
        <ele>458.69</ele>
        <time>2015-01-17T09:22:46Z</time>
      </trkpt>
      <trkpt lat="44.86936" lon="4.79962">
        <ele>458.69</ele>
        <time>2015-01-17T09:23:13Z</time>
      </trkpt>
      <trkpt lat="44.86935" lon="4.79964">
        <ele>458.21</ele>
        <time>2015-01-17T09:23:21Z</time>
      </trkpt>
      <trkpt lat="44.86935" lon="4.79978">
        <ele>457.24</ele>
        <time>2015-01-17T09:23:37Z</time>
      </trkpt>
      <trkpt lat="44.86935" lon="4.79979">
        <ele>457.24</ele>
        <time>2015-01-17T09:23:38Z</time>
      </trkpt>
      <trkpt lat="44.86925" lon="4.80006">
        <ele>456.76</ele>
        <time>2015-01-17T09:23:47Z</time>
      </trkpt>
      <trkpt lat="44.86921" lon="4.80042">
        <ele>455.8</ele>
        <time>2015-01-17T09:23:53Z</time>
      </trkpt>
      <trkpt lat="44.86903" lon="4.80091">
        <ele>455.8</ele>
        <time>2015-01-17T09:24:03Z</time>
      </trkpt>
      <trkpt lat="44.86893" lon="4.80093">
        <ele>455.8</ele>
        <time>2015-01-17T09:24:15Z</time>
      </trkpt>
      <trkpt lat="44.86884" lon="4.80086">
        <ele>455.32</ele>
        <time>2015-01-17T09:24:22Z</time>
      </trkpt>
      <trkpt lat="44.86881" lon="4.80071">
        <ele>455.32</ele>
        <time>2015-01-17T09:24:29Z</time>
      </trkpt>
      <trkpt lat="44.86877" lon="4.80058">
        <ele>455.32</ele>
        <time>2015-01-17T09:24:34Z</time>
      </trkpt>
      <trkpt lat="44.86875" lon="4.80033">
        <ele>455.32</ele>
        <time>2015-01-17T09:24:40Z</time>
      </trkpt>
      <trkpt lat="44.86852" lon="4.80017">
        <ele>453.4</ele>
        <time>2015-01-17T09:24:47Z</time>
      </trkpt>
      <trkpt lat="44.86847" lon="4.80011">
        <ele>452.92</ele>
        <time>2015-01-17T09:24:49Z</time>
      </trkpt>
      <trkpt lat="44.86831" lon="4.80012">
        <ele>450.52</ele>
        <time>2015-01-17T09:24:53Z</time>
      </trkpt>
      <trkpt lat="44.86819" lon="4.80023">
        <ele>448.59</ele>
        <time>2015-01-17T09:25:01Z</time>
      </trkpt>
      <trkpt lat="44.86816" lon="4.8003">
        <ele>447.15</ele>
        <time>2015-01-17T09:25:04Z</time>
      </trkpt>
      <trkpt lat="44.86812" lon="4.80063">
        <ele>446.19</ele>
        <time>2015-01-17T09:25:13Z</time>
      </trkpt>
      <trkpt lat="44.86814" lon="4.80072">
        <ele>446.19</ele>
        <time>2015-01-17T09:25:15Z</time>
      </trkpt>
      <trkpt lat="44.86823" lon="4.80079">
        <ele>448.11</ele>
        <time>2015-01-17T09:25:21Z</time>
      </trkpt>
      <trkpt lat="44.86828" lon="4.80082">
        <ele>448.59</ele>
        <time>2015-01-17T09:25:24Z</time>
      </trkpt>
      <trkpt lat="44.86832" lon="4.80088">
        <ele>449.55</ele>
        <time>2015-01-17T09:25:26Z</time>
      </trkpt>
      <trkpt lat="44.86831" lon="4.80094">
        <ele>449.55</ele>
        <time>2015-01-17T09:25:28Z</time>
      </trkpt>
      <trkpt lat="44.8683" lon="4.80104">
        <ele>449.07</ele>
        <time>2015-01-17T09:25:30Z</time>
      </trkpt>
      <trkpt lat="44.86836" lon="4.80134">
        <ele>448.59</ele>
        <time>2015-01-17T09:25:37Z</time>
      </trkpt>
      <trkpt lat="44.86828" lon="4.8016">
        <ele>447.15</ele>
        <time>2015-01-17T09:25:43Z</time>
      </trkpt>
      <trkpt lat="44.86825" lon="4.80183">
        <ele>445.71</ele>
        <time>2015-01-17T09:25:49Z</time>
      </trkpt>
      <trkpt lat="44.8682" lon="4.80188">
        <ele>444.27</ele>
        <time>2015-01-17T09:25:52Z</time>
      </trkpt>
      <trkpt lat="44.86814" lon="4.80196">
        <ele>442.82</ele>
        <time>2015-01-17T09:25:56Z</time>
      </trkpt>
      <trkpt lat="44.86808" lon="4.80205">
        <ele>440.9</ele>
        <time>2015-01-17T09:26:00Z</time>
      </trkpt>
      <trkpt lat="44.86804" lon="4.80227">
        <ele>438.5</ele>
        <time>2015-01-17T09:26:05Z</time>
      </trkpt>
      <trkpt lat="44.86804" lon="4.80231">
        <ele>438.02</ele>
        <time>2015-01-17T09:26:06Z</time>
      </trkpt>
      <trkpt lat="44.86804" lon="4.80242">
        <ele>438.5</ele>
        <time>2015-01-17T09:26:09Z</time>
      </trkpt>
      <trkpt lat="44.86802" lon="4.80258">
        <ele>438.98</ele>
        <time>2015-01-17T09:26:13Z</time>
      </trkpt>
      <trkpt lat="44.86801" lon="4.80269">
        <ele>439.94</ele>
        <time>2015-01-17T09:26:17Z</time>
      </trkpt>
      <trkpt lat="44.86811" lon="4.8028">
        <ele>441.86</ele>
        <time>2015-01-17T09:26:21Z</time>
      </trkpt>
      <trkpt lat="44.86833" lon="4.80302">
        <ele>442.34</ele>
        <time>2015-01-17T09:26:32Z</time>
      </trkpt>
      <trkpt lat="44.86849" lon="4.8031">
        <ele>440.42</ele>
        <time>2015-01-17T09:26:37Z</time>
      </trkpt>
      <trkpt lat="44.86856" lon="4.80327">
        <ele>438.02</ele>
        <time>2015-01-17T09:26:45Z</time>
      </trkpt>
      <trkpt lat="44.86857" lon="4.80336">
        <ele>438.02</ele>
        <time>2015-01-17T09:27:11Z</time>
      </trkpt>
      <trkpt lat="44.86859" lon="4.80339">
        <ele>438.02</ele>
        <time>2015-01-17T09:27:38Z</time>
      </trkpt>
      <trkpt lat="44.86864" lon="4.80342">
        <ele>438.5</ele>
        <time>2015-01-17T09:27:50Z</time>
      </trkpt>
      <trkpt lat="44.86865" lon="4.80372">
        <ele>438.02</ele>
        <time>2015-01-17T09:27:58Z</time>
      </trkpt>
      <trkpt lat="44.86849" lon="4.8041">
        <ele>436.58</ele>
        <time>2015-01-17T09:28:03Z</time>
      </trkpt>
      <trkpt lat="44.86844" lon="4.80418">
        <ele>436.1</ele>
        <time>2015-01-17T09:28:04Z</time>
      </trkpt>
      <trkpt lat="44.86826" lon="4.80441">
        <ele>434.17</ele>
        <time>2015-01-17T09:28:07Z</time>
      </trkpt>
      <trkpt lat="44.8682" lon="4.80447">
        <ele>433.69</ele>
        <time>2015-01-17T09:28:08Z</time>
      </trkpt>
      <trkpt lat="44.86812" lon="4.80452">
        <ele>432.73</ele>
        <time>2015-01-17T09:28:09Z</time>
      </trkpt>
      <trkpt lat="44.86805" lon="4.80456">
        <ele>432.25</ele>
        <time>2015-01-17T09:28:10Z</time>
      </trkpt>
      <trkpt lat="44.86798" lon="4.80459">
        <ele>430.81</ele>
        <time>2015-01-17T09:28:11Z</time>
      </trkpt>
      <trkpt lat="44.86792" lon="4.8046">
        <ele>429.85</ele>
        <time>2015-01-17T09:28:12Z</time>
      </trkpt>
      <trkpt lat="44.86787" lon="4.80463">
        <ele>429.85</ele>
        <time>2015-01-17T09:28:13Z</time>
      </trkpt>
      <trkpt lat="44.86784" lon="4.80466">
        <ele>429.37</ele>
        <time>2015-01-17T09:28:14Z</time>
      </trkpt>
      <trkpt lat="44.86781" lon="4.80473">
        <ele>428.4</ele>
        <time>2015-01-17T09:28:16Z</time>
      </trkpt>
      <trkpt lat="44.86784" lon="4.8048">
        <ele>428.4</ele>
        <time>2015-01-17T09:28:19Z</time>
      </trkpt>
      <trkpt lat="44.86799" lon="4.80484">
        <ele>428.89</ele>
        <time>2015-01-17T09:28:25Z</time>
      </trkpt>
      <trkpt lat="44.86801" lon="4.80484">
        <ele>428.4</ele>
        <time>2015-01-17T09:28:26Z</time>
      </trkpt>
      <trkpt lat="44.86805" lon="4.80486">
        <ele>428.4</ele>
        <time>2015-01-17T09:28:27Z</time>
      </trkpt>
      <trkpt lat="44.86808" lon="4.80489">
        <ele>428.4</ele>
        <time>2015-01-17T09:28:28Z</time>
      </trkpt>
      <trkpt lat="44.86814" lon="4.80497">
        <ele>426.96</ele>
        <time>2015-01-17T09:28:30Z</time>
      </trkpt>
      <trkpt lat="44.86821" lon="4.80497">
        <ele>425.52</ele>
        <time>2015-01-17T09:28:33Z</time>
      </trkpt>
      <trkpt lat="44.86829" lon="4.80492">
        <ele>423.6</ele>
        <time>2015-01-17T09:28:37Z</time>
      </trkpt>
      <trkpt lat="44.86849" lon="4.80487">
        <ele>423.12</ele>
        <time>2015-01-17T09:28:47Z</time>
      </trkpt>
      <trkpt lat="44.86861" lon="4.80477">
        <ele>422.64</ele>
        <time>2015-01-17T09:29:17Z</time>
      </trkpt>
      <trkpt lat="44.86867" lon="4.80478">
        <ele>422.64</ele>
        <time>2015-01-17T09:29:42Z</time>
      </trkpt>
      <trkpt lat="44.8687" lon="4.80487">
        <ele>422.64</ele>
        <time>2015-01-17T09:30:07Z</time>
      </trkpt>
      <trkpt lat="44.86876" lon="4.80481">
        <ele>421.68</ele>
        <time>2015-01-17T09:30:22Z</time>
      </trkpt>
      <trkpt lat="44.86874" lon="4.8048">
        <ele>421.68</ele>
        <time>2015-01-17T09:30:32Z</time>
      </trkpt>
      <trkpt lat="44.86886" lon="4.80466">
        <ele>421.19</ele>
        <time>2015-01-17T09:30:40Z</time>
      </trkpt>
      <trkpt lat="44.86887" lon="4.80464">
        <ele>420.23</ele>
        <time>2015-01-17T09:30:41Z</time>
      </trkpt>
      <trkpt lat="44.86891" lon="4.80462">
        <ele>419.75</ele>
        <time>2015-01-17T09:30:43Z</time>
      </trkpt>
      <trkpt lat="44.86907" lon="4.8045">
        <ele>417.35</ele>
        <time>2015-01-17T09:30:50Z</time>
      </trkpt>
      <trkpt lat="44.86913" lon="4.8045">
        <ele>415.91</ele>
        <time>2015-01-17T09:30:52Z</time>
      </trkpt>
      <trkpt lat="44.86917" lon="4.80466">
        <ele>411.58</ele>
        <time>2015-01-17T09:30:58Z</time>
      </trkpt>
      <trkpt lat="44.86919" lon="4.805">
        <ele>407.26</ele>
        <time>2015-01-17T09:31:06Z</time>
      </trkpt>
      <trkpt lat="44.86923" lon="4.80509">
        <ele>403.41</ele>
        <time>2015-01-17T09:31:10Z</time>
      </trkpt>
      <trkpt lat="44.86928" lon="4.80512">
        <ele>400.05</ele>
        <time>2015-01-17T09:31:13Z</time>
      </trkpt>
      <trkpt lat="44.8693" lon="4.80512">
        <ele>398.12</ele>
        <time>2015-01-17T09:31:14Z</time>
      </trkpt>
      <trkpt lat="44.86941" lon="4.80512">
        <ele>393.32</ele>
        <time>2015-01-17T09:31:18Z</time>
      </trkpt>
      <trkpt lat="44.86947" lon="4.8051">
        <ele>392.36</ele>
        <time>2015-01-17T09:31:20Z</time>
      </trkpt>
      <trkpt lat="44.86966" lon="4.80515">
        <ele>390.43</ele>
        <time>2015-01-17T09:31:30Z</time>
      </trkpt>
      <trkpt lat="44.86973" lon="4.80519">
        <ele>389.95</ele>
        <time>2015-01-17T09:31:49Z</time>
      </trkpt>
      <trkpt lat="44.86979" lon="4.80513">
        <ele>388.03</ele>
        <time>2015-01-17T09:32:09Z</time>
      </trkpt>
      <trkpt lat="44.86979" lon="4.80514">
        <ele>385.15</ele>
        <time>2015-01-17T09:32:24Z</time>
      </trkpt>
      <trkpt lat="44.86979" lon="4.80513">
        <ele>384.18</ele>
        <time>2015-01-17T09:32:26Z</time>
      </trkpt>
      <trkpt lat="44.86982" lon="4.80513">
        <ele>382.26</ele>
        <time>2015-01-17T09:32:30Z</time>
      </trkpt>
      <trkpt lat="44.86989" lon="4.80519">
        <ele>378.42</ele>
        <time>2015-01-17T09:32:44Z</time>
      </trkpt>
      <trkpt lat="44.86991" lon="4.80519">
        <ele>376.97</ele>
        <time>2015-01-17T09:32:47Z</time>
      </trkpt>
      <trkpt lat="44.87" lon="4.80518">
        <ele>374.09</ele>
        <time>2015-01-17T09:33:00Z</time>
      </trkpt>
      <trkpt lat="44.87004" lon="4.80515">
        <ele>370.73</ele>
        <time>2015-01-17T09:33:05Z</time>
      </trkpt>
      <trkpt lat="44.87015" lon="4.80517">
        <ele>371.21</ele>
        <time>2015-01-17T09:33:27Z</time>
      </trkpt>
      <trkpt lat="44.87024" lon="4.80521">
        <ele>371.21</ele>
        <time>2015-01-17T09:33:52Z</time>
      </trkpt>
      <trkpt lat="44.87015" lon="4.80527">
        <ele>374.09</ele>
        <time>2015-01-17T09:34:08Z</time>
      </trkpt>
      <trkpt lat="44.8701" lon="4.8053">
        <ele>377.94</ele>
        <time>2015-01-17T09:34:19Z</time>
      </trkpt>
      <trkpt lat="44.87007" lon="4.80529">
        <ele>379.38</ele>
        <time>2015-01-17T09:34:24Z</time>
      </trkpt>
      <trkpt lat="44.87002" lon="4.80529">
        <ele>382.74</ele>
        <time>2015-01-17T09:34:35Z</time>
      </trkpt>
      <trkpt lat="44.86989" lon="4.80528">
        <ele>385.63</ele>
        <time>2015-01-17T09:34:50Z</time>
      </trkpt>
      <trkpt lat="44.86987" lon="4.80523">
        <ele>387.55</ele>
        <time>2015-01-17T09:35:07Z</time>
      </trkpt>
      <trkpt lat="44.8698" lon="4.80527">
        <ele>390.91</ele>
        <time>2015-01-17T09:35:27Z</time>
      </trkpt>
      <trkpt lat="44.8698" lon="4.8052">
        <ele>388.99</ele>
        <time>2015-01-17T09:35:48Z</time>
      </trkpt>
      <trkpt lat="44.8698" lon="4.8052">
        <ele>388.51</ele>
        <time>2015-01-17T09:35:49Z</time>
      </trkpt>
      <trkpt lat="44.86983" lon="4.80518">
        <ele>384.66</ele>
        <time>2015-01-17T09:35:52Z</time>
      </trkpt>
      <trkpt lat="44.8699" lon="4.8052">
        <ele>380.34</ele>
        <time>2015-01-17T09:35:55Z</time>
      </trkpt>
      <trkpt lat="44.86996" lon="4.8052">
        <ele>375.53</ele>
        <time>2015-01-17T09:35:58Z</time>
      </trkpt>
      <trkpt lat="44.87009" lon="4.80523">
        <ele>368.8</ele>
        <time>2015-01-17T09:36:02Z</time>
      </trkpt>
      <trkpt lat="44.87018" lon="4.80525">
        <ele>363.04</ele>
        <time>2015-01-17T09:36:04Z</time>
      </trkpt>
      <trkpt lat="44.87033" lon="4.80536">
        <ele>357.27</ele>
        <time>2015-01-17T09:36:07Z</time>
      </trkpt>
      <trkpt lat="44.87039" lon="4.80539">
        <ele>353.9</ele>
        <time>2015-01-17T09:36:09Z</time>
      </trkpt>
      <trkpt lat="44.87041" lon="4.8054">
        <ele>352.46</ele>
        <time>2015-01-17T09:36:10Z</time>
      </trkpt>
      <trkpt lat="44.87046" lon="4.80547">
        <ele>353.9</ele>
        <time>2015-01-17T09:36:22Z</time>
      </trkpt>
      <trkpt lat="44.87037" lon="4.80547">
        <ele>357.75</ele>
        <time>2015-01-17T09:36:29Z</time>
      </trkpt>
      <trkpt lat="44.8703" lon="4.80546">
        <ele>359.67</ele>
        <time>2015-01-17T09:36:43Z</time>
      </trkpt>
      <trkpt lat="44.87031" lon="4.80539">
        <ele>359.67</ele>
        <time>2015-01-17T09:37:01Z</time>
      </trkpt>
      <trkpt lat="44.87032" lon="4.80535">
        <ele>359.67</ele>
        <time>2015-01-17T09:37:13Z</time>
      </trkpt>
      <trkpt lat="44.87032" lon="4.80539">
        <ele>360.15</ele>
        <time>2015-01-17T09:37:26Z</time>
      </trkpt>
      <trkpt lat="44.87031" lon="4.80537">
        <ele>360.15</ele>
        <time>2015-01-17T09:37:48Z</time>
      </trkpt>
      <trkpt lat="44.87031" lon="4.8054">
        <ele>359.67</ele>
        <time>2015-01-17T09:38:13Z</time>
      </trkpt>
      <trkpt lat="44.87032" lon="4.80541">
        <ele>360.15</ele>
        <time>2015-01-17T09:38:38Z</time>
      </trkpt>
      <trkpt lat="44.8703" lon="4.80536">
        <ele>360.15</ele>
        <time>2015-01-17T09:39:05Z</time>
      </trkpt>
      <trkpt lat="44.87031" lon="4.80535">
        <ele>359.67</ele>
        <time>2015-01-17T09:39:21Z</time>
      </trkpt>
      <trkpt lat="44.87034" lon="4.80531">
        <ele>361.11</ele>
        <time>2015-01-17T09:39:33Z</time>
      </trkpt>
      <trkpt lat="44.87034" lon="4.80528">
        <ele>359.67</ele>
        <time>2015-01-17T09:39:50Z</time>
      </trkpt>
      <trkpt lat="44.87036" lon="4.80533">
        <ele>360.15</ele>
        <time>2015-01-17T09:40:14Z</time>
      </trkpt>
      <trkpt lat="44.87034" lon="4.80533">
        <ele>360.15</ele>
        <time>2015-01-17T09:40:32Z</time>
      </trkpt>
      <trkpt lat="44.87031" lon="4.80533">
        <ele>360.15</ele>
        <time>2015-01-17T09:40:58Z</time>
      </trkpt>
      <trkpt lat="44.87031" lon="4.8053">
        <ele>360.15</ele>
        <time>2015-01-17T09:41:19Z</time>
      </trkpt>
      <trkpt lat="44.87031" lon="4.80533">
        <ele>360.15</ele>
        <time>2015-01-17T09:41:45Z</time>
      </trkpt>
      <trkpt lat="44.87032" lon="4.80532">
        <ele>359.67</ele>
        <time>2015-01-17T09:41:56Z</time>
      </trkpt>
      <trkpt lat="44.8703" lon="4.80532">
        <ele>360.15</ele>
        <time>2015-01-17T09:42:17Z</time>
      </trkpt>
      <trkpt lat="44.87031" lon="4.80535">
        <ele>358.71</ele>
        <time>2015-01-17T09:42:37Z</time>
      </trkpt>
      <trkpt lat="44.87036" lon="4.80548">
        <ele>358.71</ele>
        <time>2015-01-17T09:43:03Z</time>
      </trkpt>
      <trkpt lat="44.87038" lon="4.80554">
        <ele>358.71</ele>
        <time>2015-01-17T09:43:32Z</time>
      </trkpt>
      <trkpt lat="44.87041" lon="4.8055">
        <ele>358.71</ele>
        <time>2015-01-17T09:44:03Z</time>
      </trkpt>
      <trkpt lat="44.87038" lon="4.80547">
        <ele>358.23</ele>
        <time>2015-01-17T09:44:29Z</time>
      </trkpt>
      <trkpt lat="44.87039" lon="4.80543">
        <ele>358.23</ele>
        <time>2015-01-17T09:44:59Z</time>
      </trkpt>
      <trkpt lat="44.87037" lon="4.80544">
        <ele>357.75</ele>
        <time>2015-01-17T09:45:34Z</time>
      </trkpt>
      <trkpt lat="44.87038" lon="4.80545">
        <ele>357.75</ele>
        <time>2015-01-17T09:46:04Z</time>
      </trkpt>
      <trkpt lat="44.87041" lon="4.80542">
        <ele>354.38</ele>
        <time>2015-01-17T09:46:12Z</time>
      </trkpt>
      <trkpt lat="44.87043" lon="4.80544">
        <ele>351.98</ele>
        <time>2015-01-17T09:46:28Z</time>
      </trkpt>
      <trkpt lat="44.87044" lon="4.80546">
        <ele>352.46</ele>
        <time>2015-01-17T09:46:51Z</time>
      </trkpt>
      <trkpt lat="44.87049" lon="4.80543">
        <ele>350.54</ele>
        <time>2015-01-17T09:47:08Z</time>
      </trkpt>
      <trkpt lat="44.8705" lon="4.80543">
        <ele>349.58</ele>
        <time>2015-01-17T09:47:11Z</time>
      </trkpt>
      <trkpt lat="44.87058" lon="4.80541">
        <ele>345.73</ele>
        <time>2015-01-17T09:47:16Z</time>
      </trkpt>
      <trkpt lat="44.87059" lon="4.8054">
        <ele>345.25</ele>
        <time>2015-01-17T09:47:17Z</time>
      </trkpt>
      <trkpt lat="44.87064" lon="4.80539">
        <ele>340.92</ele>
        <time>2015-01-17T09:47:20Z</time>
      </trkpt>
      <trkpt lat="44.87068" lon="4.80541">
        <ele>339</ele>
        <time>2015-01-17T09:47:24Z</time>
      </trkpt>
      <trkpt lat="44.87069" lon="4.80559">
        <ele>336.12</ele>
        <time>2015-01-17T09:47:32Z</time>
      </trkpt>
      <trkpt lat="44.87066" lon="4.80582">
        <ele>332.27</ele>
        <time>2015-01-17T09:47:38Z</time>
      </trkpt>
      <trkpt lat="44.87065" lon="4.80599">
        <ele>328.91</ele>
        <time>2015-01-17T09:47:41Z</time>
      </trkpt>
      <trkpt lat="44.87064" lon="4.80603">
        <ele>328.91</ele>
        <time>2015-01-17T09:47:42Z</time>
      </trkpt>
      <trkpt lat="44.87058" lon="4.8062">
        <ele>325.54</ele>
        <time>2015-01-17T09:47:46Z</time>
      </trkpt>
      <trkpt lat="44.87054" lon="4.80629">
        <ele>322.18</ele>
        <time>2015-01-17T09:47:48Z</time>
      </trkpt>
      <trkpt lat="44.87042" lon="4.80651">
        <ele>319.3</ele>
        <time>2015-01-17T09:47:53Z</time>
      </trkpt>
      <trkpt lat="44.87027" lon="4.80674">
        <ele>318.33</ele>
        <time>2015-01-17T09:48:01Z</time>
      </trkpt>
      <trkpt lat="44.87017" lon="4.80694">
        <ele>318.33</ele>
        <time>2015-01-17T09:48:08Z</time>
      </trkpt>
      <trkpt lat="44.87016" lon="4.80701">
        <ele>314.97</ele>
        <time>2015-01-17T09:48:11Z</time>
      </trkpt>
      <trkpt lat="44.87015" lon="4.80703">
        <ele>313.05</ele>
        <time>2015-01-17T09:48:12Z</time>
      </trkpt>
      <trkpt lat="44.87017" lon="4.8071">
        <ele>308.72</ele>
        <time>2015-01-17T09:48:15Z</time>
      </trkpt>
      <trkpt lat="44.87022" lon="4.80721">
        <ele>304.88</ele>
        <time>2015-01-17T09:48:19Z</time>
      </trkpt>
      <trkpt lat="44.87022" lon="4.8073">
        <ele>301.51</ele>
        <time>2015-01-17T09:48:23Z</time>
      </trkpt>
      <trkpt lat="44.87028" lon="4.80724">
        <ele>298.15</ele>
        <time>2015-01-17T09:48:26Z</time>
      </trkpt>
      <trkpt lat="44.87038" lon="4.80718">
        <ele>293.34</ele>
        <time>2015-01-17T09:48:29Z</time>
      </trkpt>
      <trkpt lat="44.87039" lon="4.80722">
        <ele>293.34</ele>
        <time>2015-01-17T09:48:33Z</time>
      </trkpt>
      <trkpt lat="44.87044" lon="4.80721">
        <ele>294.78</ele>
        <time>2015-01-17T09:48:37Z</time>
      </trkpt>
      <trkpt lat="44.87053" lon="4.80717">
        <ele>295.26</ele>
        <time>2015-01-17T09:48:52Z</time>
      </trkpt>
      <trkpt lat="44.87057" lon="4.80713">
        <ele>295.26</ele>
        <time>2015-01-17T09:49:13Z</time>
      </trkpt>
      <trkpt lat="44.87066" lon="4.80716">
        <ele>295.74</ele>
        <time>2015-01-17T09:49:50Z</time>
      </trkpt>
      <trkpt lat="44.87063" lon="4.80717">
        <ele>296.22</ele>
        <time>2015-01-17T09:50:16Z</time>
      </trkpt>
      <trkpt lat="44.87062" lon="4.80715">
        <ele>296.22</ele>
        <time>2015-01-17T09:50:32Z</time>
      </trkpt>
      <trkpt lat="44.87059" lon="4.80713">
        <ele>297.18</ele>
        <time>2015-01-17T09:50:36Z</time>
      </trkpt>
      <trkpt lat="44.87066" lon="4.80699">
        <ele>298.63</ele>
        <time>2015-01-17T09:50:45Z</time>
      </trkpt>
      <trkpt lat="44.87085" lon="4.80676">
        <ele>301.99</ele>
        <time>2015-01-17T09:50:59Z</time>
      </trkpt>
      <trkpt lat="44.87101" lon="4.80644">
        <ele>305.36</ele>
        <time>2015-01-17T09:51:15Z</time>
      </trkpt>
      <trkpt lat="44.87119" lon="4.80604">
        <ele>308.24</ele>
        <time>2015-01-17T09:51:35Z</time>
      </trkpt>
      <trkpt lat="44.8713" lon="4.80563">
        <ele>311.12</ele>
        <time>2015-01-17T09:51:54Z</time>
      </trkpt>
      <trkpt lat="44.87132" lon="4.80525">
        <ele>313.05</ele>
        <time>2015-01-17T09:52:11Z</time>
      </trkpt>
      <trkpt lat="44.87144" lon="4.8049">
        <ele>315.45</ele>
        <time>2015-01-17T09:52:29Z</time>
      </trkpt>
      <trkpt lat="44.87163" lon="4.80469">
        <ele>318.33</ele>
        <time>2015-01-17T09:52:45Z</time>
      </trkpt>
      <trkpt lat="44.87183" lon="4.80434">
        <ele>321.22</ele>
        <time>2015-01-17T09:53:05Z</time>
      </trkpt>
      <trkpt lat="44.87194" lon="4.80404">
        <ele>324.1</ele>
        <time>2015-01-17T09:53:21Z</time>
      </trkpt>
      <trkpt lat="44.87206" lon="4.80366">
        <ele>327.47</ele>
        <time>2015-01-17T09:53:39Z</time>
      </trkpt>
      <trkpt lat="44.87217" lon="4.80339">
        <ele>330.35</ele>
        <time>2015-01-17T09:53:54Z</time>
      </trkpt>
      <trkpt lat="44.87227" lon="4.80304">
        <ele>332.75</ele>
        <time>2015-01-17T09:54:10Z</time>
      </trkpt>
      <trkpt lat="44.87232" lon="4.80263">
        <ele>334.2</ele>
        <time>2015-01-17T09:54:26Z</time>
      </trkpt>
      <trkpt lat="44.87246" lon="4.80235">
        <ele>337.08</ele>
        <time>2015-01-17T09:54:40Z</time>
      </trkpt>
      <trkpt lat="44.87272" lon="4.80234">
        <ele>339.48</ele>
        <time>2015-01-17T09:54:55Z</time>
      </trkpt>
      <trkpt lat="44.873" lon="4.80234">
        <ele>342.85</ele>
        <time>2015-01-17T09:55:10Z</time>
      </trkpt>
      <trkpt lat="44.87326" lon="4.80218">
        <ele>345.73</ele>
        <time>2015-01-17T09:55:26Z</time>
      </trkpt>
      <trkpt lat="44.8735" lon="4.80201">
        <ele>348.62</ele>
        <time>2015-01-17T09:55:41Z</time>
      </trkpt>
      <trkpt lat="44.87374" lon="4.80172">
        <ele>351.5</ele>
        <time>2015-01-17T09:55:57Z</time>
      </trkpt>
      <trkpt lat="44.87397" lon="4.80148">
        <ele>354.38</ele>
        <time>2015-01-17T09:56:14Z</time>
      </trkpt>
      <trkpt lat="44.87418" lon="4.80127">
        <ele>357.27</ele>
        <time>2015-01-17T09:56:29Z</time>
      </trkpt>
      <trkpt lat="44.87433" lon="4.80117">
        <ele>359.19</ele>
        <time>2015-01-17T09:56:39Z</time>
      </trkpt>
      <trkpt lat="44.87452" lon="4.80106">
        <ele>363.04</ele>
        <time>2015-01-17T09:56:52Z</time>
      </trkpt>
      <trkpt lat="44.8747" lon="4.80067">
        <ele>365.44</ele>
        <time>2015-01-17T09:57:07Z</time>
      </trkpt>
      <trkpt lat="44.87472" lon="4.80029">
        <ele>368.32</ele>
        <time>2015-01-17T09:57:23Z</time>
      </trkpt>
      <trkpt lat="44.87474" lon="4.79998">
        <ele>371.21</ele>
        <time>2015-01-17T09:57:37Z</time>
      </trkpt>
      <trkpt lat="44.8748" lon="4.79965">
        <ele>373.61</ele>
        <time>2015-01-17T09:57:50Z</time>
      </trkpt>
      <trkpt lat="44.87483" lon="4.79925">
        <ele>376.01</ele>
        <time>2015-01-17T09:58:06Z</time>
      </trkpt>
      <trkpt lat="44.87484" lon="4.79877">
        <ele>378.42</ele>
        <time>2015-01-17T09:58:24Z</time>
      </trkpt>
      <trkpt lat="44.87483" lon="4.79842">
        <ele>381.78</ele>
        <time>2015-01-17T09:58:41Z</time>
      </trkpt>
      <trkpt lat="44.87482" lon="4.79814">
        <ele>384.18</ele>
        <time>2015-01-17T09:58:54Z</time>
      </trkpt>
      <trkpt lat="44.87484" lon="4.79782">
        <ele>387.07</ele>
        <time>2015-01-17T09:59:09Z</time>
      </trkpt>
      <trkpt lat="44.87484" lon="4.7978">
        <ele>387.55</ele>
        <time>2015-01-17T09:59:11Z</time>
      </trkpt>
      <trkpt lat="44.87481" lon="4.79776">
        <ele>387.55</ele>
        <time>2015-01-17T09:59:15Z</time>
      </trkpt>
      <trkpt lat="44.87473" lon="4.79755">
        <ele>389.95</ele>
        <time>2015-01-17T09:59:30Z</time>
      </trkpt>
      <trkpt lat="44.87468" lon="4.79736">
        <ele>393.32</ele>
        <time>2015-01-17T09:59:43Z</time>
      </trkpt>
      <trkpt lat="44.87463" lon="4.79721">
        <ele>394.76</ele>
        <time>2015-01-17T09:59:54Z</time>
      </trkpt>
      <trkpt lat="44.87461" lon="4.79714">
        <ele>395.24</ele>
        <time>2015-01-17T09:59:58Z</time>
      </trkpt>
      <trkpt lat="44.87469" lon="4.79666">
        <ele>397.64</ele>
        <time>2015-01-17T10:00:14Z</time>
      </trkpt>
      <trkpt lat="44.87466" lon="4.79632">
        <ele>398.6</ele>
        <time>2015-01-17T10:00:26Z</time>
      </trkpt>
      <trkpt lat="44.87461" lon="4.79578">
        <ele>400.53</ele>
        <time>2015-01-17T10:00:39Z</time>
      </trkpt>
      <trkpt lat="44.8746" lon="4.79577">
        <ele>400.53</ele>
        <time>2015-01-17T10:00:40Z</time>
      </trkpt>
      <trkpt lat="44.8744" lon="4.79555">
        <ele>403.41</ele>
        <time>2015-01-17T10:00:53Z</time>
      </trkpt>
      <trkpt lat="44.8743" lon="4.79541">
        <ele>405.33</ele>
        <time>2015-01-17T10:01:01Z</time>
      </trkpt>
      <trkpt lat="44.87432" lon="4.79541">
        <ele>405.33</ele>
        <time>2015-01-17T10:01:02Z</time>
      </trkpt>
      <trkpt lat="44.87434" lon="4.7954">
        <ele>405.33</ele>
        <time>2015-01-17T10:01:03Z</time>
      </trkpt>
      <trkpt lat="44.87435" lon="4.79541">
        <ele>405.81</ele>
        <time>2015-01-17T10:01:04Z</time>
      </trkpt>
      <trkpt lat="44.87436" lon="4.79543">
        <ele>405.81</ele>
        <time>2015-01-17T10:01:05Z</time>
      </trkpt>
      <trkpt lat="44.87445" lon="4.79548">
        <ele>405.81</ele>
        <time>2015-01-17T10:01:15Z</time>
      </trkpt>
      <trkpt lat="44.87446" lon="4.79552">
        <ele>406.29</ele>
        <time>2015-01-17T10:01:19Z</time>
      </trkpt>
      <trkpt lat="44.87445" lon="4.79556">
        <ele>406.77</ele>
        <time>2015-01-17T10:01:21Z</time>
      </trkpt>
      <trkpt lat="44.87446" lon="4.79557">
        <ele>407.26</ele>
        <time>2015-01-17T10:01:22Z</time>
      </trkpt>
      <trkpt lat="44.87447" lon="4.79558">
        <ele>407.26</ele>
        <time>2015-01-17T10:01:23Z</time>
      </trkpt>
      <trkpt lat="44.87448" lon="4.7956">
        <ele>407.26</ele>
        <time>2015-01-17T10:01:24Z</time>
      </trkpt>
      <trkpt lat="44.87444" lon="4.79562">
        <ele>407.74</ele>
        <time>2015-01-17T10:01:36Z</time>
      </trkpt>
      <trkpt lat="44.87445" lon="4.79564">
        <ele>407.74</ele>
        <time>2015-01-17T10:01:55Z</time>
      </trkpt>
      <trkpt lat="44.87442" lon="4.79566">
        <ele>407.74</ele>
        <time>2015-01-17T10:02:16Z</time>
      </trkpt>
      <trkpt lat="44.87441" lon="4.79564">
        <ele>407.74</ele>
        <time>2015-01-17T10:02:47Z</time>
      </trkpt>
      <trkpt lat="44.87445" lon="4.79566">
        <ele>407.74</ele>
        <time>2015-01-17T10:03:19Z</time>
      </trkpt>
      <trkpt lat="44.87446" lon="4.79561">
        <ele>407.74</ele>
        <time>2015-01-17T10:03:48Z</time>
      </trkpt>
      <trkpt lat="44.8745" lon="4.79554">
        <ele>407.74</ele>
        <time>2015-01-17T10:04:23Z</time>
      </trkpt>
      <trkpt lat="44.87447" lon="4.79557">
        <ele>407.74</ele>
        <time>2015-01-17T10:04:57Z</time>
      </trkpt>
      <trkpt lat="44.87448" lon="4.79574">
        <ele>410.14</ele>
        <time>2015-01-17T10:05:07Z</time>
      </trkpt>
      <trkpt lat="44.87448" lon="4.79577">
        <ele>410.62</ele>
        <time>2015-01-17T10:05:08Z</time>
      </trkpt>
      <trkpt lat="44.87449" lon="4.79578">
        <ele>411.1</ele>
        <time>2015-01-17T10:05:09Z</time>
      </trkpt>
      <trkpt lat="44.8745" lon="4.79584">
        <ele>411.58</ele>
        <time>2015-01-17T10:05:12Z</time>
      </trkpt>
      <trkpt lat="44.87457" lon="4.79626">
        <ele>413.98</ele>
        <time>2015-01-17T10:05:27Z</time>
      </trkpt>
      <trkpt lat="44.8745" lon="4.79669">
        <ele>415.43</ele>
        <time>2015-01-17T10:05:41Z</time>
      </trkpt>
      <trkpt lat="44.87447" lon="4.79716">
        <ele>416.87</ele>
        <time>2015-01-17T10:05:55Z</time>
      </trkpt>
      <trkpt lat="44.87448" lon="4.7976">
        <ele>419.27</ele>
        <time>2015-01-17T10:06:09Z</time>
      </trkpt>
      <trkpt lat="44.87443" lon="4.798">
        <ele>421.19</ele>
        <time>2015-01-17T10:06:24Z</time>
      </trkpt>
      <trkpt lat="44.8744" lon="4.79829">
        <ele>424.08</ele>
        <time>2015-01-17T10:06:36Z</time>
      </trkpt>
      <trkpt lat="44.87437" lon="4.79838">
        <ele>425.04</ele>
        <time>2015-01-17T10:06:40Z</time>
      </trkpt>
      <trkpt lat="44.87413" lon="4.79866">
        <ele>426.96</ele>
        <time>2015-01-17T10:06:51Z</time>
      </trkpt>
      <trkpt lat="44.87406" lon="4.79869">
        <ele>427.44</ele>
        <time>2015-01-17T10:06:52Z</time>
      </trkpt>
      <trkpt lat="44.87403" lon="4.79872">
        <ele>427.44</ele>
        <time>2015-01-17T10:06:53Z</time>
      </trkpt>
      <trkpt lat="44.87373" lon="4.79899">
        <ele>429.85</ele>
        <time>2015-01-17T10:07:07Z</time>
      </trkpt>
      <trkpt lat="44.87342" lon="4.79931">
        <ele>431.77</ele>
        <time>2015-01-17T10:07:22Z</time>
      </trkpt>
      <trkpt lat="44.87338" lon="4.79939">
        <ele>432.25</ele>
        <time>2015-01-17T10:07:25Z</time>
      </trkpt>
      <trkpt lat="44.87337" lon="4.79941">
        <ele>432.73</ele>
        <time>2015-01-17T10:07:26Z</time>
      </trkpt>
      <trkpt lat="44.87312" lon="4.79968">
        <ele>435.13</ele>
        <time>2015-01-17T10:07:43Z</time>
      </trkpt>
      <trkpt lat="44.87309" lon="4.79964">
        <ele>434.17</ele>
        <time>2015-01-17T10:08:00Z</time>
      </trkpt>
      <trkpt lat="44.8731" lon="4.79957">
        <ele>434.65</ele>
        <time>2015-01-17T10:08:36Z</time>
      </trkpt>
      <trkpt lat="44.87311" lon="4.79961">
        <ele>434.65</ele>
        <time>2015-01-17T10:08:55Z</time>
      </trkpt>
      <trkpt lat="44.87307" lon="4.7997">
        <ele>435.13</ele>
        <time>2015-01-17T10:09:14Z</time>
      </trkpt>
      <trkpt lat="44.87306" lon="4.79971">
        <ele>435.61</ele>
        <time>2015-01-17T10:09:15Z</time>
      </trkpt>
      <trkpt lat="44.87273" lon="4.79981">
        <ele>437.54</ele>
        <time>2015-01-17T10:09:29Z</time>
      </trkpt>
      <trkpt lat="44.87266" lon="4.79978">
        <ele>437.54</ele>
        <time>2015-01-17T10:09:33Z</time>
      </trkpt>
      <trkpt lat="44.87265" lon="4.79976">
        <ele>437.54</ele>
        <time>2015-01-17T10:09:34Z</time>
      </trkpt>
      <trkpt lat="44.87264" lon="4.79972">
        <ele>438.5</ele>
        <time>2015-01-17T10:09:36Z</time>
      </trkpt>
      <trkpt lat="44.87264" lon="4.7997">
        <ele>438.5</ele>
        <time>2015-01-17T10:09:37Z</time>
      </trkpt>
      <trkpt lat="44.87269" lon="4.79962">
        <ele>438.98</ele>
        <time>2015-01-17T10:09:44Z</time>
      </trkpt>
      <trkpt lat="44.8727" lon="4.79961">
        <ele>439.46</ele>
        <time>2015-01-17T10:09:45Z</time>
      </trkpt>
      <trkpt lat="44.87271" lon="4.7996">
        <ele>439.46</ele>
        <time>2015-01-17T10:09:46Z</time>
      </trkpt>
      <trkpt lat="44.87273" lon="4.79959">
        <ele>439.46</ele>
        <time>2015-01-17T10:09:47Z</time>
      </trkpt>
      <trkpt lat="44.87274" lon="4.79959">
        <ele>439.94</ele>
        <time>2015-01-17T10:09:48Z</time>
      </trkpt>
      <trkpt lat="44.87275" lon="4.79958">
        <ele>439.94</ele>
        <time>2015-01-17T10:09:49Z</time>
      </trkpt>
      <trkpt lat="44.87277" lon="4.79957">
        <ele>439.94</ele>
        <time>2015-01-17T10:09:50Z</time>
      </trkpt>
      <trkpt lat="44.87292" lon="4.79944">
        <ele>442.34</ele>
        <time>2015-01-17T10:09:59Z</time>
      </trkpt>
      <trkpt lat="44.87293" lon="4.79944">
        <ele>442.82</ele>
        <time>2015-01-17T10:10:00Z</time>
      </trkpt>
      <trkpt lat="44.87294" lon="4.79944">
        <ele>442.82</ele>
        <time>2015-01-17T10:10:01Z</time>
      </trkpt>
      <trkpt lat="44.87295" lon="4.79943">
        <ele>442.82</ele>
        <time>2015-01-17T10:10:02Z</time>
      </trkpt>
      <trkpt lat="44.87296" lon="4.79941">
        <ele>443.31</ele>
        <time>2015-01-17T10:10:03Z</time>
      </trkpt>
      <trkpt lat="44.87298" lon="4.79939">
        <ele>443.31</ele>
        <time>2015-01-17T10:10:04Z</time>
      </trkpt>
      <trkpt lat="44.87299" lon="4.79938">
        <ele>443.79</ele>
        <time>2015-01-17T10:10:05Z</time>
      </trkpt>
      <trkpt lat="44.8732" lon="4.79912">
        <ele>446.67</ele>
        <time>2015-01-17T10:10:21Z</time>
      </trkpt>
      <trkpt lat="44.87332" lon="4.79878">
        <ele>449.55</ele>
        <time>2015-01-17T10:10:39Z</time>
      </trkpt>
      <trkpt lat="44.87342" lon="4.79845">
        <ele>451.48</ele>
        <time>2015-01-17T10:10:56Z</time>
      </trkpt>
      <trkpt lat="44.87356" lon="4.79811">
        <ele>453.88</ele>
        <time>2015-01-17T10:11:13Z</time>
      </trkpt>
      <trkpt lat="44.87357" lon="4.79771">
        <ele>455.8</ele>
        <time>2015-01-17T10:11:29Z</time>
      </trkpt>
      <trkpt lat="44.87354" lon="4.79733">
        <ele>458.21</ele>
        <time>2015-01-17T10:11:43Z</time>
      </trkpt>
      <trkpt lat="44.87352" lon="4.79693">
        <ele>460.61</ele>
        <time>2015-01-17T10:12:00Z</time>
      </trkpt>
      <trkpt lat="44.87334" lon="4.79667">
        <ele>463.01</ele>
        <time>2015-01-17T10:12:15Z</time>
      </trkpt>
      <trkpt lat="44.87304" lon="4.79642">
        <ele>465.9</ele>
        <time>2015-01-17T10:12:36Z</time>
      </trkpt>
      <trkpt lat="44.87281" lon="4.79629">
        <ele>468.78</ele>
        <time>2015-01-17T10:12:51Z</time>
      </trkpt>
      <trkpt lat="44.87255" lon="4.7962">
        <ele>471.66</ele>
        <time>2015-01-17T10:13:08Z</time>
      </trkpt>
      <trkpt lat="44.87232" lon="4.79608">
        <ele>474.07</ele>
        <time>2015-01-17T10:13:23Z</time>
      </trkpt>
      <trkpt lat="44.87211" lon="4.79595">
        <ele>475.99</ele>
        <time>2015-01-17T10:13:37Z</time>
      </trkpt>
      <trkpt lat="44.87188" lon="4.79579">
        <ele>480.32</ele>
        <time>2015-01-17T10:13:53Z</time>
      </trkpt>
      <trkpt lat="44.87164" lon="4.79557">
        <ele>481.28</ele>
        <time>2015-01-17T10:14:11Z</time>
      </trkpt>
      <trkpt lat="44.87142" lon="4.79535">
        <ele>483.68</ele>
        <time>2015-01-17T10:14:28Z</time>
      </trkpt>
      <trkpt lat="44.87122" lon="4.79512">
        <ele>487.05</ele>
        <time>2015-01-17T10:14:44Z</time>
      </trkpt>
      <trkpt lat="44.87104" lon="4.79482">
        <ele>489.45</ele>
        <time>2015-01-17T10:15:02Z</time>
      </trkpt>
      <trkpt lat="44.87085" lon="4.79456">
        <ele>491.37</ele>
        <time>2015-01-17T10:15:19Z</time>
      </trkpt>
      <trkpt lat="44.8707" lon="4.79426">
        <ele>493.29</ele>
        <time>2015-01-17T10:15:35Z</time>
      </trkpt>
      <trkpt lat="44.87049" lon="4.79408">
        <ele>496.18</ele>
        <time>2015-01-17T10:15:50Z</time>
      </trkpt>
      <trkpt lat="44.87025" lon="4.794">
        <ele>499.06</ele>
        <time>2015-01-17T10:16:02Z</time>
      </trkpt>
      <trkpt lat="44.86991" lon="4.79409">
        <ele>501.95</ele>
        <time>2015-01-17T10:16:21Z</time>
      </trkpt>
      <trkpt lat="44.86989" lon="4.7941">
        <ele>502.43</ele>
        <time>2015-01-17T10:16:22Z</time>
      </trkpt>
      <trkpt lat="44.86988" lon="4.79412">
        <ele>502.43</ele>
        <time>2015-01-17T10:16:23Z</time>
      </trkpt>
      <trkpt lat="44.86987" lon="4.79412">
        <ele>502.43</ele>
        <time>2015-01-17T10:16:24Z</time>
      </trkpt>
      <trkpt lat="44.86985" lon="4.79413">
        <ele>502.43</ele>
        <time>2015-01-17T10:16:25Z</time>
      </trkpt>
      <trkpt lat="44.86983" lon="4.79413">
        <ele>502.91</ele>
        <time>2015-01-17T10:16:26Z</time>
      </trkpt>
      <trkpt lat="44.86982" lon="4.79412">
        <ele>502.91</ele>
        <time>2015-01-17T10:16:27Z</time>
      </trkpt>
      <trkpt lat="44.86981" lon="4.79411">
        <ele>502.91</ele>
        <time>2015-01-17T10:16:28Z</time>
      </trkpt>
      <trkpt lat="44.86979" lon="4.79409">
        <ele>503.39</ele>
        <time>2015-01-17T10:16:29Z</time>
      </trkpt>
      <trkpt lat="44.86978" lon="4.79408">
        <ele>503.39</ele>
        <time>2015-01-17T10:16:30Z</time>
      </trkpt>
      <trkpt lat="44.86977" lon="4.79407">
        <ele>503.39</ele>
        <time>2015-01-17T10:16:31Z</time>
      </trkpt>
      <trkpt lat="44.86972" lon="4.79396">
        <ele>503.87</ele>
        <time>2015-01-17T10:16:38Z</time>
      </trkpt>
      <trkpt lat="44.8697" lon="4.79388">
        <ele>504.35</ele>
        <time>2015-01-17T10:16:43Z</time>
      </trkpt>
      <trkpt lat="44.8697" lon="4.79386">
        <ele>504.35</ele>
        <time>2015-01-17T10:16:44Z</time>
      </trkpt>
      <trkpt lat="44.8697" lon="4.79385">
        <ele>504.35</ele>
        <time>2015-01-17T10:16:45Z</time>
      </trkpt>
      <trkpt lat="44.8697" lon="4.79383">
        <ele>504.35</ele>
        <time>2015-01-17T10:16:46Z</time>
      </trkpt>
      <trkpt lat="44.86969" lon="4.79381">
        <ele>504.35</ele>
        <time>2015-01-17T10:16:47Z</time>
      </trkpt>
      <trkpt lat="44.86969" lon="4.7938">
        <ele>504.35</ele>
        <time>2015-01-17T10:16:48Z</time>
      </trkpt>
      <trkpt lat="44.86968" lon="4.79378">
        <ele>504.35</ele>
        <time>2015-01-17T10:16:49Z</time>
      </trkpt>
      <trkpt lat="44.86967" lon="4.79376">
        <ele>504.83</ele>
        <time>2015-01-17T10:16:50Z</time>
      </trkpt>
      <trkpt lat="44.86966" lon="4.79375">
        <ele>504.83</ele>
        <time>2015-01-17T10:16:51Z</time>
      </trkpt>
      <trkpt lat="44.86965" lon="4.79373">
        <ele>504.83</ele>
        <time>2015-01-17T10:16:52Z</time>
      </trkpt>
      <trkpt lat="44.86965" lon="4.79371">
        <ele>504.83</ele>
        <time>2015-01-17T10:16:53Z</time>
      </trkpt>
      <trkpt lat="44.86964" lon="4.79369">
        <ele>504.83</ele>
        <time>2015-01-17T10:16:54Z</time>
      </trkpt>
      <trkpt lat="44.86964" lon="4.79367">
        <ele>504.83</ele>
        <time>2015-01-17T10:16:55Z</time>
      </trkpt>
      <trkpt lat="44.86963" lon="4.79365">
        <ele>504.83</ele>
        <time>2015-01-17T10:16:56Z</time>
      </trkpt>
      <trkpt lat="44.86953" lon="4.79336">
        <ele>506.27</ele>
        <time>2015-01-17T10:17:12Z</time>
      </trkpt>
      <trkpt lat="44.86951" lon="4.7933">
        <ele>506.75</ele>
        <time>2015-01-17T10:17:16Z</time>
      </trkpt>
      <trkpt lat="44.86946" lon="4.79323">
        <ele>507.71</ele>
        <time>2015-01-17T10:17:21Z</time>
      </trkpt>
      <trkpt lat="44.86946" lon="4.79322">
        <ele>507.71</ele>
        <time>2015-01-17T10:17:22Z</time>
      </trkpt>
      <trkpt lat="44.86945" lon="4.7932">
        <ele>507.71</ele>
        <time>2015-01-17T10:17:23Z</time>
      </trkpt>
      <trkpt lat="44.86944" lon="4.79319">
        <ele>507.71</ele>
        <time>2015-01-17T10:17:24Z</time>
      </trkpt>
      <trkpt lat="44.86943" lon="4.79317">
        <ele>508.19</ele>
        <time>2015-01-17T10:17:25Z</time>
      </trkpt>
      <trkpt lat="44.86942" lon="4.79315">
        <ele>508.19</ele>
        <time>2015-01-17T10:17:26Z</time>
      </trkpt>
      <trkpt lat="44.86941" lon="4.79313">
        <ele>508.67</ele>
        <time>2015-01-17T10:17:27Z</time>
      </trkpt>
      <trkpt lat="44.86925" lon="4.79285">
        <ele>510.6</ele>
        <time>2015-01-17T10:17:42Z</time>
      </trkpt>
      <trkpt lat="44.86915" lon="4.79253">
        <ele>512.04</ele>
        <time>2015-01-17T10:17:59Z</time>
      </trkpt>
      <trkpt lat="44.86913" lon="4.79249">
        <ele>512.52</ele>
        <time>2015-01-17T10:18:24Z</time>
      </trkpt>
      <trkpt lat="44.86911" lon="4.79246">
        <ele>512.52</ele>
        <time>2015-01-17T10:18:27Z</time>
      </trkpt>
      <trkpt lat="44.86911" lon="4.79244">
        <ele>513</ele>
        <time>2015-01-17T10:18:28Z</time>
      </trkpt>
      <trkpt lat="44.86893" lon="4.79211">
        <ele>515.4</ele>
        <time>2015-01-17T10:18:49Z</time>
      </trkpt>
      <trkpt lat="44.86873" lon="4.79185">
        <ele>516.85</ele>
        <time>2015-01-17T10:19:06Z</time>
      </trkpt>
      <trkpt lat="44.86863" lon="4.79156">
        <ele>518.29</ele>
        <time>2015-01-17T10:19:19Z</time>
      </trkpt>
      <trkpt lat="44.86852" lon="4.79116">
        <ele>521.65</ele>
        <time>2015-01-17T10:19:36Z</time>
      </trkpt>
      <trkpt lat="44.86845" lon="4.79082">
        <ele>522.61</ele>
        <time>2015-01-17T10:19:50Z</time>
      </trkpt>
      <trkpt lat="44.86834" lon="4.7905">
        <ele>523.09</ele>
        <time>2015-01-17T10:20:03Z</time>
      </trkpt>
      <trkpt lat="44.8683" lon="4.79017">
        <ele>524.54</ele>
        <time>2015-01-17T10:20:15Z</time>
      </trkpt>
      <trkpt lat="44.86835" lon="4.78964">
        <ele>525.5</ele>
        <time>2015-01-17T10:20:31Z</time>
      </trkpt>
      <trkpt lat="44.86847" lon="4.78919">
        <ele>525.98</ele>
        <time>2015-01-17T10:20:43Z</time>
      </trkpt>
      <trkpt lat="44.86861" lon="4.78883">
        <ele>526.46</ele>
        <time>2015-01-17T10:20:51Z</time>
      </trkpt>
      <trkpt lat="44.86862" lon="4.78879">
        <ele>526.46</ele>
        <time>2015-01-17T10:20:52Z</time>
      </trkpt>
      <trkpt lat="44.86862" lon="4.78872">
        <ele>525.98</ele>
        <time>2015-01-17T10:20:54Z</time>
      </trkpt>
      <trkpt lat="44.86863" lon="4.78869">
        <ele>525.98</ele>
        <time>2015-01-17T10:20:55Z</time>
      </trkpt>
      <trkpt lat="44.86869" lon="4.78827">
        <ele>525.98</ele>
        <time>2015-01-17T10:21:07Z</time>
      </trkpt>
      <trkpt lat="44.86871" lon="4.78824">
        <ele>525.98</ele>
        <time>2015-01-17T10:21:08Z</time>
      </trkpt>
      <trkpt lat="44.86873" lon="4.78822">
        <ele>525.98</ele>
        <time>2015-01-17T10:21:09Z</time>
      </trkpt>
      <trkpt lat="44.869" lon="4.78811">
        <ele>526.94</ele>
        <time>2015-01-17T10:21:21Z</time>
      </trkpt>
      <trkpt lat="44.86923" lon="4.78793">
        <ele>527.9</ele>
        <time>2015-01-17T10:21:32Z</time>
      </trkpt>
      <trkpt lat="44.86949" lon="4.78773">
        <ele>528.38</ele>
        <time>2015-01-17T10:21:44Z</time>
      </trkpt>
      <trkpt lat="44.86961" lon="4.78762">
        <ele>528.86</ele>
        <time>2015-01-17T10:21:49Z</time>
      </trkpt>
      <trkpt lat="44.86962" lon="4.78759">
        <ele>528.86</ele>
        <time>2015-01-17T10:21:50Z</time>
      </trkpt>
      <trkpt lat="44.86964" lon="4.78756">
        <ele>529.34</ele>
        <time>2015-01-17T10:21:51Z</time>
      </trkpt>
      <trkpt lat="44.86996" lon="4.7872">
        <ele>530.3</ele>
        <time>2015-01-17T10:22:05Z</time>
      </trkpt>
      <trkpt lat="44.87027" lon="4.78676">
        <ele>531.75</ele>
        <time>2015-01-17T10:22:22Z</time>
      </trkpt>
      <trkpt lat="44.8706" lon="4.78649">
        <ele>532.71</ele>
        <time>2015-01-17T10:22:36Z</time>
      </trkpt>
      <trkpt lat="44.87095" lon="4.78623">
        <ele>533.67</ele>
        <time>2015-01-17T10:22:51Z</time>
      </trkpt>
      <trkpt lat="44.87125" lon="4.78616">
        <ele>534.15</ele>
        <time>2015-01-17T10:23:01Z</time>
      </trkpt>
      <trkpt lat="44.87159" lon="4.78603">
        <ele>534.63</ele>
        <time>2015-01-17T10:23:14Z</time>
      </trkpt>
      <trkpt lat="44.87186" lon="4.78571">
        <ele>534.15</ele>
        <time>2015-01-17T10:23:24Z</time>
      </trkpt>
      <trkpt lat="44.87198" lon="4.78565">
        <ele>533.19</ele>
        <time>2015-01-17T10:23:27Z</time>
      </trkpt>
      <trkpt lat="44.87202" lon="4.78565">
        <ele>532.23</ele>
        <time>2015-01-17T10:23:28Z</time>
      </trkpt>
      <trkpt lat="44.87205" lon="4.78566">
        <ele>531.75</ele>
        <time>2015-01-17T10:23:29Z</time>
      </trkpt>
      <trkpt lat="44.87209" lon="4.78565">
        <ele>531.27</ele>
        <time>2015-01-17T10:23:30Z</time>
      </trkpt>
      <trkpt lat="44.87213" lon="4.78564">
        <ele>531.27</ele>
        <time>2015-01-17T10:23:31Z</time>
      </trkpt>
      <trkpt lat="44.87217" lon="4.78563">
        <ele>530.79</ele>
        <time>2015-01-17T10:23:32Z</time>
      </trkpt>
      <trkpt lat="44.87227" lon="4.78559">
        <ele>530.3</ele>
        <time>2015-01-17T10:23:34Z</time>
      </trkpt>
      <trkpt lat="44.87231" lon="4.78555">
        <ele>529.82</ele>
        <time>2015-01-17T10:23:35Z</time>
      </trkpt>
      <trkpt lat="44.87235" lon="4.78551">
        <ele>529.82</ele>
        <time>2015-01-17T10:23:36Z</time>
      </trkpt>
      <trkpt lat="44.87238" lon="4.78546">
        <ele>529.34</ele>
        <time>2015-01-17T10:23:37Z</time>
      </trkpt>
      <trkpt lat="44.87241" lon="4.7854">
        <ele>528.86</ele>
        <time>2015-01-17T10:23:38Z</time>
      </trkpt>
      <trkpt lat="44.87244" lon="4.78535">
        <ele>528.86</ele>
        <time>2015-01-17T10:23:39Z</time>
      </trkpt>
      <trkpt lat="44.87274" lon="4.78473">
        <ele>526.94</ele>
        <time>2015-01-17T10:23:50Z</time>
      </trkpt>
      <trkpt lat="44.87276" lon="4.78467">
        <ele>526.94</ele>
        <time>2015-01-17T10:23:51Z</time>
      </trkpt>
      <trkpt lat="44.87278" lon="4.78462">
        <ele>526.94</ele>
        <time>2015-01-17T10:23:52Z</time>
      </trkpt>
      <trkpt lat="44.8728" lon="4.78457">
        <ele>526.46</ele>
        <time>2015-01-17T10:23:53Z</time>
      </trkpt>
      <trkpt lat="44.87282" lon="4.78452">
        <ele>526.46</ele>
        <time>2015-01-17T10:23:54Z</time>
      </trkpt>
      <trkpt lat="44.87285" lon="4.78429">
        <ele>526.46</ele>
        <time>2015-01-17T10:24:02Z</time>
      </trkpt>
      <trkpt lat="44.87285" lon="4.78424">
        <ele>526.46</ele>
        <time>2015-01-17T10:24:25Z</time>
      </trkpt>
      <trkpt lat="44.87286" lon="4.78422">
        <ele>526.46</ele>
        <time>2015-01-17T10:24:42Z</time>
      </trkpt>
      <trkpt lat="44.87289" lon="4.7843">
        <ele>525.5</ele>
        <time>2015-01-17T10:24:47Z</time>
      </trkpt>
      <trkpt lat="44.87288" lon="4.78437">
        <ele>525.02</ele>
        <time>2015-01-17T10:25:04Z</time>
      </trkpt>
      <trkpt lat="44.87289" lon="4.78441">
        <ele>525.02</ele>
        <time>2015-01-17T10:25:28Z</time>
      </trkpt>
      <trkpt lat="44.87289" lon="4.78442">
        <ele>525.02</ele>
        <time>2015-01-17T10:26:02Z</time>
      </trkpt>
      <trkpt lat="44.87288" lon="4.78441">
        <ele>525.02</ele>
        <time>2015-01-17T10:26:29Z</time>
      </trkpt>
      <trkpt lat="44.87288" lon="4.7844">
        <ele>525.02</ele>
        <time>2015-01-17T10:27:00Z</time>
      </trkpt>
      <trkpt lat="44.87286" lon="4.78441">
        <ele>525.5</ele>
        <time>2015-01-17T10:27:25Z</time>
      </trkpt>
      <trkpt lat="44.87285" lon="4.78438">
        <ele>525.98</ele>
        <time>2015-01-17T10:27:28Z</time>
      </trkpt>
      <trkpt lat="44.87285" lon="4.78423">
        <ele>526.46</ele>
        <time>2015-01-17T10:27:41Z</time>
      </trkpt>
      <trkpt lat="44.87285" lon="4.78405">
        <ele>526.94</ele>
        <time>2015-01-17T10:27:48Z</time>
      </trkpt>
      <trkpt lat="44.87287" lon="4.78365">
        <ele>527.9</ele>
        <time>2015-01-17T10:27:58Z</time>
      </trkpt>
      <trkpt lat="44.87298" lon="4.78326">
        <ele>528.38</ele>
        <time>2015-01-17T10:28:09Z</time>
      </trkpt>
      <trkpt lat="44.87299" lon="4.78324">
        <ele>528.38</ele>
        <time>2015-01-17T10:28:10Z</time>
      </trkpt>
      <trkpt lat="44.87321" lon="4.78335">
        <ele>529.82</ele>
        <time>2015-01-17T10:28:23Z</time>
      </trkpt>
      <trkpt lat="44.87352" lon="4.78344">
        <ele>531.27</ele>
        <time>2015-01-17T10:28:34Z</time>
      </trkpt>
      <trkpt lat="44.87364" lon="4.7835">
        <ele>531.75</ele>
        <time>2015-01-17T10:28:38Z</time>
      </trkpt>
      <trkpt lat="44.87364" lon="4.78333">
        <ele>532.23</ele>
        <time>2015-01-17T10:28:47Z</time>
      </trkpt>
      <trkpt lat="44.87367" lon="4.7832">
        <ele>532.23</ele>
        <time>2015-01-17T10:28:50Z</time>
      </trkpt>
      <trkpt lat="44.87374" lon="4.78301">
        <ele>533.19</ele>
        <time>2015-01-17T10:28:54Z</time>
      </trkpt>
      <trkpt lat="44.87391" lon="4.78274">
        <ele>533.19</ele>
        <time>2015-01-17T10:29:00Z</time>
      </trkpt>
      <trkpt lat="44.87407" lon="4.7827">
        <ele>533.19</ele>
        <time>2015-01-17T10:29:04Z</time>
      </trkpt>
      <trkpt lat="44.87419" lon="4.78273">
        <ele>533.67</ele>
        <time>2015-01-17T10:29:08Z</time>
      </trkpt>
      <trkpt lat="44.87443" lon="4.78268">
        <ele>534.63</ele>
        <time>2015-01-17T10:29:16Z</time>
      </trkpt>
      <trkpt lat="44.87456" lon="4.78263">
        <ele>534.63</ele>
        <time>2015-01-17T10:29:22Z</time>
      </trkpt>
      <trkpt lat="44.8746" lon="4.78256">
        <ele>533.67</ele>
        <time>2015-01-17T10:29:34Z</time>
      </trkpt>
      <trkpt lat="44.8746" lon="4.78255">
        <ele>533.67</ele>
        <time>2015-01-17T10:29:37Z</time>
      </trkpt>
      <trkpt lat="44.87465" lon="4.78241">
        <ele>534.15</ele>
        <time>2015-01-17T10:29:41Z</time>
      </trkpt>
      <trkpt lat="44.87481" lon="4.78198">
        <ele>534.15</ele>
        <time>2015-01-17T10:29:49Z</time>
      </trkpt>
      <trkpt lat="44.87487" lon="4.78172">
        <ele>531.27</ele>
        <time>2015-01-17T10:29:53Z</time>
      </trkpt>
      <trkpt lat="44.87488" lon="4.78167">
        <ele>530.79</ele>
        <time>2015-01-17T10:29:54Z</time>
      </trkpt>
      <trkpt lat="44.87515" lon="4.78137">
        <ele>529.34</ele>
        <time>2015-01-17T10:30:00Z</time>
      </trkpt>
      <trkpt lat="44.87536" lon="4.78119">
        <ele>525.98</ele>
        <time>2015-01-17T10:30:05Z</time>
      </trkpt>
      <trkpt lat="44.87565" lon="4.78115">
        <ele>524.06</ele>
        <time>2015-01-17T10:30:11Z</time>
      </trkpt>
      <trkpt lat="44.87578" lon="4.78115">
        <ele>520.69</ele>
        <time>2015-01-17T10:30:14Z</time>
      </trkpt>
      <trkpt lat="44.87579" lon="4.78114">
        <ele>520.69</ele>
        <time>2015-01-17T10:30:15Z</time>
      </trkpt>
      <trkpt lat="44.87586" lon="4.7811">
        <ele>520.21</ele>
        <time>2015-01-17T10:30:19Z</time>
      </trkpt>
      <trkpt lat="44.87603" lon="4.78117">
        <ele>516.37</ele>
        <time>2015-01-17T10:30:25Z</time>
      </trkpt>
      <trkpt lat="44.87608" lon="4.78116">
        <ele>515.4</ele>
        <time>2015-01-17T10:30:26Z</time>
      </trkpt>
      <trkpt lat="44.87631" lon="4.78117">
        <ele>508.67</ele>
        <time>2015-01-17T10:30:31Z</time>
      </trkpt>
      <trkpt lat="44.87633" lon="4.78117">
        <ele>507.71</ele>
        <time>2015-01-17T10:30:33Z</time>
      </trkpt>
      <trkpt lat="44.87634" lon="4.78119">
        <ele>507.71</ele>
        <time>2015-01-17T10:30:56Z</time>
      </trkpt>
      <trkpt lat="44.87637" lon="4.7812">
        <ele>507.71</ele>
        <time>2015-01-17T10:31:20Z</time>
      </trkpt>
      <trkpt lat="44.87637" lon="4.78121">
        <ele>507.71</ele>
        <time>2015-01-17T10:31:22Z</time>
      </trkpt>
      <trkpt lat="44.8763" lon="4.78124">
        <ele>509.16</ele>
        <time>2015-01-17T10:31:36Z</time>
      </trkpt>
      <trkpt lat="44.87623" lon="4.78124">
        <ele>510.6</ele>
        <time>2015-01-17T10:31:56Z</time>
      </trkpt>
      <trkpt lat="44.87618" lon="4.78125">
        <ele>511.08</ele>
        <time>2015-01-17T10:32:10Z</time>
      </trkpt>
      <trkpt lat="44.87608" lon="4.78124">
        <ele>514.44</ele>
        <time>2015-01-17T10:32:25Z</time>
      </trkpt>
      <trkpt lat="44.87607" lon="4.78119">
        <ele>515.4</ele>
        <time>2015-01-17T10:32:34Z</time>
      </trkpt>
      <trkpt lat="44.87612" lon="4.78117">
        <ele>514.44</ele>
        <time>2015-01-17T10:32:36Z</time>
      </trkpt>
      <trkpt lat="44.87634" lon="4.78114">
        <ele>509.64</ele>
        <time>2015-01-17T10:32:40Z</time>
      </trkpt>
      <trkpt lat="44.87646" lon="4.78113">
        <ele>506.27</ele>
        <time>2015-01-17T10:32:43Z</time>
      </trkpt>
      <trkpt lat="44.87647" lon="4.78113">
        <ele>505.31</ele>
        <time>2015-01-17T10:32:45Z</time>
      </trkpt>
      <trkpt lat="44.87648" lon="4.78116">
        <ele>505.79</ele>
        <time>2015-01-17T10:32:56Z</time>
      </trkpt>
      <trkpt lat="44.87651" lon="4.78119">
        <ele>505.31</ele>
        <time>2015-01-17T10:33:26Z</time>
      </trkpt>
      <trkpt lat="44.87653" lon="4.78116">
        <ele>504.83</ele>
        <time>2015-01-17T10:33:53Z</time>
      </trkpt>
      <trkpt lat="44.8765" lon="4.78116">
        <ele>504.83</ele>
        <time>2015-01-17T10:34:08Z</time>
      </trkpt>
      <trkpt lat="44.87652" lon="4.78117">
        <ele>504.83</ele>
        <time>2015-01-17T10:34:12Z</time>
      </trkpt>
      <trkpt lat="44.87667" lon="4.78115">
        <ele>502.91</ele>
        <time>2015-01-17T10:34:15Z</time>
      </trkpt>
      <trkpt lat="44.87692" lon="4.78122">
        <ele>494.74</ele>
        <time>2015-01-17T10:34:19Z</time>
      </trkpt>
      <trkpt lat="44.87702" lon="4.78123">
        <ele>490.89</ele>
        <time>2015-01-17T10:34:21Z</time>
      </trkpt>
      <trkpt lat="44.87705" lon="4.78123">
        <ele>488.97</ele>
        <time>2015-01-17T10:34:22Z</time>
      </trkpt>
      <trkpt lat="44.87712" lon="4.78122">
        <ele>485.12</ele>
        <time>2015-01-17T10:34:24Z</time>
      </trkpt>
      <trkpt lat="44.87722" lon="4.7813">
        <ele>480.32</ele>
        <time>2015-01-17T10:34:28Z</time>
      </trkpt>
      <trkpt lat="44.87728" lon="4.7813">
        <ele>476.47</ele>
        <time>2015-01-17T10:34:31Z</time>
      </trkpt>
      <trkpt lat="44.87731" lon="4.78132">
        <ele>474.55</ele>
        <time>2015-01-17T10:34:34Z</time>
      </trkpt>
      <trkpt lat="44.87742" lon="4.78141">
        <ele>472.14</ele>
        <time>2015-01-17T10:34:38Z</time>
      </trkpt>
      <trkpt lat="44.87745" lon="4.78144">
        <ele>471.18</ele>
        <time>2015-01-17T10:34:39Z</time>
      </trkpt>
      <trkpt lat="44.87752" lon="4.78146">
        <ele>469.26</ele>
        <time>2015-01-17T10:34:41Z</time>
      </trkpt>
      <trkpt lat="44.87756" lon="4.78146">
        <ele>465.9</ele>
        <time>2015-01-17T10:34:42Z</time>
      </trkpt>
      <trkpt lat="44.8776" lon="4.78146">
        <ele>465.42</ele>
        <time>2015-01-17T10:34:43Z</time>
      </trkpt>
      <trkpt lat="44.87764" lon="4.78146">
        <ele>464.93</ele>
        <time>2015-01-17T10:34:44Z</time>
      </trkpt>
      <trkpt lat="44.87766" lon="4.78145">
        <ele>464.45</ele>
        <time>2015-01-17T10:34:45Z</time>
      </trkpt>
      <trkpt lat="44.87765" lon="4.78149">
        <ele>463.49</ele>
        <time>2015-01-17T10:35:00Z</time>
      </trkpt>
      <trkpt lat="44.87766" lon="4.78151">
        <ele>463.49</ele>
        <time>2015-01-17T10:35:24Z</time>
      </trkpt>
      <trkpt lat="44.87766" lon="4.7815">
        <ele>463.49</ele>
        <time>2015-01-17T10:36:04Z</time>
      </trkpt>
      <trkpt lat="44.87765" lon="4.7815">
        <ele>463.49</ele>
        <time>2015-01-17T10:36:30Z</time>
      </trkpt>
      <trkpt lat="44.87769" lon="4.78146">
        <ele>463.49</ele>
        <time>2015-01-17T10:36:47Z</time>
      </trkpt>
      <trkpt lat="44.8777" lon="4.78147">
        <ele>463.01</ele>
        <time>2015-01-17T10:36:48Z</time>
      </trkpt>
      <trkpt lat="44.8778" lon="4.78153">
        <ele>462.53</ele>
        <time>2015-01-17T10:36:51Z</time>
      </trkpt>
      <trkpt lat="44.8779" lon="4.78159">
        <ele>461.09</ele>
        <time>2015-01-17T10:36:53Z</time>
      </trkpt>
      <trkpt lat="44.87808" lon="4.78163">
        <ele>456.28</ele>
        <time>2015-01-17T10:36:56Z</time>
      </trkpt>
      <trkpt lat="44.87818" lon="4.78161">
        <ele>451.96</ele>
        <time>2015-01-17T10:36:58Z</time>
      </trkpt>
      <trkpt lat="44.87824" lon="4.7816">
        <ele>450.52</ele>
        <time>2015-01-17T10:36:59Z</time>
      </trkpt>
      <trkpt lat="44.87843" lon="4.78152">
        <ele>443.79</ele>
        <time>2015-01-17T10:37:02Z</time>
      </trkpt>
      <trkpt lat="44.87855" lon="4.78152">
        <ele>438.5</ele>
        <time>2015-01-17T10:37:05Z</time>
      </trkpt>
      <trkpt lat="44.87856" lon="4.78155">
        <ele>437.54</ele>
        <time>2015-01-17T10:37:10Z</time>
      </trkpt>
      <trkpt lat="44.87854" lon="4.78155">
        <ele>439.46</ele>
        <time>2015-01-17T10:37:12Z</time>
      </trkpt>
      <trkpt lat="44.87847" lon="4.78161">
        <ele>442.34</ele>
        <time>2015-01-17T10:37:23Z</time>
      </trkpt>
      <trkpt lat="44.87841" lon="4.78166">
        <ele>445.71</ele>
        <time>2015-01-17T10:37:36Z</time>
      </trkpt>
      <trkpt lat="44.8783" lon="4.78169">
        <ele>447.63</ele>
        <time>2015-01-17T10:37:51Z</time>
      </trkpt>
      <trkpt lat="44.87825" lon="4.78167">
        <ele>447.63</ele>
        <time>2015-01-17T10:38:11Z</time>
      </trkpt>
      <trkpt lat="44.87823" lon="4.78168">
        <ele>447.63</ele>
        <time>2015-01-17T10:38:37Z</time>
      </trkpt>
      <trkpt lat="44.87825" lon="4.78167">
        <ele>447.63</ele>
        <time>2015-01-17T10:38:49Z</time>
      </trkpt>
      <trkpt lat="44.87824" lon="4.7817">
        <ele>447.63</ele>
        <time>2015-01-17T10:39:11Z</time>
      </trkpt>
      <trkpt lat="44.87823" lon="4.78168">
        <ele>447.63</ele>
        <time>2015-01-17T10:39:38Z</time>
      </trkpt>
      <trkpt lat="44.87824" lon="4.78165">
        <ele>447.15</ele>
        <time>2015-01-17T10:40:00Z</time>
      </trkpt>
      <trkpt lat="44.87828" lon="4.78161">
        <ele>445.71</ele>
        <time>2015-01-17T10:40:03Z</time>
      </trkpt>
      <trkpt lat="44.87835" lon="4.78153">
        <ele>442.34</ele>
        <time>2015-01-17T10:40:08Z</time>
      </trkpt>
      <trkpt lat="44.87843" lon="4.78149">
        <ele>440.42</ele>
        <time>2015-01-17T10:40:12Z</time>
      </trkpt>
      <trkpt lat="44.87851" lon="4.7815">
        <ele>439.94</ele>
        <time>2015-01-17T10:40:20Z</time>
      </trkpt>
      <trkpt lat="44.87843" lon="4.7816">
        <ele>443.31</ele>
        <time>2015-01-17T10:40:33Z</time>
      </trkpt>
      <trkpt lat="44.87835" lon="4.78169">
        <ele>446.67</ele>
        <time>2015-01-17T10:40:47Z</time>
      </trkpt>
      <trkpt lat="44.87825" lon="4.7817">
        <ele>449.55</ele>
        <time>2015-01-17T10:41:01Z</time>
      </trkpt>
      <trkpt lat="44.87819" lon="4.78173">
        <ele>452.44</ele>
        <time>2015-01-17T10:41:11Z</time>
      </trkpt>
      <trkpt lat="44.87811" lon="4.78172">
        <ele>455.32</ele>
        <time>2015-01-17T10:41:24Z</time>
      </trkpt>
      <trkpt lat="44.87803" lon="4.78171">
        <ele>457.72</ele>
        <time>2015-01-17T10:41:39Z</time>
      </trkpt>
      <trkpt lat="44.87802" lon="4.78164">
        <ele>457.72</ele>
        <time>2015-01-17T10:41:47Z</time>
      </trkpt>
      <trkpt lat="44.87813" lon="4.78161">
        <ele>457.24</ele>
        <time>2015-01-17T10:41:51Z</time>
      </trkpt>
      <trkpt lat="44.87828" lon="4.78157">
        <ele>449.07</ele>
        <time>2015-01-17T10:41:54Z</time>
      </trkpt>
      <trkpt lat="44.87834" lon="4.78154">
        <ele>445.23</ele>
        <time>2015-01-17T10:41:55Z</time>
      </trkpt>
      <trkpt lat="44.87845" lon="4.78147">
        <ele>442.34</ele>
        <time>2015-01-17T10:41:58Z</time>
      </trkpt>
      <trkpt lat="44.87846" lon="4.78146">
        <ele>442.34</ele>
        <time>2015-01-17T10:41:59Z</time>
      </trkpt>
      <trkpt lat="44.87849" lon="4.78154">
        <ele>442.34</ele>
        <time>2015-01-17T10:42:11Z</time>
      </trkpt>
      <trkpt lat="44.87843" lon="4.78164">
        <ele>444.75</ele>
        <time>2015-01-17T10:42:24Z</time>
      </trkpt>
      <trkpt lat="44.87837" lon="4.78167">
        <ele>446.19</ele>
        <time>2015-01-17T10:42:39Z</time>
      </trkpt>
      <trkpt lat="44.87836" lon="4.78164">
        <ele>446.67</ele>
        <time>2015-01-17T10:42:49Z</time>
      </trkpt>
      <trkpt lat="44.87831" lon="4.78162">
        <ele>446.19</ele>
        <time>2015-01-17T10:43:02Z</time>
      </trkpt>
      <trkpt lat="44.8783" lon="4.78162">
        <ele>445.23</ele>
        <time>2015-01-17T10:43:18Z</time>
      </trkpt>
      <trkpt lat="44.87833" lon="4.78155">
        <ele>443.79</ele>
        <time>2015-01-17T10:43:41Z</time>
      </trkpt>
      <trkpt lat="44.87842" lon="4.7815">
        <ele>442.34</ele>
        <time>2015-01-17T10:43:53Z</time>
      </trkpt>
      <trkpt lat="44.87843" lon="4.7815">
        <ele>442.34</ele>
        <time>2015-01-17T10:43:55Z</time>
      </trkpt>
      <trkpt lat="44.87862" lon="4.78148">
        <ele>439.46</ele>
        <time>2015-01-17T10:44:00Z</time>
      </trkpt>
      <trkpt lat="44.87886" lon="4.78146">
        <ele>435.13</ele>
        <time>2015-01-17T10:44:03Z</time>
      </trkpt>
      <trkpt lat="44.87902" lon="4.78149">
        <ele>432.25</ele>
        <time>2015-01-17T10:44:05Z</time>
      </trkpt>
      <trkpt lat="44.8791" lon="4.78157">
        <ele>429.37</ele>
        <time>2015-01-17T10:44:07Z</time>
      </trkpt>
      <trkpt lat="44.87908" lon="4.78168">
        <ele>426</ele>
        <time>2015-01-17T10:44:09Z</time>
      </trkpt>
      <trkpt lat="44.87902" lon="4.78178">
        <ele>423.6</ele>
        <time>2015-01-17T10:44:11Z</time>
      </trkpt>
      <trkpt lat="44.87892" lon="4.78204">
        <ele>418.31</ele>
        <time>2015-01-17T10:44:16Z</time>
      </trkpt>
      <trkpt lat="44.87894" lon="4.7821">
        <ele>414.95</ele>
        <time>2015-01-17T10:44:18Z</time>
      </trkpt>
      <trkpt lat="44.87899" lon="4.78211">
        <ele>412.06</ele>
        <time>2015-01-17T10:44:21Z</time>
      </trkpt>
      <trkpt lat="44.87898" lon="4.78212">
        <ele>412.06</ele>
        <time>2015-01-17T10:44:29Z</time>
      </trkpt>
      <trkpt lat="44.87911" lon="4.78213">
        <ele>408.7</ele>
        <time>2015-01-17T10:44:35Z</time>
      </trkpt>
      <trkpt lat="44.87918" lon="4.78218">
        <ele>404.37</ele>
        <time>2015-01-17T10:44:38Z</time>
      </trkpt>
      <trkpt lat="44.87927" lon="4.78224">
        <ele>401.49</ele>
        <time>2015-01-17T10:44:41Z</time>
      </trkpt>
      <trkpt lat="44.87928" lon="4.78229">
        <ele>401.01</ele>
        <time>2015-01-17T10:44:42Z</time>
      </trkpt>
      <trkpt lat="44.87928" lon="4.78234">
        <ele>401.01</ele>
        <time>2015-01-17T10:44:43Z</time>
      </trkpt>
      <trkpt lat="44.87928" lon="4.78237">
        <ele>401.01</ele>
        <time>2015-01-17T10:44:44Z</time>
      </trkpt>
      <trkpt lat="44.87929" lon="4.78237">
        <ele>401.01</ele>
        <time>2015-01-17T10:44:45Z</time>
      </trkpt>
      <trkpt lat="44.8793" lon="4.78235">
        <ele>400.53</ele>
        <time>2015-01-17T10:44:46Z</time>
      </trkpt>
      <trkpt lat="44.8793" lon="4.78232">
        <ele>400.05</ele>
        <time>2015-01-17T10:44:47Z</time>
      </trkpt>
      <trkpt lat="44.87929" lon="4.78231">
        <ele>400.05</ele>
        <time>2015-01-17T10:44:48Z</time>
      </trkpt>
      <trkpt lat="44.87928" lon="4.7823">
        <ele>400.05</ele>
        <time>2015-01-17T10:44:49Z</time>
      </trkpt>
      <trkpt lat="44.87927" lon="4.78231">
        <ele>400.53</ele>
        <time>2015-01-17T10:44:50Z</time>
      </trkpt>
      <trkpt lat="44.87927" lon="4.78232">
        <ele>400.53</ele>
        <time>2015-01-17T10:44:51Z</time>
      </trkpt>
      <trkpt lat="44.87928" lon="4.78234">
        <ele>400.53</ele>
        <time>2015-01-17T10:44:52Z</time>
      </trkpt>
      <trkpt lat="44.87929" lon="4.78235">
        <ele>400.53</ele>
        <time>2015-01-17T10:44:53Z</time>
      </trkpt>
      <trkpt lat="44.8793" lon="4.78234">
        <ele>400.53</ele>
        <time>2015-01-17T10:44:54Z</time>
      </trkpt>
      <trkpt lat="44.8793" lon="4.78232">
        <ele>400.53</ele>
        <time>2015-01-17T10:44:55Z</time>
      </trkpt>
      <trkpt lat="44.87931" lon="4.78236">
        <ele>400.53</ele>
        <time>2015-01-17T10:45:08Z</time>
      </trkpt>
      <trkpt lat="44.87934" lon="4.78238">
        <ele>400.53</ele>
        <time>2015-01-17T10:45:24Z</time>
      </trkpt>
      <trkpt lat="44.87936" lon="4.78234">
        <ele>400.53</ele>
        <time>2015-01-17T10:45:55Z</time>
      </trkpt>
      <trkpt lat="44.87934" lon="4.78234">
        <ele>401.01</ele>
        <time>2015-01-17T10:46:18Z</time>
      </trkpt>
      <trkpt lat="44.87937" lon="4.78232">
        <ele>401.01</ele>
        <time>2015-01-17T10:46:35Z</time>
      </trkpt>
      <trkpt lat="44.87938" lon="4.78232">
        <ele>401.49</ele>
        <time>2015-01-17T10:46:48Z</time>
      </trkpt>
      <trkpt lat="44.87938" lon="4.78234">
        <ele>401.49</ele>
        <time>2015-01-17T10:46:49Z</time>
      </trkpt>
      <trkpt lat="44.87939" lon="4.78235">
        <ele>401.97</ele>
        <time>2015-01-17T10:46:50Z</time>
      </trkpt>
      <trkpt lat="44.8794" lon="4.78237">
        <ele>401.49</ele>
        <time>2015-01-17T10:46:51Z</time>
      </trkpt>
      <trkpt lat="44.87942" lon="4.78239">
        <ele>401.49</ele>
        <time>2015-01-17T10:46:52Z</time>
      </trkpt>
      <trkpt lat="44.87944" lon="4.7824">
        <ele>401.49</ele>
        <time>2015-01-17T10:46:53Z</time>
      </trkpt>
      <trkpt lat="44.87946" lon="4.78241">
        <ele>401.49</ele>
        <time>2015-01-17T10:46:54Z</time>
      </trkpt>
      <trkpt lat="44.87948" lon="4.78242">
        <ele>401.01</ele>
        <time>2015-01-17T10:46:55Z</time>
      </trkpt>
      <trkpt lat="44.87951" lon="4.78243">
        <ele>401.01</ele>
        <time>2015-01-17T10:46:56Z</time>
      </trkpt>
      <trkpt lat="44.87984" lon="4.78248">
        <ele>399.57</ele>
        <time>2015-01-17T10:47:04Z</time>
      </trkpt>
      <trkpt lat="44.88004" lon="4.78255">
        <ele>398.6</ele>
        <time>2015-01-17T10:47:08Z</time>
      </trkpt>
      <trkpt lat="44.88063" lon="4.78292">
        <ele>395.24</ele>
        <time>2015-01-17T10:47:19Z</time>
      </trkpt>
      <trkpt lat="44.88073" lon="4.78304">
        <ele>394.76</ele>
        <time>2015-01-17T10:47:21Z</time>
      </trkpt>
      <trkpt lat="44.88106" lon="4.78356">
        <ele>391.87</ele>
        <time>2015-01-17T10:47:28Z</time>
      </trkpt>
      <trkpt lat="44.88122" lon="4.78388">
        <ele>390.43</ele>
        <time>2015-01-17T10:47:32Z</time>
      </trkpt>
      <trkpt lat="44.88125" lon="4.78397">
        <ele>389.95</ele>
        <time>2015-01-17T10:47:33Z</time>
      </trkpt>
      <trkpt lat="44.88127" lon="4.78406">
        <ele>389.47</ele>
        <time>2015-01-17T10:47:34Z</time>
      </trkpt>
      <trkpt lat="44.88128" lon="4.78417">
        <ele>388.99</ele>
        <time>2015-01-17T10:47:35Z</time>
      </trkpt>
      <trkpt lat="44.88128" lon="4.78427">
        <ele>388.51</ele>
        <time>2015-01-17T10:47:36Z</time>
      </trkpt>
      <trkpt lat="44.88129" lon="4.78437">
        <ele>388.03</ele>
        <time>2015-01-17T10:47:37Z</time>
      </trkpt>
      <trkpt lat="44.8813" lon="4.78448">
        <ele>387.55</ele>
        <time>2015-01-17T10:47:38Z</time>
      </trkpt>
      <trkpt lat="44.88132" lon="4.78457">
        <ele>387.07</ele>
        <time>2015-01-17T10:47:39Z</time>
      </trkpt>
      <trkpt lat="44.88136" lon="4.78465">
        <ele>386.59</ele>
        <time>2015-01-17T10:47:40Z</time>
      </trkpt>
      <trkpt lat="44.88142" lon="4.7847">
        <ele>386.11</ele>
        <time>2015-01-17T10:47:41Z</time>
      </trkpt>
      <trkpt lat="44.88149" lon="4.78473">
        <ele>385.63</ele>
        <time>2015-01-17T10:47:42Z</time>
      </trkpt>
      <trkpt lat="44.88156" lon="4.78475">
        <ele>384.66</ele>
        <time>2015-01-17T10:47:43Z</time>
      </trkpt>
      <trkpt lat="44.88205" lon="4.78487">
        <ele>382.26</ele>
        <time>2015-01-17T10:47:50Z</time>
      </trkpt>
      <trkpt lat="44.88212" lon="4.78491">
        <ele>382.26</ele>
        <time>2015-01-17T10:47:51Z</time>
      </trkpt>
      <trkpt lat="44.88218" lon="4.78497">
        <ele>381.78</ele>
        <time>2015-01-17T10:47:52Z</time>
      </trkpt>
      <trkpt lat="44.88222" lon="4.78505">
        <ele>381.3</ele>
        <time>2015-01-17T10:47:53Z</time>
      </trkpt>
      <trkpt lat="44.88226" lon="4.78514">
        <ele>381.3</ele>
        <time>2015-01-17T10:47:54Z</time>
      </trkpt>
      <trkpt lat="44.88229" lon="4.78525">
        <ele>380.34</ele>
        <time>2015-01-17T10:47:55Z</time>
      </trkpt>
      <trkpt lat="44.88232" lon="4.78534">
        <ele>379.86</ele>
        <time>2015-01-17T10:47:56Z</time>
      </trkpt>
      <trkpt lat="44.88237" lon="4.7854">
        <ele>379.38</ele>
        <time>2015-01-17T10:47:57Z</time>
      </trkpt>
      <trkpt lat="44.88244" lon="4.78543">
        <ele>378.9</ele>
        <time>2015-01-17T10:47:58Z</time>
      </trkpt>
      <trkpt lat="44.88251" lon="4.78542">
        <ele>378.9</ele>
        <time>2015-01-17T10:47:59Z</time>
      </trkpt>
      <trkpt lat="44.88258" lon="4.78538">
        <ele>378.42</ele>
        <time>2015-01-17T10:48:00Z</time>
      </trkpt>
      <trkpt lat="44.88264" lon="4.78533">
        <ele>378.42</ele>
        <time>2015-01-17T10:48:01Z</time>
      </trkpt>
      <trkpt lat="44.88271" lon="4.78528">
        <ele>377.94</ele>
        <time>2015-01-17T10:48:02Z</time>
      </trkpt>
      <trkpt lat="44.88278" lon="4.78524">
        <ele>377.45</ele>
        <time>2015-01-17T10:48:03Z</time>
      </trkpt>
      <trkpt lat="44.88285" lon="4.7852">
        <ele>376.97</ele>
        <time>2015-01-17T10:48:04Z</time>
      </trkpt>
      <trkpt lat="44.88293" lon="4.78517">
        <ele>376.97</ele>
        <time>2015-01-17T10:48:05Z</time>
      </trkpt>
      <trkpt lat="44.883" lon="4.78517">
        <ele>376.49</ele>
        <time>2015-01-17T10:48:06Z</time>
      </trkpt>
      <trkpt lat="44.88308" lon="4.78517">
        <ele>376.01</ele>
        <time>2015-01-17T10:48:07Z</time>
      </trkpt>
      <trkpt lat="44.88316" lon="4.78517">
        <ele>376.01</ele>
        <time>2015-01-17T10:48:08Z</time>
      </trkpt>
      <trkpt lat="44.88323" lon="4.78516">
        <ele>376.01</ele>
        <time>2015-01-17T10:48:09Z</time>
      </trkpt>
      <trkpt lat="44.88331" lon="4.78512">
        <ele>375.05</ele>
        <time>2015-01-17T10:48:10Z</time>
      </trkpt>
      <trkpt lat="44.88338" lon="4.78507">
        <ele>374.57</ele>
        <time>2015-01-17T10:48:11Z</time>
      </trkpt>
      <trkpt lat="44.88345" lon="4.78505">
        <ele>373.61</ele>
        <time>2015-01-17T10:48:12Z</time>
      </trkpt>
      <trkpt lat="44.88353" lon="4.78507">
        <ele>373.13</ele>
        <time>2015-01-17T10:48:13Z</time>
      </trkpt>
      <trkpt lat="44.8836" lon="4.78509">
        <ele>373.13</ele>
        <time>2015-01-17T10:48:14Z</time>
      </trkpt>
      <trkpt lat="44.88376" lon="4.78517">
        <ele>372.17</ele>
        <time>2015-01-17T10:48:16Z</time>
      </trkpt>
      <trkpt lat="44.88383" lon="4.78523">
        <ele>371.69</ele>
        <time>2015-01-17T10:48:17Z</time>
      </trkpt>
      <trkpt lat="44.88429" lon="4.78571">
        <ele>368.32</ele>
        <time>2015-01-17T10:48:24Z</time>
      </trkpt>
      <trkpt lat="44.88435" lon="4.78578">
        <ele>367.84</ele>
        <time>2015-01-17T10:48:25Z</time>
      </trkpt>
      <trkpt lat="44.8844" lon="4.78582">
        <ele>366.88</ele>
        <time>2015-01-17T10:48:26Z</time>
      </trkpt>
      <trkpt lat="44.88444" lon="4.78583">
        <ele>365.92</ele>
        <time>2015-01-17T10:48:27Z</time>
      </trkpt>
      <trkpt lat="44.88447" lon="4.78581">
        <ele>364.48</ele>
        <time>2015-01-17T10:48:28Z</time>
      </trkpt>
      <trkpt lat="44.88449" lon="4.78579">
        <ele>362.55</ele>
        <time>2015-01-17T10:48:29Z</time>
      </trkpt>
      <trkpt lat="44.8845" lon="4.78576">
        <ele>362.55</ele>
        <time>2015-01-17T10:48:30Z</time>
      </trkpt>
      <trkpt lat="44.8845" lon="4.78575">
        <ele>361.59</ele>
        <time>2015-01-17T10:48:31Z</time>
      </trkpt>
      <trkpt lat="44.88449" lon="4.78574">
        <ele>361.59</ele>
        <time>2015-01-17T10:48:32Z</time>
      </trkpt>
      <trkpt lat="44.88448" lon="4.78574">
        <ele>361.59</ele>
        <time>2015-01-17T10:48:33Z</time>
      </trkpt>
      <trkpt lat="44.88446" lon="4.78574">
        <ele>361.59</ele>
        <time>2015-01-17T10:48:34Z</time>
      </trkpt>
      <trkpt lat="44.88445" lon="4.78573">
        <ele>361.59</ele>
        <time>2015-01-17T10:48:35Z</time>
      </trkpt>
      <trkpt lat="44.88443" lon="4.78573">
        <ele>361.59</ele>
        <time>2015-01-17T10:48:36Z</time>
      </trkpt>
      <trkpt lat="44.88441" lon="4.78573">
        <ele>361.59</ele>
        <time>2015-01-17T10:48:37Z</time>
      </trkpt>
      <trkpt lat="44.88439" lon="4.78572">
        <ele>361.59</ele>
        <time>2015-01-17T10:48:38Z</time>
      </trkpt>
      <trkpt lat="44.88437" lon="4.7857">
        <ele>361.59</ele>
        <time>2015-01-17T10:48:39Z</time>
      </trkpt>
      <trkpt lat="44.88435" lon="4.78567">
        <ele>361.59</ele>
        <time>2015-01-17T10:48:40Z</time>
      </trkpt>
      <trkpt lat="44.88433" lon="4.78564">
        <ele>361.59</ele>
        <time>2015-01-17T10:48:41Z</time>
      </trkpt>
      <trkpt lat="44.88431" lon="4.78561">
        <ele>361.59</ele>
        <time>2015-01-17T10:48:42Z</time>
      </trkpt>
      <trkpt lat="44.88416" lon="4.78538">
        <ele>360.63</ele>
        <time>2015-01-17T10:48:47Z</time>
      </trkpt>
      <trkpt lat="44.88397" lon="4.78513">
        <ele>359.19</ele>
        <time>2015-01-17T10:48:52Z</time>
      </trkpt>
      <trkpt lat="44.88393" lon="4.7851">
        <ele>358.71</ele>
        <time>2015-01-17T10:48:53Z</time>
      </trkpt>
      <trkpt lat="44.88387" lon="4.78507">
        <ele>358.71</ele>
        <time>2015-01-17T10:48:54Z</time>
      </trkpt>
      <trkpt lat="44.88382" lon="4.78504">
        <ele>358.71</ele>
        <time>2015-01-17T10:48:55Z</time>
      </trkpt>
      <trkpt lat="44.88376" lon="4.78502">
        <ele>358.23</ele>
        <time>2015-01-17T10:48:56Z</time>
      </trkpt>
      <trkpt lat="44.88371" lon="4.78498">
        <ele>358.23</ele>
        <time>2015-01-17T10:48:57Z</time>
      </trkpt>
      <trkpt lat="44.88367" lon="4.78492">
        <ele>358.23</ele>
        <time>2015-01-17T10:48:58Z</time>
      </trkpt>
      <trkpt lat="44.88364" lon="4.78484">
        <ele>357.75</ele>
        <time>2015-01-17T10:48:59Z</time>
      </trkpt>
      <trkpt lat="44.88364" lon="4.78475">
        <ele>357.27</ele>
        <time>2015-01-17T10:49:00Z</time>
      </trkpt>
      <trkpt lat="44.88366" lon="4.78465">
        <ele>356.79</ele>
        <time>2015-01-17T10:49:01Z</time>
      </trkpt>
      <trkpt lat="44.8837" lon="4.78458">
        <ele>356.31</ele>
        <time>2015-01-17T10:49:02Z</time>
      </trkpt>
      <trkpt lat="44.88376" lon="4.78453">
        <ele>356.31</ele>
        <time>2015-01-17T10:49:03Z</time>
      </trkpt>
      <trkpt lat="44.88382" lon="4.7845">
        <ele>355.34</ele>
        <time>2015-01-17T10:49:04Z</time>
      </trkpt>
      <trkpt lat="44.88389" lon="4.78448">
        <ele>354.86</ele>
        <time>2015-01-17T10:49:05Z</time>
      </trkpt>
      <trkpt lat="44.88395" lon="4.78447">
        <ele>354.86</ele>
        <time>2015-01-17T10:49:06Z</time>
      </trkpt>
      <trkpt lat="44.88461" lon="4.78441">
        <ele>351.98</ele>
        <time>2015-01-17T10:49:16Z</time>
      </trkpt>
      <trkpt lat="44.88467" lon="4.78444">
        <ele>352.46</ele>
        <time>2015-01-17T10:49:17Z</time>
      </trkpt>
      <trkpt lat="44.88471" lon="4.7845">
        <ele>351.98</ele>
        <time>2015-01-17T10:49:18Z</time>
      </trkpt>
      <trkpt lat="44.88474" lon="4.78457">
        <ele>352.46</ele>
        <time>2015-01-17T10:49:19Z</time>
      </trkpt>
      <trkpt lat="44.88477" lon="4.78465">
        <ele>351.98</ele>
        <time>2015-01-17T10:49:20Z</time>
      </trkpt>
      <trkpt lat="44.88511" lon="4.78539">
        <ele>351.98</ele>
        <time>2015-01-17T10:49:32Z</time>
      </trkpt>
      <trkpt lat="44.88515" lon="4.78543">
        <ele>351.98</ele>
        <time>2015-01-17T10:49:33Z</time>
      </trkpt>
      <trkpt lat="44.8852" lon="4.78546">
        <ele>351.98</ele>
        <time>2015-01-17T10:49:34Z</time>
      </trkpt>
      <trkpt lat="44.88536" lon="4.78559">
        <ele>351.98</ele>
        <time>2015-01-17T10:49:38Z</time>
      </trkpt>
      <trkpt lat="44.8854" lon="4.78563">
        <ele>351.98</ele>
        <time>2015-01-17T10:49:39Z</time>
      </trkpt>
      <trkpt lat="44.88583" lon="4.78627">
        <ele>352.46</ele>
        <time>2015-01-17T10:49:53Z</time>
      </trkpt>
      <trkpt lat="44.88587" lon="4.78632">
        <ele>352.46</ele>
        <time>2015-01-17T10:49:54Z</time>
      </trkpt>
      <trkpt lat="44.88589" lon="4.78637">
        <ele>352.46</ele>
        <time>2015-01-17T10:49:55Z</time>
      </trkpt>
      <trkpt lat="44.88637" lon="4.78732">
        <ele>353.42</ele>
        <time>2015-01-17T10:50:13Z</time>
      </trkpt>
      <trkpt lat="44.8864" lon="4.78737">
        <ele>353.42</ele>
        <time>2015-01-17T10:50:14Z</time>
      </trkpt>
      <trkpt lat="44.88659" lon="4.78776">
        <ele>353.42</ele>
        <time>2015-01-17T10:50:21Z</time>
      </trkpt>
      <trkpt lat="44.88682" lon="4.78832">
        <ele>354.38</ele>
        <time>2015-01-17T10:50:31Z</time>
      </trkpt>
      <trkpt lat="44.88707" lon="4.78938">
        <ele>356.31</ele>
        <time>2015-01-17T10:50:49Z</time>
      </trkpt>
      <trkpt lat="44.88709" lon="4.78944">
        <ele>356.31</ele>
        <time>2015-01-17T10:50:50Z</time>
      </trkpt>
      <trkpt lat="44.88718" lon="4.79024">
        <ele>357.75</ele>
        <time>2015-01-17T10:51:04Z</time>
      </trkpt>
      <trkpt lat="44.88719" lon="4.7903">
        <ele>358.23</ele>
        <time>2015-01-17T10:51:05Z</time>
      </trkpt>
      <trkpt lat="44.88721" lon="4.79035">
        <ele>358.23</ele>
        <time>2015-01-17T10:51:06Z</time>
      </trkpt>
      <trkpt lat="44.88724" lon="4.7904">
        <ele>358.23</ele>
        <time>2015-01-17T10:51:07Z</time>
      </trkpt>
      <trkpt lat="44.88726" lon="4.79044">
        <ele>358.23</ele>
        <time>2015-01-17T10:51:08Z</time>
      </trkpt>
      <trkpt lat="44.88729" lon="4.79048">
        <ele>358.71</ele>
        <time>2015-01-17T10:51:09Z</time>
      </trkpt>
      <trkpt lat="44.88731" lon="4.79052">
        <ele>358.71</ele>
        <time>2015-01-17T10:51:10Z</time>
      </trkpt>
      <trkpt lat="44.88776" lon="4.79093">
        <ele>360.15</ele>
        <time>2015-01-17T10:51:25Z</time>
      </trkpt>
      <trkpt lat="44.88809" lon="4.79047">
        <ele>360.15</ele>
        <time>2015-01-17T10:51:37Z</time>
      </trkpt>
      <trkpt lat="44.88851" lon="4.79011">
        <ele>362.07</ele>
        <time>2015-01-17T10:51:51Z</time>
      </trkpt>
      <trkpt lat="44.88859" lon="4.79029">
        <ele>362.55</ele>
        <time>2015-01-17T10:51:55Z</time>
      </trkpt>
      <trkpt lat="44.88859" lon="4.79034">
        <ele>362.55</ele>
        <time>2015-01-17T10:51:56Z</time>
      </trkpt>
      <trkpt lat="44.88858" lon="4.79039">
        <ele>363.04</ele>
        <time>2015-01-17T10:51:57Z</time>
      </trkpt>
      <trkpt lat="44.88836" lon="4.79101">
        <ele>366.4</ele>
        <time>2015-01-17T10:52:11Z</time>
      </trkpt>
      <trkpt lat="44.88823" lon="4.79172">
        <ele>367.84</ele>
        <time>2015-01-17T10:52:27Z</time>
      </trkpt>
      <trkpt lat="44.88845" lon="4.79217">
        <ele>369.76</ele>
        <time>2015-01-17T10:52:40Z</time>
      </trkpt>
      <trkpt lat="44.88872" lon="4.79271">
        <ele>372.17</ele>
        <time>2015-01-17T10:52:55Z</time>
      </trkpt>
      <trkpt lat="44.88914" lon="4.79328">
        <ele>374.57</ele>
        <time>2015-01-17T10:53:15Z</time>
      </trkpt>
      <trkpt lat="44.88943" lon="4.79378">
        <ele>376.49</ele>
        <time>2015-01-17T10:53:31Z</time>
      </trkpt>
      <trkpt lat="44.88972" lon="4.79429">
        <ele>379.38</ele>
        <time>2015-01-17T10:53:47Z</time>
      </trkpt>
      <trkpt lat="44.89012" lon="4.79487">
        <ele>381.78</ele>
        <time>2015-01-17T10:54:07Z</time>
      </trkpt>
      <trkpt lat="44.8905" lon="4.79563">
        <ele>384.18</ele>
        <time>2015-01-17T10:54:29Z</time>
      </trkpt>
      <trkpt lat="44.89082" lon="4.79642">
        <ele>386.59</ele>
        <time>2015-01-17T10:54:50Z</time>
      </trkpt>
      <trkpt lat="44.8911" lon="4.79715">
        <ele>389.47</ele>
        <time>2015-01-17T10:55:10Z</time>
      </trkpt>
      <trkpt lat="44.8913" lon="4.79787">
        <ele>390.91</ele>
        <time>2015-01-17T10:55:29Z</time>
      </trkpt>
      <trkpt lat="44.89125" lon="4.79849">
        <ele>392.84</ele>
        <time>2015-01-17T10:55:44Z</time>
      </trkpt>
      <trkpt lat="44.89113" lon="4.799">
        <ele>395.72</ele>
        <time>2015-01-17T10:55:58Z</time>
      </trkpt>
      <trkpt lat="44.89116" lon="4.79942">
        <ele>399.57</ele>
        <time>2015-01-17T10:56:12Z</time>
      </trkpt>
      <trkpt lat="44.89117" lon="4.79972">
        <ele>398.6</ele>
        <time>2015-01-17T10:56:22Z</time>
      </trkpt>
      <trkpt lat="44.89111" lon="4.80022">
        <ele>401.01</ele>
        <time>2015-01-17T10:56:35Z</time>
      </trkpt>
      <trkpt lat="44.89102" lon="4.80079">
        <ele>400.53</ele>
        <time>2015-01-17T10:56:48Z</time>
      </trkpt>
      <trkpt lat="44.89099" lon="4.80108">
        <ele>401.49</ele>
        <time>2015-01-17T10:56:54Z</time>
      </trkpt>
      <trkpt lat="44.89098" lon="4.80114">
        <ele>401.01</ele>
        <time>2015-01-17T10:56:55Z</time>
      </trkpt>
      <trkpt lat="44.8909" lon="4.80151">
        <ele>400.05</ele>
        <time>2015-01-17T10:57:01Z</time>
      </trkpt>
      <trkpt lat="44.89088" lon="4.80157">
        <ele>400.05</ele>
        <time>2015-01-17T10:57:02Z</time>
      </trkpt>
      <trkpt lat="44.89088" lon="4.80162">
        <ele>400.53</ele>
        <time>2015-01-17T10:57:03Z</time>
      </trkpt>
      <trkpt lat="44.89088" lon="4.80168">
        <ele>400.05</ele>
        <time>2015-01-17T10:57:04Z</time>
      </trkpt>
      <trkpt lat="44.89089" lon="4.80173">
        <ele>399.57</ele>
        <time>2015-01-17T10:57:05Z</time>
      </trkpt>
      <trkpt lat="44.89091" lon="4.80179">
        <ele>399.57</ele>
        <time>2015-01-17T10:57:06Z</time>
      </trkpt>
      <trkpt lat="44.89093" lon="4.80187">
        <ele>399.08</ele>
        <time>2015-01-17T10:57:07Z</time>
      </trkpt>
      <trkpt lat="44.89103" lon="4.80236">
        <ele>398.12</ele>
        <time>2015-01-17T10:57:13Z</time>
      </trkpt>
      <trkpt lat="44.89105" lon="4.80245">
        <ele>397.64</ele>
        <time>2015-01-17T10:57:14Z</time>
      </trkpt>
      <trkpt lat="44.89108" lon="4.80253">
        <ele>396.2</ele>
        <time>2015-01-17T10:57:15Z</time>
      </trkpt>
      <trkpt lat="44.89112" lon="4.80258">
        <ele>395.24</ele>
        <time>2015-01-17T10:57:16Z</time>
      </trkpt>
      <trkpt lat="44.89117" lon="4.8026">
        <ele>394.76</ele>
        <time>2015-01-17T10:57:17Z</time>
      </trkpt>
      <trkpt lat="44.89122" lon="4.80261">
        <ele>393.8</ele>
        <time>2015-01-17T10:57:18Z</time>
      </trkpt>
      <trkpt lat="44.89127" lon="4.80264">
        <ele>392.84</ele>
        <time>2015-01-17T10:57:19Z</time>
      </trkpt>
      <trkpt lat="44.89131" lon="4.80268">
        <ele>392.36</ele>
        <time>2015-01-17T10:57:20Z</time>
      </trkpt>
      <trkpt lat="44.89136" lon="4.80271">
        <ele>392.36</ele>
        <time>2015-01-17T10:57:21Z</time>
      </trkpt>
      <trkpt lat="44.89142" lon="4.80274">
        <ele>391.39</ele>
        <time>2015-01-17T10:57:22Z</time>
      </trkpt>
      <trkpt lat="44.89148" lon="4.80276">
        <ele>390.91</ele>
        <time>2015-01-17T10:57:23Z</time>
      </trkpt>
      <trkpt lat="44.89153" lon="4.80279">
        <ele>390.91</ele>
        <time>2015-01-17T10:57:24Z</time>
      </trkpt>
      <trkpt lat="44.89174" lon="4.80295">
        <ele>389.95</ele>
        <time>2015-01-17T10:57:28Z</time>
      </trkpt>
      <trkpt lat="44.89179" lon="4.80299">
        <ele>389.95</ele>
        <time>2015-01-17T10:57:29Z</time>
      </trkpt>
      <trkpt lat="44.89182" lon="4.80304">
        <ele>389.95</ele>
        <time>2015-01-17T10:57:30Z</time>
      </trkpt>
      <trkpt lat="44.89185" lon="4.80309">
        <ele>390.43</ele>
        <time>2015-01-17T10:57:31Z</time>
      </trkpt>
      <trkpt lat="44.89188" lon="4.80314">
        <ele>390.43</ele>
        <time>2015-01-17T10:57:32Z</time>
      </trkpt>
      <trkpt lat="44.89191" lon="4.80318">
        <ele>390.43</ele>
        <time>2015-01-17T10:57:33Z</time>
      </trkpt>
      <trkpt lat="44.89193" lon="4.80322">
        <ele>390.43</ele>
        <time>2015-01-17T10:57:34Z</time>
      </trkpt>
      <trkpt lat="44.89195" lon="4.80327">
        <ele>390.43</ele>
        <time>2015-01-17T10:57:35Z</time>
      </trkpt>
      <trkpt lat="44.89196" lon="4.80331">
        <ele>390.91</ele>
        <time>2015-01-17T10:57:36Z</time>
      </trkpt>
      <trkpt lat="44.89197" lon="4.80336">
        <ele>390.91</ele>
        <time>2015-01-17T10:57:37Z</time>
      </trkpt>
      <trkpt lat="44.89213" lon="4.8038">
        <ele>391.39</ele>
        <time>2015-01-17T10:57:45Z</time>
      </trkpt>
      <trkpt lat="44.89215" lon="4.80387">
        <ele>390.91</ele>
        <time>2015-01-17T10:57:46Z</time>
      </trkpt>
      <trkpt lat="44.89219" lon="4.80401">
        <ele>389.95</ele>
        <time>2015-01-17T10:57:48Z</time>
      </trkpt>
      <trkpt lat="44.8922" lon="4.80408">
        <ele>389.95</ele>
        <time>2015-01-17T10:57:49Z</time>
      </trkpt>
      <trkpt lat="44.8922" lon="4.80416">
        <ele>389.95</ele>
        <time>2015-01-17T10:57:50Z</time>
      </trkpt>
      <trkpt lat="44.89219" lon="4.80424">
        <ele>389.47</ele>
        <time>2015-01-17T10:57:51Z</time>
      </trkpt>
      <trkpt lat="44.89218" lon="4.80431">
        <ele>389.47</ele>
        <time>2015-01-17T10:57:52Z</time>
      </trkpt>
      <trkpt lat="44.89217" lon="4.80448">
        <ele>389.47</ele>
        <time>2015-01-17T10:57:54Z</time>
      </trkpt>
      <trkpt lat="44.89218" lon="4.80456">
        <ele>388.99</ele>
        <time>2015-01-17T10:57:55Z</time>
      </trkpt>
      <trkpt lat="44.89221" lon="4.80463">
        <ele>388.99</ele>
        <time>2015-01-17T10:57:56Z</time>
      </trkpt>
      <trkpt lat="44.89239" lon="4.80502">
        <ele>388.03</ele>
        <time>2015-01-17T10:58:02Z</time>
      </trkpt>
      <trkpt lat="44.89242" lon="4.8051">
        <ele>388.03</ele>
        <time>2015-01-17T10:58:03Z</time>
      </trkpt>
      <trkpt lat="44.89251" lon="4.80542">
        <ele>388.99</ele>
        <time>2015-01-17T10:58:08Z</time>
      </trkpt>
      <trkpt lat="44.89252" lon="4.80549">
        <ele>388.99</ele>
        <time>2015-01-17T10:58:09Z</time>
      </trkpt>
      <trkpt lat="44.89252" lon="4.80556">
        <ele>388.99</ele>
        <time>2015-01-17T10:58:10Z</time>
      </trkpt>
      <trkpt lat="44.89251" lon="4.80563">
        <ele>388.99</ele>
        <time>2015-01-17T10:58:11Z</time>
      </trkpt>
      <trkpt lat="44.8925" lon="4.8057">
        <ele>388.99</ele>
        <time>2015-01-17T10:58:12Z</time>
      </trkpt>
      <trkpt lat="44.89248" lon="4.80596">
        <ele>388.99</ele>
        <time>2015-01-17T10:58:16Z</time>
      </trkpt>
      <trkpt lat="44.89248" lon="4.80603">
        <ele>388.51</ele>
        <time>2015-01-17T10:58:17Z</time>
      </trkpt>
      <trkpt lat="44.89251" lon="4.80618">
        <ele>388.03</ele>
        <time>2015-01-17T10:58:19Z</time>
      </trkpt>
      <trkpt lat="44.89252" lon="4.80626">
        <ele>388.03</ele>
        <time>2015-01-17T10:58:20Z</time>
      </trkpt>
      <trkpt lat="44.89254" lon="4.80633">
        <ele>388.03</ele>
        <time>2015-01-17T10:58:21Z</time>
      </trkpt>
      <trkpt lat="44.89256" lon="4.8064">
        <ele>387.55</ele>
        <time>2015-01-17T10:58:22Z</time>
      </trkpt>
      <trkpt lat="44.89258" lon="4.80648">
        <ele>387.55</ele>
        <time>2015-01-17T10:58:23Z</time>
      </trkpt>
      <trkpt lat="44.8926" lon="4.80656">
        <ele>388.03</ele>
        <time>2015-01-17T10:58:24Z</time>
      </trkpt>
      <trkpt lat="44.89261" lon="4.80664">
        <ele>387.55</ele>
        <time>2015-01-17T10:58:25Z</time>
      </trkpt>
      <trkpt lat="44.89262" lon="4.80672">
        <ele>387.55</ele>
        <time>2015-01-17T10:58:26Z</time>
      </trkpt>
      <trkpt lat="44.89264" lon="4.8068">
        <ele>387.07</ele>
        <time>2015-01-17T10:58:27Z</time>
      </trkpt>
      <trkpt lat="44.89267" lon="4.80687">
        <ele>387.07</ele>
        <time>2015-01-17T10:58:28Z</time>
      </trkpt>
      <trkpt lat="44.8927" lon="4.80695">
        <ele>386.59</ele>
        <time>2015-01-17T10:58:29Z</time>
      </trkpt>
      <trkpt lat="44.89275" lon="4.80709">
        <ele>385.63</ele>
        <time>2015-01-17T10:58:31Z</time>
      </trkpt>
      <trkpt lat="44.89279" lon="4.80715">
        <ele>385.15</ele>
        <time>2015-01-17T10:58:32Z</time>
      </trkpt>
      <trkpt lat="44.89282" lon="4.8072">
        <ele>384.18</ele>
        <time>2015-01-17T10:58:33Z</time>
      </trkpt>
      <trkpt lat="44.89286" lon="4.80726">
        <ele>384.18</ele>
        <time>2015-01-17T10:58:34Z</time>
      </trkpt>
      <trkpt lat="44.8929" lon="4.80732">
        <ele>384.18</ele>
        <time>2015-01-17T10:58:35Z</time>
      </trkpt>
      <trkpt lat="44.89293" lon="4.80739">
        <ele>383.7</ele>
        <time>2015-01-17T10:58:36Z</time>
      </trkpt>
      <trkpt lat="44.89297" lon="4.80746">
        <ele>383.7</ele>
        <time>2015-01-17T10:58:37Z</time>
      </trkpt>
      <trkpt lat="44.893" lon="4.80752">
        <ele>382.74</ele>
        <time>2015-01-17T10:58:38Z</time>
      </trkpt>
      <trkpt lat="44.8932" lon="4.80788">
        <ele>380.34</ele>
        <time>2015-01-17T10:58:44Z</time>
      </trkpt>
      <trkpt lat="44.89327" lon="4.80794">
        <ele>378.9</ele>
        <time>2015-01-17T10:58:46Z</time>
      </trkpt>
      <trkpt lat="44.89331" lon="4.808">
        <ele>377.94</ele>
        <time>2015-01-17T10:58:47Z</time>
      </trkpt>
      <trkpt lat="44.8934" lon="4.80827">
        <ele>374.57</ele>
        <time>2015-01-17T10:58:51Z</time>
      </trkpt>
      <trkpt lat="44.89345" lon="4.80841">
        <ele>373.61</ele>
        <time>2015-01-17T10:58:53Z</time>
      </trkpt>
      <trkpt lat="44.89348" lon="4.80849">
        <ele>372.65</ele>
        <time>2015-01-17T10:58:54Z</time>
      </trkpt>
      <trkpt lat="44.89353" lon="4.80864">
        <ele>371.21</ele>
        <time>2015-01-17T10:58:56Z</time>
      </trkpt>
      <trkpt lat="44.8936" lon="4.8089">
        <ele>368.8</ele>
        <time>2015-01-17T10:58:59Z</time>
      </trkpt>
      <trkpt lat="44.89365" lon="4.80932">
        <ele>365.92</ele>
        <time>2015-01-17T10:59:04Z</time>
      </trkpt>
      <trkpt lat="44.89367" lon="4.8094">
        <ele>365.92</ele>
        <time>2015-01-17T10:59:05Z</time>
      </trkpt>
      <trkpt lat="44.89373" lon="4.80967">
        <ele>364.96</ele>
        <time>2015-01-17T10:59:08Z</time>
      </trkpt>
      <trkpt lat="44.89374" lon="4.80976">
        <ele>365.44</ele>
        <time>2015-01-17T10:59:09Z</time>
      </trkpt>
      <trkpt lat="44.89378" lon="4.81002">
        <ele>363.52</ele>
        <time>2015-01-17T10:59:12Z</time>
      </trkpt>
      <trkpt lat="44.89378" lon="4.81006">
        <ele>363.52</ele>
        <time>2015-01-17T10:59:13Z</time>
      </trkpt>
      <trkpt lat="44.89378" lon="4.81006">
        <ele>362.55</ele>
        <time>2015-01-17T10:59:22Z</time>
      </trkpt>
      <trkpt lat="44.8938" lon="4.81024">
        <ele>362.55</ele>
        <time>2015-01-17T10:59:44Z</time>
      </trkpt>
      <trkpt lat="44.89379" lon="4.81023">
        <ele>362.07</ele>
        <time>2015-01-17T11:00:00Z</time>
      </trkpt>
      <trkpt lat="44.89388" lon="4.81039">
        <ele>361.59</ele>
        <time>2015-01-17T11:00:10Z</time>
      </trkpt>
      <trkpt lat="44.89404" lon="4.81077">
        <ele>360.63</ele>
        <time>2015-01-17T11:00:16Z</time>
      </trkpt>
      <trkpt lat="44.89408" lon="4.81084">
        <ele>359.67</ele>
        <time>2015-01-17T11:00:17Z</time>
      </trkpt>
      <trkpt lat="44.89412" lon="4.81091">
        <ele>359.67</ele>
        <time>2015-01-17T11:00:18Z</time>
      </trkpt>
      <trkpt lat="44.89417" lon="4.81098">
        <ele>359.67</ele>
        <time>2015-01-17T11:00:19Z</time>
      </trkpt>
      <trkpt lat="44.89423" lon="4.81104">
        <ele>359.67</ele>
        <time>2015-01-17T11:00:20Z</time>
      </trkpt>
      <trkpt lat="44.89436" lon="4.81122">
        <ele>360.15</ele>
        <time>2015-01-17T11:00:23Z</time>
      </trkpt>
      <trkpt lat="44.89439" lon="4.81128">
        <ele>359.67</ele>
        <time>2015-01-17T11:00:24Z</time>
      </trkpt>
      <trkpt lat="44.89441" lon="4.81134">
        <ele>360.15</ele>
        <time>2015-01-17T11:00:25Z</time>
      </trkpt>
      <trkpt lat="44.89444" lon="4.81139">
        <ele>360.15</ele>
        <time>2015-01-17T11:00:26Z</time>
      </trkpt>
      <trkpt lat="44.89447" lon="4.81145">
        <ele>359.67</ele>
        <time>2015-01-17T11:00:27Z</time>
      </trkpt>
      <trkpt lat="44.89449" lon="4.81151">
        <ele>359.67</ele>
        <time>2015-01-17T11:00:28Z</time>
      </trkpt>
      <trkpt lat="44.89455" lon="4.81173">
        <ele>357.75</ele>
        <time>2015-01-17T11:00:31Z</time>
      </trkpt>
      <trkpt lat="44.89459" lon="4.8118">
        <ele>357.75</ele>
        <time>2015-01-17T11:00:32Z</time>
      </trkpt>
      <trkpt lat="44.89462" lon="4.81187">
        <ele>357.75</ele>
        <time>2015-01-17T11:00:33Z</time>
      </trkpt>
      <trkpt lat="44.89464" lon="4.81196">
        <ele>357.75</ele>
        <time>2015-01-17T11:00:34Z</time>
      </trkpt>
      <trkpt lat="44.89466" lon="4.81204">
        <ele>357.27</ele>
        <time>2015-01-17T11:00:35Z</time>
      </trkpt>
      <trkpt lat="44.89468" lon="4.81213">
        <ele>357.75</ele>
        <time>2015-01-17T11:00:36Z</time>
      </trkpt>
      <trkpt lat="44.89469" lon="4.81222">
        <ele>357.75</ele>
        <time>2015-01-17T11:00:37Z</time>
      </trkpt>
      <trkpt lat="44.89469" lon="4.8123">
        <ele>357.75</ele>
        <time>2015-01-17T11:00:38Z</time>
      </trkpt>
      <trkpt lat="44.89468" lon="4.81237">
        <ele>358.23</ele>
        <time>2015-01-17T11:00:39Z</time>
      </trkpt>
      <trkpt lat="44.89465" lon="4.81243">
        <ele>358.23</ele>
        <time>2015-01-17T11:00:40Z</time>
      </trkpt>
      <trkpt lat="44.89465" lon="4.81248">
        <ele>358.23</ele>
        <time>2015-01-17T11:00:41Z</time>
      </trkpt>
      <trkpt lat="44.89467" lon="4.81252">
        <ele>358.23</ele>
        <time>2015-01-17T11:00:42Z</time>
      </trkpt>
      <trkpt lat="44.89468" lon="4.81255">
        <ele>358.23</ele>
        <time>2015-01-17T11:00:43Z</time>
      </trkpt>
      <trkpt lat="44.8947" lon="4.81256">
        <ele>357.27</ele>
        <time>2015-01-17T11:00:51Z</time>
      </trkpt>
      <trkpt lat="44.89471" lon="4.8126">
        <ele>356.79</ele>
        <time>2015-01-17T11:00:57Z</time>
      </trkpt>
      <trkpt lat="44.89472" lon="4.81262">
        <ele>356.79</ele>
        <time>2015-01-17T11:00:58Z</time>
      </trkpt>
      <trkpt lat="44.89473" lon="4.81265">
        <ele>356.31</ele>
        <time>2015-01-17T11:00:59Z</time>
      </trkpt>
      <trkpt lat="44.89474" lon="4.81268">
        <ele>356.31</ele>
        <time>2015-01-17T11:01:00Z</time>
      </trkpt>
      <trkpt lat="44.89476" lon="4.81272">
        <ele>356.31</ele>
        <time>2015-01-17T11:01:01Z</time>
      </trkpt>
      <trkpt lat="44.89478" lon="4.81275">
        <ele>355.83</ele>
        <time>2015-01-17T11:01:02Z</time>
      </trkpt>
      <trkpt lat="44.89481" lon="4.8128">
        <ele>353.9</ele>
        <time>2015-01-17T11:01:03Z</time>
      </trkpt>
      <trkpt lat="44.89484" lon="4.81285">
        <ele>353.42</ele>
        <time>2015-01-17T11:01:04Z</time>
      </trkpt>
      <trkpt lat="44.89486" lon="4.81291">
        <ele>352.46</ele>
        <time>2015-01-17T11:01:05Z</time>
      </trkpt>
      <trkpt lat="44.89488" lon="4.81296">
        <ele>351.02</ele>
        <time>2015-01-17T11:01:06Z</time>
      </trkpt>
      <trkpt lat="44.89491" lon="4.813">
        <ele>350.54</ele>
        <time>2015-01-17T11:01:07Z</time>
      </trkpt>
      <trkpt lat="44.89495" lon="4.81305">
        <ele>349.1</ele>
        <time>2015-01-17T11:01:08Z</time>
      </trkpt>
      <trkpt lat="44.89497" lon="4.81311">
        <ele>348.62</ele>
        <time>2015-01-17T11:01:09Z</time>
      </trkpt>
      <trkpt lat="44.89499" lon="4.81317">
        <ele>347.65</ele>
        <time>2015-01-17T11:01:10Z</time>
      </trkpt>
      <trkpt lat="44.89501" lon="4.81321">
        <ele>347.17</ele>
        <time>2015-01-17T11:01:11Z</time>
      </trkpt>
      <trkpt lat="44.89504" lon="4.81326">
        <ele>346.21</ele>
        <time>2015-01-17T11:01:12Z</time>
      </trkpt>
      <trkpt lat="44.89507" lon="4.81331">
        <ele>346.21</ele>
        <time>2015-01-17T11:01:13Z</time>
      </trkpt>
      <trkpt lat="44.8951" lon="4.81336">
        <ele>345.73</ele>
        <time>2015-01-17T11:01:14Z</time>
      </trkpt>
      <trkpt lat="44.89513" lon="4.81343">
        <ele>345.73</ele>
        <time>2015-01-17T11:01:15Z</time>
      </trkpt>
      <trkpt lat="44.89516" lon="4.81351">
        <ele>343.81</ele>
        <time>2015-01-17T11:01:16Z</time>
      </trkpt>
      <trkpt lat="44.8952" lon="4.81359">
        <ele>343.33</ele>
        <time>2015-01-17T11:01:17Z</time>
      </trkpt>
      <trkpt lat="44.89524" lon="4.81366">
        <ele>342.37</ele>
        <time>2015-01-17T11:01:18Z</time>
      </trkpt>
      <trkpt lat="44.89529" lon="4.81372">
        <ele>341.89</ele>
        <time>2015-01-17T11:01:19Z</time>
      </trkpt>
      <trkpt lat="44.89541" lon="4.81382">
        <ele>340.44</ele>
        <time>2015-01-17T11:01:21Z</time>
      </trkpt>
      <trkpt lat="44.89549" lon="4.81385">
        <ele>339.96</ele>
        <time>2015-01-17T11:01:22Z</time>
      </trkpt>
      <trkpt lat="44.89555" lon="4.81387">
        <ele>338.52</ele>
        <time>2015-01-17T11:01:23Z</time>
      </trkpt>
      <trkpt lat="44.89562" lon="4.81392">
        <ele>337.56</ele>
        <time>2015-01-17T11:01:24Z</time>
      </trkpt>
      <trkpt lat="44.89567" lon="4.81397">
        <ele>336.12</ele>
        <time>2015-01-17T11:01:25Z</time>
      </trkpt>
      <trkpt lat="44.89572" lon="4.81402">
        <ele>335.16</ele>
        <time>2015-01-17T11:01:26Z</time>
      </trkpt>
      <trkpt lat="44.89578" lon="4.81404">
        <ele>333.71</ele>
        <time>2015-01-17T11:01:27Z</time>
      </trkpt>
      <trkpt lat="44.89584" lon="4.81406">
        <ele>332.27</ele>
        <time>2015-01-17T11:01:28Z</time>
      </trkpt>
      <trkpt lat="44.89589" lon="4.81409">
        <ele>331.31</ele>
        <time>2015-01-17T11:01:29Z</time>
      </trkpt>
      <trkpt lat="44.89594" lon="4.81416">
        <ele>329.87</ele>
        <time>2015-01-17T11:01:30Z</time>
      </trkpt>
      <trkpt lat="44.89599" lon="4.81422">
        <ele>329.87</ele>
        <time>2015-01-17T11:01:31Z</time>
      </trkpt>
      <trkpt lat="44.89603" lon="4.81427">
        <ele>328.43</ele>
        <time>2015-01-17T11:01:32Z</time>
      </trkpt>
      <trkpt lat="44.89606" lon="4.81432">
        <ele>327.47</ele>
        <time>2015-01-17T11:01:33Z</time>
      </trkpt>
      <trkpt lat="44.89608" lon="4.81438">
        <ele>325.54</ele>
        <time>2015-01-17T11:01:34Z</time>
      </trkpt>
      <trkpt lat="44.89611" lon="4.81441">
        <ele>324.1</ele>
        <time>2015-01-17T11:01:35Z</time>
      </trkpt>
      <trkpt lat="44.89616" lon="4.81443">
        <ele>323.62</ele>
        <time>2015-01-17T11:01:36Z</time>
      </trkpt>
      <trkpt lat="44.8962" lon="4.81444">
        <ele>321.7</ele>
        <time>2015-01-17T11:01:37Z</time>
      </trkpt>
      <trkpt lat="44.89631" lon="4.81447">
        <ele>318.33</ele>
        <time>2015-01-17T11:01:40Z</time>
      </trkpt>
      <trkpt lat="44.89634" lon="4.81451">
        <ele>316.89</ele>
        <time>2015-01-17T11:01:41Z</time>
      </trkpt>
      <trkpt lat="44.89636" lon="4.81456">
        <ele>316.41</ele>
        <time>2015-01-17T11:01:42Z</time>
      </trkpt>
      <trkpt lat="44.89639" lon="4.81467">
        <ele>314.49</ele>
        <time>2015-01-17T11:01:44Z</time>
      </trkpt>
      <trkpt lat="44.89642" lon="4.81473">
        <ele>314.01</ele>
        <time>2015-01-17T11:01:45Z</time>
      </trkpt>
      <trkpt lat="44.89646" lon="4.81479">
        <ele>313.53</ele>
        <time>2015-01-17T11:01:46Z</time>
      </trkpt>
      <trkpt lat="44.89649" lon="4.81485">
        <ele>313.05</ele>
        <time>2015-01-17T11:01:47Z</time>
      </trkpt>
      <trkpt lat="44.89652" lon="4.81492">
        <ele>312.09</ele>
        <time>2015-01-17T11:01:48Z</time>
      </trkpt>
      <trkpt lat="44.89655" lon="4.815">
        <ele>311.6</ele>
        <time>2015-01-17T11:01:49Z</time>
      </trkpt>
      <trkpt lat="44.89657" lon="4.81507">
        <ele>311.6</ele>
        <time>2015-01-17T11:01:50Z</time>
      </trkpt>
      <trkpt lat="44.8966" lon="4.81514">
        <ele>311.12</ele>
        <time>2015-01-17T11:01:51Z</time>
      </trkpt>
      <trkpt lat="44.89662" lon="4.81523">
        <ele>309.2</ele>
        <time>2015-01-17T11:01:52Z</time>
      </trkpt>
      <trkpt lat="44.89663" lon="4.81531">
        <ele>307.76</ele>
        <time>2015-01-17T11:01:53Z</time>
      </trkpt>
      <trkpt lat="44.89667" lon="4.81551">
        <ele>303.91</ele>
        <time>2015-01-17T11:01:55Z</time>
      </trkpt>
      <trkpt lat="44.89668" lon="4.81562">
        <ele>301.99</ele>
        <time>2015-01-17T11:01:56Z</time>
      </trkpt>
      <trkpt lat="44.89669" lon="4.81574">
        <ele>300.07</ele>
        <time>2015-01-17T11:01:57Z</time>
      </trkpt>
      <trkpt lat="44.89669" lon="4.81584">
        <ele>298.15</ele>
        <time>2015-01-17T11:01:58Z</time>
      </trkpt>
      <trkpt lat="44.8967" lon="4.81591">
        <ele>295.74</ele>
        <time>2015-01-17T11:01:59Z</time>
      </trkpt>
      <trkpt lat="44.89673" lon="4.81595">
        <ele>295.26</ele>
        <time>2015-01-17T11:02:00Z</time>
      </trkpt>
      <trkpt lat="44.89675" lon="4.81595">
        <ele>294.78</ele>
        <time>2015-01-17T11:02:01Z</time>
      </trkpt>
      <trkpt lat="44.89679" lon="4.81592">
        <ele>294.78</ele>
        <time>2015-01-17T11:02:02Z</time>
      </trkpt>
      <trkpt lat="44.89682" lon="4.81588">
        <ele>294.78</ele>
        <time>2015-01-17T11:02:03Z</time>
      </trkpt>
      <trkpt lat="44.89696" lon="4.81574">
        <ele>295.26</ele>
        <time>2015-01-17T11:02:06Z</time>
      </trkpt>
      <trkpt lat="44.89701" lon="4.81568">
        <ele>295.26</ele>
        <time>2015-01-17T11:02:07Z</time>
      </trkpt>
      <trkpt lat="44.89705" lon="4.8156">
        <ele>294.78</ele>
        <time>2015-01-17T11:02:08Z</time>
      </trkpt>
      <trkpt lat="44.89708" lon="4.81551">
        <ele>294.3</ele>
        <time>2015-01-17T11:02:09Z</time>
      </trkpt>
      <trkpt lat="44.89711" lon="4.8154">
        <ele>294.3</ele>
        <time>2015-01-17T11:02:10Z</time>
      </trkpt>
      <trkpt lat="44.89711" lon="4.81529">
        <ele>293.82</ele>
        <time>2015-01-17T11:02:11Z</time>
      </trkpt>
      <trkpt lat="44.89711" lon="4.81518">
        <ele>292.38</ele>
        <time>2015-01-17T11:02:12Z</time>
      </trkpt>
      <trkpt lat="44.89711" lon="4.81509">
        <ele>291.9</ele>
        <time>2015-01-17T11:02:13Z</time>
      </trkpt>
      <trkpt lat="44.89712" lon="4.81504">
        <ele>291.42</ele>
        <time>2015-01-17T11:02:14Z</time>
      </trkpt>
      <trkpt lat="44.89714" lon="4.81503">
        <ele>290.94</ele>
        <time>2015-01-17T11:02:15Z</time>
      </trkpt>
      <trkpt lat="44.89717" lon="4.81504">
        <ele>289.97</ele>
        <time>2015-01-17T11:02:16Z</time>
      </trkpt>
      <trkpt lat="44.8972" lon="4.81506">
        <ele>289.49</ele>
        <time>2015-01-17T11:02:17Z</time>
      </trkpt>
      <trkpt lat="44.89724" lon="4.81511">
        <ele>287.09</ele>
        <time>2015-01-17T11:02:18Z</time>
      </trkpt>
      <trkpt lat="44.89729" lon="4.81518">
        <ele>285.65</ele>
        <time>2015-01-17T11:02:19Z</time>
      </trkpt>
      <trkpt lat="44.89734" lon="4.81528">
        <ele>282.28</ele>
        <time>2015-01-17T11:02:20Z</time>
      </trkpt>
      <trkpt lat="44.89738" lon="4.81537">
        <ele>280.84</ele>
        <time>2015-01-17T11:02:21Z</time>
      </trkpt>
      <trkpt lat="44.89741" lon="4.81545">
        <ele>279.88</ele>
        <time>2015-01-17T11:02:22Z</time>
      </trkpt>
      <trkpt lat="44.89742" lon="4.81551">
        <ele>278.92</ele>
        <time>2015-01-17T11:02:23Z</time>
      </trkpt>
      <trkpt lat="44.89742" lon="4.81555">
        <ele>277.48</ele>
        <time>2015-01-17T11:02:24Z</time>
      </trkpt>
      <trkpt lat="44.89742" lon="4.81558">
        <ele>277.48</ele>
        <time>2015-01-17T11:02:25Z</time>
      </trkpt>
      <trkpt lat="44.89742" lon="4.8156">
        <ele>277.48</ele>
        <time>2015-01-17T11:02:26Z</time>
      </trkpt>
      <trkpt lat="44.89743" lon="4.81561">
        <ele>277.48</ele>
        <time>2015-01-17T11:02:27Z</time>
      </trkpt>
      <trkpt lat="44.89743" lon="4.81559">
        <ele>277</ele>
        <time>2015-01-17T11:02:28Z</time>
      </trkpt>
      <trkpt lat="44.89743" lon="4.81558">
        <ele>277</ele>
        <time>2015-01-17T11:02:29Z</time>
      </trkpt>
      <trkpt lat="44.89741" lon="4.81558">
        <ele>277</ele>
        <time>2015-01-17T11:02:32Z</time>
      </trkpt>
      <trkpt lat="44.89742" lon="4.81555">
        <ele>277.96</ele>
        <time>2015-01-17T11:02:37Z</time>
      </trkpt>
      <trkpt lat="44.89737" lon="4.81536">
        <ele>278.44</ele>
        <time>2015-01-17T11:02:45Z</time>
      </trkpt>
      <trkpt lat="44.89735" lon="4.81536">
        <ele>278.44</ele>
        <time>2015-01-17T11:02:46Z</time>
      </trkpt>
      <trkpt lat="44.89734" lon="4.81541">
        <ele>278.44</ele>
        <time>2015-01-17T11:02:48Z</time>
      </trkpt>
      <trkpt lat="44.89736" lon="4.81544">
        <ele>278.44</ele>
        <time>2015-01-17T11:02:49Z</time>
      </trkpt>
      <trkpt lat="44.89737" lon="4.81547">
        <ele>278.44</ele>
        <time>2015-01-17T11:02:50Z</time>
      </trkpt>
      <trkpt lat="44.89739" lon="4.81551">
        <ele>278.92</ele>
        <time>2015-01-17T11:02:51Z</time>
      </trkpt>
      <trkpt lat="44.89752" lon="4.81589">
        <ele>277</ele>
        <time>2015-01-17T11:02:59Z</time>
      </trkpt>
      <trkpt lat="44.89775" lon="4.8164">
        <ele>274.59</ele>
        <time>2015-01-17T11:03:08Z</time>
      </trkpt>
      <trkpt lat="44.89775" lon="4.81648">
        <ele>274.11</ele>
        <time>2015-01-17T11:03:09Z</time>
      </trkpt>
      <trkpt lat="44.89774" lon="4.81663">
        <ele>273.63</ele>
        <time>2015-01-17T11:03:11Z</time>
      </trkpt>
      <trkpt lat="44.89773" lon="4.8167">
        <ele>273.63</ele>
        <time>2015-01-17T11:03:12Z</time>
      </trkpt>
      <trkpt lat="44.89772" lon="4.81677">
        <ele>273.63</ele>
        <time>2015-01-17T11:03:13Z</time>
      </trkpt>
      <trkpt lat="44.8977" lon="4.81684">
        <ele>273.63</ele>
        <time>2015-01-17T11:03:14Z</time>
      </trkpt>
      <trkpt lat="44.89768" lon="4.81691">
        <ele>273.63</ele>
        <time>2015-01-17T11:03:15Z</time>
      </trkpt>
      <trkpt lat="44.89761" lon="4.8172">
        <ele>271.71</ele>
        <time>2015-01-17T11:03:19Z</time>
      </trkpt>
      <trkpt lat="44.89745" lon="4.81771">
        <ele>270.27</ele>
        <time>2015-01-17T11:03:25Z</time>
      </trkpt>
      <trkpt lat="44.89742" lon="4.81779">
        <ele>270.27</ele>
        <time>2015-01-17T11:03:26Z</time>
      </trkpt>
      <trkpt lat="44.89737" lon="4.81787">
        <ele>269.79</ele>
        <time>2015-01-17T11:03:27Z</time>
      </trkpt>
      <trkpt lat="44.89732" lon="4.81793">
        <ele>268.83</ele>
        <time>2015-01-17T11:03:28Z</time>
      </trkpt>
      <trkpt lat="44.89727" lon="4.818">
        <ele>268.35</ele>
        <time>2015-01-17T11:03:29Z</time>
      </trkpt>
      <trkpt lat="44.89722" lon="4.81807">
        <ele>268.35</ele>
        <time>2015-01-17T11:03:30Z</time>
      </trkpt>
      <trkpt lat="44.89716" lon="4.81813">
        <ele>267.38</ele>
        <time>2015-01-17T11:03:31Z</time>
      </trkpt>
      <trkpt lat="44.897" lon="4.8183">
        <ele>265.46</ele>
        <time>2015-01-17T11:03:34Z</time>
      </trkpt>
      <trkpt lat="44.89694" lon="4.81834">
        <ele>265.46</ele>
        <time>2015-01-17T11:03:35Z</time>
      </trkpt>
      <trkpt lat="44.89645" lon="4.81862">
        <ele>263.06</ele>
        <time>2015-01-17T11:03:42Z</time>
      </trkpt>
      <trkpt lat="44.89637" lon="4.81867">
        <ele>262.58</ele>
        <time>2015-01-17T11:03:43Z</time>
      </trkpt>
      <trkpt lat="44.89622" lon="4.81878">
        <ele>261.62</ele>
        <time>2015-01-17T11:03:45Z</time>
      </trkpt>
      <trkpt lat="44.89572" lon="4.81908">
        <ele>257.77</ele>
        <time>2015-01-17T11:03:51Z</time>
      </trkpt>
      <trkpt lat="44.89563" lon="4.81912">
        <ele>257.77</ele>
        <time>2015-01-17T11:03:52Z</time>
      </trkpt>
      <trkpt lat="44.89554" lon="4.81914">
        <ele>256.33</ele>
        <time>2015-01-17T11:03:53Z</time>
      </trkpt>
      <trkpt lat="44.89545" lon="4.81913">
        <ele>256.33</ele>
        <time>2015-01-17T11:03:54Z</time>
      </trkpt>
      <trkpt lat="44.89536" lon="4.81909">
        <ele>255.85</ele>
        <time>2015-01-17T11:03:55Z</time>
      </trkpt>
      <trkpt lat="44.89528" lon="4.81902">
        <ele>255.37</ele>
        <time>2015-01-17T11:03:56Z</time>
      </trkpt>
      <trkpt lat="44.8952" lon="4.81896">
        <ele>254.89</ele>
        <time>2015-01-17T11:03:57Z</time>
      </trkpt>
      <trkpt lat="44.89512" lon="4.81891">
        <ele>253.44</ele>
        <time>2015-01-17T11:03:58Z</time>
      </trkpt>
      <trkpt lat="44.89503" lon="4.81891">
        <ele>252.96</ele>
        <time>2015-01-17T11:03:59Z</time>
      </trkpt>
      <trkpt lat="44.89496" lon="4.81895">
        <ele>252.96</ele>
        <time>2015-01-17T11:04:00Z</time>
      </trkpt>
      <trkpt lat="44.89491" lon="4.819">
        <ele>252</ele>
        <time>2015-01-17T11:04:01Z</time>
      </trkpt>
      <trkpt lat="44.89488" lon="4.81907">
        <ele>251.52</ele>
        <time>2015-01-17T11:04:02Z</time>
      </trkpt>
      <trkpt lat="44.89485" lon="4.81914">
        <ele>249.6</ele>
        <time>2015-01-17T11:04:03Z</time>
      </trkpt>
      <trkpt lat="44.89484" lon="4.81923">
        <ele>248.64</ele>
        <time>2015-01-17T11:04:04Z</time>
      </trkpt>
      <trkpt lat="44.89482" lon="4.81932">
        <ele>247.2</ele>
        <time>2015-01-17T11:04:05Z</time>
      </trkpt>
      <trkpt lat="44.89479" lon="4.81944">
        <ele>244.31</ele>
        <time>2015-01-17T11:04:07Z</time>
      </trkpt>
      <trkpt lat="44.89477" lon="4.81949">
        <ele>242.39</ele>
        <time>2015-01-17T11:04:08Z</time>
      </trkpt>
      <trkpt lat="44.89473" lon="4.81952">
        <ele>240.47</ele>
        <time>2015-01-17T11:04:09Z</time>
      </trkpt>
      <trkpt lat="44.89468" lon="4.81953">
        <ele>239.99</ele>
        <time>2015-01-17T11:04:10Z</time>
      </trkpt>
      <trkpt lat="44.89463" lon="4.81952">
        <ele>238.54</ele>
        <time>2015-01-17T11:04:11Z</time>
      </trkpt>
      <trkpt lat="44.89457" lon="4.81951">
        <ele>238.06</ele>
        <time>2015-01-17T11:04:12Z</time>
      </trkpt>
      <trkpt lat="44.8945" lon="4.81949">
        <ele>237.1</ele>
        <time>2015-01-17T11:04:13Z</time>
      </trkpt>
      <trkpt lat="44.89418" lon="4.81938">
        <ele>234.22</ele>
        <time>2015-01-17T11:04:17Z</time>
      </trkpt>
      <trkpt lat="44.89394" lon="4.8193">
        <ele>230.85</ele>
        <time>2015-01-17T11:04:20Z</time>
      </trkpt>
      <trkpt lat="44.89379" lon="4.81926">
        <ele>229.41</ele>
        <time>2015-01-17T11:04:22Z</time>
      </trkpt>
      <trkpt lat="44.89338" lon="4.81904">
        <ele>228.45</ele>
        <time>2015-01-17T11:04:28Z</time>
      </trkpt>
      <trkpt lat="44.89331" lon="4.81904">
        <ele>227.97</ele>
        <time>2015-01-17T11:04:29Z</time>
      </trkpt>
      <trkpt lat="44.89325" lon="4.81908">
        <ele>227.97</ele>
        <time>2015-01-17T11:04:30Z</time>
      </trkpt>
      <trkpt lat="44.89321" lon="4.81916">
        <ele>227.97</ele>
        <time>2015-01-17T11:04:31Z</time>
      </trkpt>
      <trkpt lat="44.89319" lon="4.81926">
        <ele>227.49</ele>
        <time>2015-01-17T11:04:32Z</time>
      </trkpt>
      <trkpt lat="44.89317" lon="4.81935">
        <ele>227.01</ele>
        <time>2015-01-17T11:04:33Z</time>
      </trkpt>
      <trkpt lat="44.89314" lon="4.81943">
        <ele>226.05</ele>
        <time>2015-01-17T11:04:34Z</time>
      </trkpt>
      <trkpt lat="44.8931" lon="4.81948">
        <ele>224.61</ele>
        <time>2015-01-17T11:04:35Z</time>
      </trkpt>
      <trkpt lat="44.89304" lon="4.81947">
        <ele>224.61</ele>
        <time>2015-01-17T11:04:36Z</time>
      </trkpt>
      <trkpt lat="44.89291" lon="4.81944">
        <ele>223.16</ele>
        <time>2015-01-17T11:04:38Z</time>
      </trkpt>
      <trkpt lat="44.89285" lon="4.81944">
        <ele>223.16</ele>
        <time>2015-01-17T11:04:39Z</time>
      </trkpt>
      <trkpt lat="44.89279" lon="4.81946">
        <ele>222.68</ele>
        <time>2015-01-17T11:04:40Z</time>
      </trkpt>
      <trkpt lat="44.89273" lon="4.8195">
        <ele>222.68</ele>
        <time>2015-01-17T11:04:41Z</time>
      </trkpt>
      <trkpt lat="44.89268" lon="4.81954">
        <ele>222.68</ele>
        <time>2015-01-17T11:04:42Z</time>
      </trkpt>
      <trkpt lat="44.89262" lon="4.81959">
        <ele>222.68</ele>
        <time>2015-01-17T11:04:43Z</time>
      </trkpt>
      <trkpt lat="44.89257" lon="4.81963">
        <ele>222.2</ele>
        <time>2015-01-17T11:04:44Z</time>
      </trkpt>
      <trkpt lat="44.89236" lon="4.81986">
        <ele>220.76</ele>
        <time>2015-01-17T11:04:48Z</time>
      </trkpt>
      <trkpt lat="44.89231" lon="4.81993">
        <ele>220.76</ele>
        <time>2015-01-17T11:04:49Z</time>
      </trkpt>
      <trkpt lat="44.89227" lon="4.82002">
        <ele>220.76</ele>
        <time>2015-01-17T11:04:50Z</time>
      </trkpt>
      <trkpt lat="44.89224" lon="4.82012">
        <ele>219.32</ele>
        <time>2015-01-17T11:04:51Z</time>
      </trkpt>
      <trkpt lat="44.89223" lon="4.82023">
        <ele>219.32</ele>
        <time>2015-01-17T11:04:52Z</time>
      </trkpt>
      <trkpt lat="44.89224" lon="4.82034">
        <ele>218.84</ele>
        <time>2015-01-17T11:04:53Z</time>
      </trkpt>
      <trkpt lat="44.89225" lon="4.82044">
        <ele>218.84</ele>
        <time>2015-01-17T11:04:54Z</time>
      </trkpt>
      <trkpt lat="44.89227" lon="4.82054">
        <ele>218.84</ele>
        <time>2015-01-17T11:04:55Z</time>
      </trkpt>
      <trkpt lat="44.89232" lon="4.82082">
        <ele>217.88</ele>
        <time>2015-01-17T11:04:58Z</time>
      </trkpt>
      <trkpt lat="44.89233" lon="4.8209">
        <ele>216.43</ele>
        <time>2015-01-17T11:04:59Z</time>
      </trkpt>
      <trkpt lat="44.89233" lon="4.82099">
        <ele>215.95</ele>
        <time>2015-01-17T11:05:00Z</time>
      </trkpt>
      <trkpt lat="44.89232" lon="4.82108">
        <ele>215.47</ele>
        <time>2015-01-17T11:05:01Z</time>
      </trkpt>
      <trkpt lat="44.8923" lon="4.82117">
        <ele>215.47</ele>
        <time>2015-01-17T11:05:02Z</time>
      </trkpt>
      <trkpt lat="44.89218" lon="4.82168">
        <ele>212.59</ele>
        <time>2015-01-17T11:05:08Z</time>
      </trkpt>
      <trkpt lat="44.89215" lon="4.82174">
        <ele>211.63</ele>
        <time>2015-01-17T11:05:09Z</time>
      </trkpt>
      <trkpt lat="44.89212" lon="4.82178">
        <ele>211.63</ele>
        <time>2015-01-17T11:05:10Z</time>
      </trkpt>
      <trkpt lat="44.89207" lon="4.8218">
        <ele>211.15</ele>
        <time>2015-01-17T11:05:11Z</time>
      </trkpt>
      <trkpt lat="44.89202" lon="4.8218">
        <ele>210.67</ele>
        <time>2015-01-17T11:05:12Z</time>
      </trkpt>
      <trkpt lat="44.89198" lon="4.8218">
        <ele>210.67</ele>
        <time>2015-01-17T11:05:13Z</time>
      </trkpt>
      <trkpt lat="44.89193" lon="4.8218">
        <ele>210.67</ele>
        <time>2015-01-17T11:05:14Z</time>
      </trkpt>
      <trkpt lat="44.89188" lon="4.8218">
        <ele>211.15</ele>
        <time>2015-01-17T11:05:15Z</time>
      </trkpt>
      <trkpt lat="44.89183" lon="4.82179">
        <ele>210.67</ele>
        <time>2015-01-17T11:05:16Z</time>
      </trkpt>
      <trkpt lat="44.89093" lon="4.8216">
        <ele>208.26</ele>
        <time>2015-01-17T11:05:33Z</time>
      </trkpt>
      <trkpt lat="44.89073" lon="4.82155">
        <ele>207.78</ele>
        <time>2015-01-17T11:05:37Z</time>
      </trkpt>
      <trkpt lat="44.89068" lon="4.82154">
        <ele>207.3</ele>
        <time>2015-01-17T11:05:38Z</time>
      </trkpt>
      <trkpt lat="44.89033" lon="4.82148">
        <ele>206.34</ele>
        <time>2015-01-17T11:05:44Z</time>
      </trkpt>
      <trkpt lat="44.89027" lon="4.82146">
        <ele>205.86</ele>
        <time>2015-01-17T11:05:45Z</time>
      </trkpt>
      <trkpt lat="44.88955" lon="4.821">
        <ele>202.98</ele>
        <time>2015-01-17T11:05:57Z</time>
      </trkpt>
      <trkpt lat="44.88896" lon="4.82048">
        <ele>205.38</ele>
        <time>2015-01-17T11:06:10Z</time>
      </trkpt>
      <trkpt lat="44.88825" lon="4.82001">
        <ele>204.9</ele>
        <time>2015-01-17T11:06:26Z</time>
      </trkpt>
      <trkpt lat="44.8873" lon="4.81958">
        <ele>203.94</ele>
        <time>2015-01-17T11:06:44Z</time>
      </trkpt>
      <trkpt lat="44.88639" lon="4.81919">
        <ele>204.42</ele>
        <time>2015-01-17T11:07:02Z</time>
      </trkpt>
      <trkpt lat="44.88554" lon="4.81952">
        <ele>202.98</ele>
        <time>2015-01-17T11:07:17Z</time>
      </trkpt>
      <trkpt lat="44.88486" lon="4.8198">
        <ele>199.61</ele>
        <time>2015-01-17T11:07:28Z</time>
      </trkpt>
      <trkpt lat="44.88383" lon="4.81979">
        <ele>196.25</ele>
        <time>2015-01-17T11:07:43Z</time>
      </trkpt>
      <trkpt lat="44.88279" lon="4.82001">
        <ele>193.36</ele>
        <time>2015-01-17T11:07:58Z</time>
      </trkpt>
      <trkpt lat="44.88159" lon="4.82035">
        <ele>192.4</ele>
        <time>2015-01-17T11:08:17Z</time>
      </trkpt>
      <trkpt lat="44.88038" lon="4.82062">
        <ele>191.92</ele>
        <time>2015-01-17T11:08:36Z</time>
      </trkpt>
      <trkpt lat="44.87997" lon="4.82071">
        <ele>190.48</ele>
        <time>2015-01-17T11:08:42Z</time>
      </trkpt>
      <trkpt lat="44.8799" lon="4.82075">
        <ele>190</ele>
        <time>2015-01-17T11:08:43Z</time>
      </trkpt>
      <trkpt lat="44.87945" lon="4.82108">
        <ele>189.04</ele>
        <time>2015-01-17T11:08:50Z</time>
      </trkpt>
      <trkpt lat="44.87938" lon="4.8211">
        <ele>189.04</ele>
        <time>2015-01-17T11:08:51Z</time>
      </trkpt>
      <trkpt lat="44.87918" lon="4.82112">
        <ele>189.04</ele>
        <time>2015-01-17T11:08:54Z</time>
      </trkpt>
      <trkpt lat="44.87912" lon="4.82113">
        <ele>188.56</ele>
        <time>2015-01-17T11:08:55Z</time>
      </trkpt>
      <trkpt lat="44.87906" lon="4.82116">
        <ele>188.56</ele>
        <time>2015-01-17T11:08:56Z</time>
      </trkpt>
      <trkpt lat="44.87836" lon="4.82171">
        <ele>185.67</ele>
        <time>2015-01-17T11:09:08Z</time>
      </trkpt>
      <trkpt lat="44.87829" lon="4.82174">
        <ele>185.19</ele>
        <time>2015-01-17T11:09:09Z</time>
      </trkpt>
      <trkpt lat="44.87822" lon="4.82176">
        <ele>184.71</ele>
        <time>2015-01-17T11:09:10Z</time>
      </trkpt>
      <trkpt lat="44.87802" lon="4.82181">
        <ele>184.71</ele>
        <time>2015-01-17T11:09:13Z</time>
      </trkpt>
      <trkpt lat="44.87795" lon="4.82185">
        <ele>184.23</ele>
        <time>2015-01-17T11:09:14Z</time>
      </trkpt>
      <trkpt lat="44.8779" lon="4.8219">
        <ele>184.23</ele>
        <time>2015-01-17T11:09:15Z</time>
      </trkpt>
      <trkpt lat="44.87785" lon="4.82197">
        <ele>183.75</ele>
        <time>2015-01-17T11:09:16Z</time>
      </trkpt>
      <trkpt lat="44.87782" lon="4.82205">
        <ele>183.75</ele>
        <time>2015-01-17T11:09:17Z</time>
      </trkpt>
      <trkpt lat="44.87778" lon="4.82214">
        <ele>183.75</ele>
        <time>2015-01-17T11:09:18Z</time>
      </trkpt>
      <trkpt lat="44.87774" lon="4.82221">
        <ele>183.27</ele>
        <time>2015-01-17T11:09:19Z</time>
      </trkpt>
      <trkpt lat="44.87769" lon="4.82228">
        <ele>183.75</ele>
        <time>2015-01-17T11:09:20Z</time>
      </trkpt>
      <trkpt lat="44.87763" lon="4.82232">
        <ele>183.27</ele>
        <time>2015-01-17T11:09:21Z</time>
      </trkpt>
      <trkpt lat="44.87756" lon="4.82233">
        <ele>182.79</ele>
        <time>2015-01-17T11:09:22Z</time>
      </trkpt>
      <trkpt lat="44.87749" lon="4.82232">
        <ele>182.79</ele>
        <time>2015-01-17T11:09:23Z</time>
      </trkpt>
      <trkpt lat="44.87742" lon="4.82232">
        <ele>183.27</ele>
        <time>2015-01-17T11:09:24Z</time>
      </trkpt>
      <trkpt lat="44.87729" lon="4.82232">
        <ele>182.79</ele>
        <time>2015-01-17T11:09:26Z</time>
      </trkpt>
      <trkpt lat="44.87723" lon="4.82234">
        <ele>182.31</ele>
        <time>2015-01-17T11:09:27Z</time>
      </trkpt>
      <trkpt lat="44.87717" lon="4.82239">
        <ele>181.83</ele>
        <time>2015-01-17T11:09:28Z</time>
      </trkpt>
      <trkpt lat="44.87711" lon="4.82245">
        <ele>181.83</ele>
        <time>2015-01-17T11:09:29Z</time>
      </trkpt>
      <trkpt lat="44.87706" lon="4.82252">
        <ele>181.35</ele>
        <time>2015-01-17T11:09:30Z</time>
      </trkpt>
      <trkpt lat="44.87683" lon="4.82279">
        <ele>179.9</ele>
        <time>2015-01-17T11:09:34Z</time>
      </trkpt>
      <trkpt lat="44.87677" lon="4.82286">
        <ele>179.42</ele>
        <time>2015-01-17T11:09:35Z</time>
      </trkpt>
      <trkpt lat="44.87669" lon="4.8229">
        <ele>178.94</ele>
        <time>2015-01-17T11:09:36Z</time>
      </trkpt>
      <trkpt lat="44.87661" lon="4.82292">
        <ele>178.46</ele>
        <time>2015-01-17T11:09:37Z</time>
      </trkpt>
      <trkpt lat="44.87654" lon="4.82294">
        <ele>177.98</ele>
        <time>2015-01-17T11:09:38Z</time>
      </trkpt>
      <trkpt lat="44.87646" lon="4.82297">
        <ele>177.98</ele>
        <time>2015-01-17T11:09:39Z</time>
      </trkpt>
      <trkpt lat="44.87639" lon="4.82301">
        <ele>177.02</ele>
        <time>2015-01-17T11:09:40Z</time>
      </trkpt>
      <trkpt lat="44.87632" lon="4.82308">
        <ele>177.02</ele>
        <time>2015-01-17T11:09:41Z</time>
      </trkpt>
      <trkpt lat="44.87627" lon="4.82316">
        <ele>177.02</ele>
        <time>2015-01-17T11:09:42Z</time>
      </trkpt>
      <trkpt lat="44.87623" lon="4.82326">
        <ele>176.54</ele>
        <time>2015-01-17T11:09:43Z</time>
      </trkpt>
      <trkpt lat="44.8762" lon="4.82336">
        <ele>176.54</ele>
        <time>2015-01-17T11:09:44Z</time>
      </trkpt>
      <trkpt lat="44.87618" lon="4.82347">
        <ele>176.06</ele>
        <time>2015-01-17T11:09:45Z</time>
      </trkpt>
      <trkpt lat="44.87612" lon="4.82368">
        <ele>175.58</ele>
        <time>2015-01-17T11:09:47Z</time>
      </trkpt>
      <trkpt lat="44.87608" lon="4.82377">
        <ele>174.62</ele>
        <time>2015-01-17T11:09:48Z</time>
      </trkpt>
      <trkpt lat="44.87602" lon="4.82386">
        <ele>174.62</ele>
        <time>2015-01-17T11:09:49Z</time>
      </trkpt>
      <trkpt lat="44.87596" lon="4.82393">
        <ele>174.14</ele>
        <time>2015-01-17T11:09:50Z</time>
      </trkpt>
      <trkpt lat="44.8759" lon="4.82399">
        <ele>173.66</ele>
        <time>2015-01-17T11:09:51Z</time>
      </trkpt>
      <trkpt lat="44.87583" lon="4.82405">
        <ele>173.17</ele>
        <time>2015-01-17T11:09:52Z</time>
      </trkpt>
      <trkpt lat="44.87575" lon="4.8241">
        <ele>173.17</ele>
        <time>2015-01-17T11:09:53Z</time>
      </trkpt>
      <trkpt lat="44.8754" lon="4.82437">
        <ele>171.73</ele>
        <time>2015-01-17T11:09:58Z</time>
      </trkpt>
      <trkpt lat="44.87536" lon="4.82446">
        <ele>171.73</ele>
        <time>2015-01-17T11:09:59Z</time>
      </trkpt>
      <trkpt lat="44.87532" lon="4.82456">
        <ele>171.25</ele>
        <time>2015-01-17T11:10:00Z</time>
      </trkpt>
      <trkpt lat="44.8753" lon="4.82467">
        <ele>170.77</ele>
        <time>2015-01-17T11:10:01Z</time>
      </trkpt>
      <trkpt lat="44.87528" lon="4.82478">
        <ele>170.29</ele>
        <time>2015-01-17T11:10:02Z</time>
      </trkpt>
      <trkpt lat="44.87522" lon="4.82515">
        <ele>167.41</ele>
        <time>2015-01-17T11:10:05Z</time>
      </trkpt>
      <trkpt lat="44.87517" lon="4.82526">
        <ele>166.93</ele>
        <time>2015-01-17T11:10:06Z</time>
      </trkpt>
      <trkpt lat="44.87504" lon="4.82558">
        <ele>165</ele>
        <time>2015-01-17T11:10:09Z</time>
      </trkpt>
      <trkpt lat="44.87487" lon="4.82606">
        <ele>165</ele>
        <time>2015-01-17T11:10:14Z</time>
      </trkpt>
      <trkpt lat="44.87483" lon="4.82614">
        <ele>164.52</ele>
        <time>2015-01-17T11:10:15Z</time>
      </trkpt>
      <trkpt lat="44.87477" lon="4.8262">
        <ele>165</ele>
        <time>2015-01-17T11:10:16Z</time>
      </trkpt>
      <trkpt lat="44.87471" lon="4.82623">
        <ele>164.52</ele>
        <time>2015-01-17T11:10:17Z</time>
      </trkpt>
      <trkpt lat="44.87464" lon="4.82624">
        <ele>164.52</ele>
        <time>2015-01-17T11:10:18Z</time>
      </trkpt>
      <trkpt lat="44.87458" lon="4.82625">
        <ele>166.45</ele>
        <time>2015-01-17T11:10:19Z</time>
      </trkpt>
      <trkpt lat="44.87384" lon="4.82653">
        <ele>165</ele>
        <time>2015-01-17T11:10:32Z</time>
      </trkpt>
      <trkpt lat="44.87329" lon="4.82675">
        <ele>164.52</ele>
        <time>2015-01-17T11:10:42Z</time>
      </trkpt>
      <trkpt lat="44.87323" lon="4.82675">
        <ele>164.52</ele>
        <time>2015-01-17T11:10:43Z</time>
      </trkpt>
      <trkpt lat="44.87318" lon="4.82673">
        <ele>164.04</ele>
        <time>2015-01-17T11:10:44Z</time>
      </trkpt>
      <trkpt lat="44.87314" lon="4.82666">
        <ele>163.56</ele>
        <time>2015-01-17T11:10:45Z</time>
      </trkpt>
      <trkpt lat="44.87312" lon="4.82658">
        <ele>163.08</ele>
        <time>2015-01-17T11:10:46Z</time>
      </trkpt>
      <trkpt lat="44.8731" lon="4.82649">
        <ele>163.08</ele>
        <time>2015-01-17T11:10:47Z</time>
      </trkpt>
      <trkpt lat="44.87309" lon="4.82639">
        <ele>162.6</ele>
        <time>2015-01-17T11:10:48Z</time>
      </trkpt>
      <trkpt lat="44.87293" lon="4.82506">
        <ele>160.2</ele>
        <time>2015-01-17T11:11:04Z</time>
      </trkpt>
      <trkpt lat="44.87282" lon="4.82373">
        <ele>162.12</ele>
        <time>2015-01-17T11:11:24Z</time>
      </trkpt>
      <trkpt lat="44.87286" lon="4.82298">
        <ele>165.48</ele>
        <time>2015-01-17T11:11:38Z</time>
      </trkpt>
      <trkpt lat="44.87289" lon="4.82258">
        <ele>168.37</ele>
        <time>2015-01-17T11:11:48Z</time>
      </trkpt>
      <trkpt lat="44.87275" lon="4.82234">
        <ele>171.73</ele>
        <time>2015-01-17T11:11:58Z</time>
      </trkpt>
      <trkpt lat="44.87233" lon="4.82231">
        <ele>170.77</ele>
        <time>2015-01-17T11:12:11Z</time>
      </trkpt>
      <trkpt lat="44.8715" lon="4.82231">
        <ele>170.29</ele>
        <time>2015-01-17T11:12:29Z</time>
      </trkpt>
      <trkpt lat="44.87081" lon="4.82236">
        <ele>168.85</ele>
        <time>2015-01-17T11:12:41Z</time>
      </trkpt>
      <trkpt lat="44.87075" lon="4.82238">
        <ele>168.37</ele>
        <time>2015-01-17T11:12:42Z</time>
      </trkpt>
      <trkpt lat="44.8707" lon="4.82241">
        <ele>168.37</ele>
        <time>2015-01-17T11:12:43Z</time>
      </trkpt>
      <trkpt lat="44.87064" lon="4.82245">
        <ele>167.89</ele>
        <time>2015-01-17T11:12:44Z</time>
      </trkpt>
      <trkpt lat="44.87058" lon="4.82249">
        <ele>167.41</ele>
        <time>2015-01-17T11:12:45Z</time>
      </trkpt>
      <trkpt lat="44.87041" lon="4.82266">
        <ele>165.96</ele>
        <time>2015-01-17T11:12:48Z</time>
      </trkpt>
      <trkpt lat="44.87036" lon="4.82273">
        <ele>165.96</ele>
        <time>2015-01-17T11:12:49Z</time>
      </trkpt>
      <trkpt lat="44.87031" lon="4.8228">
        <ele>165.96</ele>
        <time>2015-01-17T11:12:50Z</time>
      </trkpt>
      <trkpt lat="44.87027" lon="4.82289">
        <ele>165.48</ele>
        <time>2015-01-17T11:12:51Z</time>
      </trkpt>
      <trkpt lat="44.87024" lon="4.82298">
        <ele>165</ele>
        <time>2015-01-17T11:12:52Z</time>
      </trkpt>
      <trkpt lat="44.87021" lon="4.82308">
        <ele>165</ele>
        <time>2015-01-17T11:12:53Z</time>
      </trkpt>
      <trkpt lat="44.87015" lon="4.82326">
        <ele>164.04</ele>
        <time>2015-01-17T11:12:55Z</time>
      </trkpt>
      <trkpt lat="44.8701" lon="4.82331">
        <ele>163.08</ele>
        <time>2015-01-17T11:12:56Z</time>
      </trkpt>
      <trkpt lat="44.87005" lon="4.82331">
        <ele>162.6</ele>
        <time>2015-01-17T11:12:57Z</time>
      </trkpt>
      <trkpt lat="44.87001" lon="4.82327">
        <ele>162.6</ele>
        <time>2015-01-17T11:12:58Z</time>
      </trkpt>
      <trkpt lat="44.86998" lon="4.82323">
        <ele>162.6</ele>
        <time>2015-01-17T11:12:59Z</time>
      </trkpt>
      <trkpt lat="44.86996" lon="4.82319">
        <ele>162.6</ele>
        <time>2015-01-17T11:13:00Z</time>
      </trkpt>
      <trkpt lat="44.86995" lon="4.82316">
        <ele>162.6</ele>
        <time>2015-01-17T11:13:01Z</time>
      </trkpt>
      <trkpt lat="44.86993" lon="4.82313">
        <ele>163.08</ele>
        <time>2015-01-17T11:13:02Z</time>
      </trkpt>
      <trkpt lat="44.86986" lon="4.82302">
        <ele>164.52</ele>
        <time>2015-01-17T11:13:06Z</time>
      </trkpt>
      <trkpt lat="44.86968" lon="4.8228">
        <ele>167.41</ele>
        <time>2015-01-17T11:13:16Z</time>
      </trkpt>
      <trkpt lat="44.86948" lon="4.82264">
        <ele>170.29</ele>
        <time>2015-01-17T11:13:27Z</time>
      </trkpt>
      <trkpt lat="44.86927" lon="4.82244">
        <ele>173.66</ele>
        <time>2015-01-17T11:13:39Z</time>
      </trkpt>
      <trkpt lat="44.86905" lon="4.82219">
        <ele>177.02</ele>
        <time>2015-01-17T11:13:53Z</time>
      </trkpt>
      <trkpt lat="44.86892" lon="4.82186">
        <ele>179.9</ele>
        <time>2015-01-17T11:14:08Z</time>
      </trkpt>
      <trkpt lat="44.869" lon="4.8215">
        <ele>183.27</ele>
        <time>2015-01-17T11:14:20Z</time>
      </trkpt>
      <trkpt lat="44.86916" lon="4.82085">
        <ele>184.23</ele>
        <time>2015-01-17T11:14:40Z</time>
      </trkpt>
      <trkpt lat="44.86937" lon="4.82022">
        <ele>187.11</ele>
        <time>2015-01-17T11:15:00Z</time>
      </trkpt>
      <trkpt lat="44.86969" lon="4.81962">
        <ele>188.08</ele>
        <time>2015-01-17T11:15:18Z</time>
      </trkpt>
      <trkpt lat="44.8699" lon="4.81911">
        <ele>191.44</ele>
        <time>2015-01-17T11:15:34Z</time>
      </trkpt>
      <trkpt lat="44.87003" lon="4.81851">
        <ele>193.36</ele>
        <time>2015-01-17T11:15:53Z</time>
      </trkpt>
      <trkpt lat="44.87016" lon="4.81783">
        <ele>196.73</ele>
        <time>2015-01-17T11:16:13Z</time>
      </trkpt>
      <trkpt lat="44.87028" lon="4.81721">
        <ele>200.09</ele>
        <time>2015-01-17T11:16:32Z</time>
      </trkpt>
      <trkpt lat="44.87041" lon="4.81656">
        <ele>202.98</ele>
        <time>2015-01-17T11:16:52Z</time>
      </trkpt>
      <trkpt lat="44.87051" lon="4.81601">
        <ele>206.34</ele>
        <time>2015-01-17T11:17:10Z</time>
      </trkpt>
      <trkpt lat="44.87061" lon="4.81551">
        <ele>209.22</ele>
        <time>2015-01-17T11:17:27Z</time>
      </trkpt>
      <trkpt lat="44.8707" lon="4.81497">
        <ele>212.59</ele>
        <time>2015-01-17T11:17:45Z</time>
      </trkpt>
      <trkpt lat="44.87072" lon="4.8145">
        <ele>215.95</ele>
        <time>2015-01-17T11:18:01Z</time>
      </trkpt>
      <trkpt lat="44.87041" lon="4.8142">
        <ele>218.84</ele>
        <time>2015-01-17T11:18:18Z</time>
      </trkpt>
      <trkpt lat="44.8699" lon="4.81392">
        <ele>220.76</ele>
        <time>2015-01-17T11:18:41Z</time>
      </trkpt>
      <trkpt lat="44.86941" lon="4.81395">
        <ele>221.24</ele>
        <time>2015-01-17T11:18:58Z</time>
      </trkpt>
      <trkpt lat="44.86885" lon="4.81405">
        <ele>222.68</ele>
        <time>2015-01-17T11:19:15Z</time>
      </trkpt>
      <trkpt lat="44.86832" lon="4.814">
        <ele>224.12</ele>
        <time>2015-01-17T11:19:30Z</time>
      </trkpt>
      <trkpt lat="44.86796" lon="4.81406">
        <ele>223.16</ele>
        <time>2015-01-17T11:19:39Z</time>
      </trkpt>
      <trkpt lat="44.86784" lon="4.81413">
        <ele>222.68</ele>
        <time>2015-01-17T11:19:42Z</time>
      </trkpt>
      <trkpt lat="44.86766" lon="4.81424">
        <ele>221.72</ele>
        <time>2015-01-17T11:19:46Z</time>
      </trkpt>
      <trkpt lat="44.86762" lon="4.81425">
        <ele>221.72</ele>
        <time>2015-01-17T11:19:47Z</time>
      </trkpt>
      <trkpt lat="44.86677" lon="4.81426">
        <ele>220.28</ele>
        <time>2015-01-17T11:20:04Z</time>
      </trkpt>
      <trkpt lat="44.86641" lon="4.81422">
        <ele>220.76</ele>
        <time>2015-01-17T11:20:12Z</time>
      </trkpt>
      <trkpt lat="44.86636" lon="4.8142">
        <ele>220.28</ele>
        <time>2015-01-17T11:20:13Z</time>
      </trkpt>
      <trkpt lat="44.86632" lon="4.81418">
        <ele>220.76</ele>
        <time>2015-01-17T11:20:14Z</time>
      </trkpt>
      <trkpt lat="44.86569" lon="4.81371">
        <ele>221.72</ele>
        <time>2015-01-17T11:20:31Z</time>
      </trkpt>
      <trkpt lat="44.86502" lon="4.81317">
        <ele>222.68</ele>
        <time>2015-01-17T11:20:49Z</time>
      </trkpt>
      <trkpt lat="44.86418" lon="4.81271">
        <ele>222.2</ele>
        <time>2015-01-17T11:21:09Z</time>
      </trkpt>
      <trkpt lat="44.86406" lon="4.81265">
        <ele>222.2</ele>
        <time>2015-01-17T11:21:12Z</time>
      </trkpt>
      <trkpt lat="44.86335" lon="4.81216">
        <ele>224.12</ele>
        <time>2015-01-17T11:21:31Z</time>
      </trkpt>
      <trkpt lat="44.86287" lon="4.8118">
        <ele>227.01</ele>
        <time>2015-01-17T11:21:47Z</time>
      </trkpt>
      <trkpt lat="44.86257" lon="4.81153">
        <ele>227.01</ele>
        <time>2015-01-17T11:21:58Z</time>
      </trkpt>
      <trkpt lat="44.86254" lon="4.81148">
        <ele>227.01</ele>
        <time>2015-01-17T11:21:59Z</time>
      </trkpt>
      <trkpt lat="44.86229" lon="4.81102">
        <ele>228.93</ele>
        <time>2015-01-17T11:22:12Z</time>
      </trkpt>
      <trkpt lat="44.86204" lon="4.81074">
        <ele>232.3</ele>
        <time>2015-01-17T11:22:24Z</time>
      </trkpt>
      <trkpt lat="44.86173" lon="4.81054">
        <ele>234.7</ele>
        <time>2015-01-17T11:22:40Z</time>
      </trkpt>
      <trkpt lat="44.86144" lon="4.81023">
        <ele>237.58</ele>
        <time>2015-01-17T11:22:58Z</time>
      </trkpt>
      <trkpt lat="44.86112" lon="4.80993">
        <ele>239.51</ele>
        <time>2015-01-17T11:23:15Z</time>
      </trkpt>
      <trkpt lat="44.86078" lon="4.80951">
        <ele>241.91</ele>
        <time>2015-01-17T11:23:33Z</time>
      </trkpt>
      <trkpt lat="44.86048" lon="4.80928">
        <ele>241.43</ele>
        <time>2015-01-17T11:23:47Z</time>
      </trkpt>
      <trkpt lat="44.86011" lon="4.80893">
        <ele>241.91</ele>
        <time>2015-01-17T11:24:03Z</time>
      </trkpt>
      <trkpt lat="44.85992" lon="4.80857">
        <ele>242.87</ele>
        <time>2015-01-17T11:24:16Z</time>
      </trkpt>
      <trkpt lat="44.85982" lon="4.80805">
        <ele>243.35</ele>
        <time>2015-01-17T11:24:30Z</time>
      </trkpt>
      <trkpt lat="44.85985" lon="4.80742">
        <ele>241.91</ele>
        <time>2015-01-17T11:24:43Z</time>
      </trkpt>
      <trkpt lat="44.85989" lon="4.80712">
        <ele>241.91</ele>
        <time>2015-01-17T11:24:53Z</time>
      </trkpt>
      <trkpt lat="44.85989" lon="4.8071">
        <ele>242.39</ele>
        <time>2015-01-17T11:24:54Z</time>
      </trkpt>
      <trkpt lat="44.85989" lon="4.80709">
        <ele>242.39</ele>
        <time>2015-01-17T11:24:55Z</time>
      </trkpt>
      <trkpt lat="44.85989" lon="4.80707">
        <ele>241.91</ele>
        <time>2015-01-17T11:24:56Z</time>
      </trkpt>
      <trkpt lat="44.8599" lon="4.80705">
        <ele>242.39</ele>
        <time>2015-01-17T11:24:57Z</time>
      </trkpt>
      <trkpt lat="44.85992" lon="4.80704">
        <ele>242.39</ele>
        <time>2015-01-17T11:24:58Z</time>
      </trkpt>
      <trkpt lat="44.85993" lon="4.80703">
        <ele>242.39</ele>
        <time>2015-01-17T11:24:59Z</time>
      </trkpt>
      <trkpt lat="44.85995" lon="4.80702">
        <ele>242.39</ele>
        <time>2015-01-17T11:25:00Z</time>
      </trkpt>
      <trkpt lat="44.85997" lon="4.80701">
        <ele>242.87</ele>
        <time>2015-01-17T11:25:01Z</time>
      </trkpt>
      <trkpt lat="44.86002" lon="4.80699">
        <ele>242.39</ele>
        <time>2015-01-17T11:25:12Z</time>
      </trkpt>
      <trkpt lat="44.85999" lon="4.807">
        <ele>241.43</ele>
        <time>2015-01-17T11:25:24Z</time>
      </trkpt>
      <trkpt lat="44.85999" lon="4.80699">
        <ele>241.43</ele>
        <time>2015-01-17T11:26:08Z</time>
      </trkpt>
      <trkpt lat="44.86" lon="4.80704">
        <ele>241.91</ele>
        <time>2015-01-17T11:26:24Z</time>
      </trkpt>
    </trkseg>
  </trk>
</gpx>